
Distance (Route):
Temperature : 9.3°C
Humidity : 41.2%
Pressure : 749.1hPa| Receiver | Frames | First received | Last received |
|---|---|---|---|
| OM5KV | 1127 | 2026-08-30 23:26:49 | 2026-08-31 01:14:42 |
| ATIDSZ-14 | 102 | 2026-08-30 23:27:26 | 2026-08-31 00:08:33 |
| OE5DRO-10 | 76 | 2026-08-31 00:29:00 | 2026-08-31 00:58:44 |
| GYPAP8-17 | 74 | 2026-08-30 23:35:15 | 2026-08-31 01:12:53 |
| LZ4TU-5 | 34 | 2026-08-31 00:07:16 | 2026-08-31 00:56:06 |
| SQ9EZE-15 | 16 | 2026-08-31 00:23:24 | 2026-08-31 00:55:14 |
| OE3JTB-15 | 12 | 2026-08-30 23:56:52 | 2026-08-31 01:12:02 |
| SQ9EZE-14 | 6 | 2026-08-31 00:28:08 | 2026-08-31 00:55:58 |
| OE3OSB-13 | 4 | 2026-08-31 01:07:09 | 2026-08-31 01:08:42 |
| Receiver | Date | Latitude | Longitude | Direction | Speed | Altitude | Climb | Temperature | Humidity | Pressure | Voltage | Killtimer | Uptime | BKT | XDATA |
|---|---|---|---|---|---|---|---|---|---|---|---|---|---|---|---|
| OM5KV | 2026-08-31 01:14:42 | 47.40053 | 19.88071 | 62° | 9km/h | 2644m | -14.4m/s | 9.3°C | 41.2% | 749.1hPa | 2.5V | 08:08:00 | 00:00:00 | 00:00:00 | |
| OM5KV | 2026-08-31 01:14:24 | 47.40026 | 19.88026 | 53° | 13km/h | 2898m | -13.7m/s | 7.2°C | 47.2% | 726.8hPa | 2.5V | 08:08:00 | 00:00:00 | 00:00:00 | |
| OM5KV | 2026-08-31 01:14:18 | 47.40014 | 19.88010 | 33° | 13km/h | 2983m | -13.9m/s | 6.5°C | 53.8% | 719.6hPa | 2.5V | 08:08:00 | 00:00:00 | 00:00:00 | |
| OM5KV | 2026-08-31 01:14:08 | 47.39977 | 19.87980 | 23° | 15km/h | 3133m | -14.4m/s | 5.1°C | 56.6% | 706.2hPa | 2.5V | 08:08:00 | 00:00:00 | 00:00:00 | |
| OM5KV | 2026-08-31 01:14:01 | 47.39953 | 19.87963 | 39° | 15km/h | 3215m | -13.4m/s | 4.7°C | 36.5% | 699.1hPa | 2.5V | 08:08:00 | 00:00:00 | 00:00:00 | |
| OM5KV | 2026-08-31 01:13:50 | 47.39918 | 19.87919 | 51° | 20km/h | 3363m | -14.9m/s | 4.3°C | 31.7% | 686.6hPa | 2.5V | 08:08:00 | 00:00:00 | 00:00:00 | |
| OM5KV | 2026-08-31 01:13:45 | 47.39899 | 19.87892 | 49° | 24km/h | 3436m | -14.0m/s | 3.8°C | 33.4% | 680.7hPa | 2.5V | 00:00:00 | 00:00:00 | 00:00:00 | |
| OM5KV | 2026-08-31 01:13:40 | 47.39882 | 19.87866 | 38° | 22km/h | 3503m | -14.3m/s | 3.2°C | 0% | 0hPa | 2.5V | 00:00:00 | 00:00:00 | 00:00:00 | |
| OM5KV | 2026-08-31 01:13:34 | 47.39856 | 19.87836 | 38° | 22km/h | 3586m | -14.6m/s | 2.4°C | 0% | 0hPa | 2.5V | 00:00:00 | 00:00:00 | 00:00:00 | |
| OM5KV | 2026-08-31 01:13:27 | 47.39828 | 19.87796 | 40° | 22km/h | 3681m | -14.6m/s | 1.6°C | 0% | 0hPa | 2.5V | 00:00:00 | 00:00:00 | 00:00:00 | |
| OM5KV | 2026-08-31 01:13:22 | 47.39808 | 19.87766 | 53° | 24km/h | 3751m | -14.1m/s | 1.0°C | 0% | 0hPa | 2.5V | 00:00:00 | 00:00:00 | 00:00:00 | |
| OM5KV | 2026-08-31 01:13:05 | 47.39752 | 19.87645 | 54° | 22km/h | 3987m | -15.1m/s | 0°C | 0% | 0hPa | 2.5V | 00:00:00 | 00:00:00 | 00:00:00 | |
| OM5KV | 2026-08-31 01:12:59 | 47.39733 | 19.87604 | 64° | 24km/h | 4072m | -13.7m/s | 0°C | 0% | 0hPa | 2.5V | 00:00:00 | 00:00:00 | 00:00:00 | |
| GYPAP8-17 | 2026-08-31 01:12:53 | 47.39719 | 19.87560 | 62° | 20km/h | 4152m | -14.3m/s | -2.4°C | 82.2% | 622.9hPa | 2.5V | 00:00:00 | 00:00:00 | 00:00:00 | |
| OE3JTB-15 | 2026-08-31 01:12:02 | 47.39631 | 19.86980 | 74° | 35km/h | 4889m | -15.3m/s | -3.0°C | 5.4% | 566.8hPa | 2.5V | 00:00:00 | 00:00:00 | 00:00:00 | |
| GYPAP8-17 | 2026-08-31 01:11:50 | 47.39606 | 19.86834 | 81° | 37km/h | 5064m | -15.0m/s | -3.4°C | 3.7% | 554.7hPa | 2.6V | 00:00:00 | 00:00:00 | 00:00:00 | |
| OE3JTB-15 | 2026-08-31 01:11:33 | 47.39602 | 19.86603 | 85° | 49km/h | 5300m | -15.5m/s | -5.3°C | 4.6% | 537.9hPa | 2.6V | 00:00:00 | 00:00:00 | 00:00:00 | |
| GYPAP8-17 | 2026-08-31 01:10:43 | 47.39580 | 19.85828 | 85° | 44km/h | 5998m | -14.7m/s | -10.6°C | 5.3% | 491.9hPa | 2.6V | 00:00:00 | 00:00:00 | 00:00:00 | |
| OE3JTB-15 | 2026-08-31 01:09:02 | 47.39587 | 19.84039 | 90° | 42km/h | 7359m | -13.8m/s | -20.5°C | 7.3% | 410.9hPa | 2.6V | 00:00:00 | 02:14:36 | 00:00:00 | |
| GYPAP8-17 | 2026-08-31 01:08:43 | 47.39593 | 19.83683 | 93° | 53km/h | 7592m | -13.0m/s | -22.1°C | 6.3% | 398.0hPa | 2.6V | 08:14:00 | 00:00:00 | 00:00:00 | |
| OE3OSB-13 | 2026-08-31 01:08:42 | 47.39599 | 19.83165 | 90° | 49km/h | 7955m | -13.6m/s | -24.6°C | 7.0% | 378.9hPa | 2.6V | 00:00:00 | 00:00:00 | 00:00:00 | |
| OE3OSB-13 | 2026-08-31 01:08:11 | 47.39604 | 19.83059 | 94° | 44km/h | 8038m | -14.6m/s | -25.3°C | 8.5% | 374.7hPa | 2.6V | 00:00:00 | 00:00:00 | 00:00:00 | |
| OE3OSB-13 | 2026-08-31 01:07:40 | 47.39671 | 19.82467 | 104° | 55km/h | 8455m | -14.0m/s | -28.8°C | 17.7% | 353.4hPa | 2.6V | 00:00:00 | 00:00:00 | 00:00:00 | |
| OE3OSB-13 | 2026-08-31 01:07:09 | 47.39780 | 19.81740 | 104° | 68km/h | 8884m | -13.6m/s | 0°C | -1.0% | -1.0hPa | 2.6V | 00:00:00 | 00:00:00 | 00:00:00 | |
| GYPAP8-17 | 2026-08-31 01:07:04 | 47.39795 | 19.81666 | 107° | 71km/h | 8925m | -14.9m/s | -32.1°C | 34.2% | 330.9hPa | 2.6V | 00:00:00 | 00:00:00 | 00:00:00 | |
| GYPAP8-17 | 2026-08-31 01:06:11 | 47.40080 | 19.80339 | 112° | 73km/h | 9725m | -15.0m/s | -39.4°C | 55.2% | 295.1hPa | 2.6V | 08:16:00 | 00:00:00 | 00:00:00 | |
| GYPAP8-17 | 2026-08-31 01:05:00 | 47.40440 | 19.78558 | 103° | 71km/h | 10795m | -16.1m/s | -48.2°C | 58.1% | 251.6hPa | 2.6V | 00:00:00 | 00:00:00 | 00:00:00 | |
| GYPAP8-17 | 2026-08-31 01:04:02 | 47.40830 | 19.77026 | 115° | 84km/h | 11722m | -18.0m/s | -55.4°C | 41.2% | 218.3hPa | 2.6V | 00:00:00 | 00:00:00 | 00:00:00 | |
| GYPAP8-17 | 2026-08-31 01:02:53 | 47.41610 | 19.75134 | 124° | 68km/h | 12979m | -18.9m/s | -57.7°C | 6.4% | 178.9hPa | 2.6V | 00:00:00 | 00:00:00 | 00:00:00 | |
| GYPAP8-17 | 2026-08-31 01:01:36 | 47.41918 | 19.73259 | 101° | 68km/h | 14501m | -20.0m/s | -58.6°C | 3.6% | 140.6hPa | 2.6V | 00:00:00 | 00:00:00 | 00:00:00 | |
| GYPAP8-17 | 2026-08-31 01:00:47 | 47.42022 | 19.72291 | 101° | 46km/h | 15533m | -22.2m/s | -57.7°C | 2.0% | 119.4hPa | 2.6V | 00:00:00 | 00:00:00 | 00:00:00 | |
| GYPAP8-17 | 2026-08-31 00:59:42 | 47.42006 | 19.71356 | 89° | 35km/h | 17008m | -23.8m/s | -57.7°C | 1.6% | 94.5hPa | 2.6V | 00:00:00 | 00:00:00 | 00:00:00 | |
| OE5DRO-10 | 2026-08-31 00:58:44 | 47.41979 | 19.70899 | 30° | 20km/h | 18452m | -26.5m/s | -55.6°C | 4.5% | 75.3hPa | 2.6V | 00:00:00 | 00:00:00 | 00:00:00 | |
| GYPAP8-17 | 2026-08-31 00:58:31 | 47.41928 | 19.70836 | 61° | 22km/h | 18767m | -25.2m/s | -56.4°C | 1.4% | 71.7hPa | 2.6V | 08:24:00 | 00:00:00 | 00:00:00 | |
| OE5DRO-10 | 2026-08-31 00:58:25 | 47.41920 | 19.70790 | 94° | 13km/h | 18951m | -27.3m/s | -56.5°C | 4.9% | 69.6hPa | 2.6V | 00:00:00 | 00:00:00 | 00:00:00 | |
| OE5DRO-10 | 2026-08-31 00:57:56 | 47.41908 | 19.70701 | 38° | 9km/h | 19752m | -30.5m/s | -55.2°C | 4.5% | 61.4hPa | 2.5V | 00:00:00 | 00:00:00 | 00:00:00 | |
| OE5DRO-10 | 2026-08-31 00:57:37 | 47.41892 | 19.70715 | 300° | 11km/h | 20324m | -31.7m/s | -55.4°C | 4.6% | 56.2hPa | 2.5V | 00:00:00 | 00:00:00 | 00:00:00 | |
| GYPAP8-17 | 2026-08-31 00:57:28 | 47.41870 | 19.70731 | 359° | 13km/h | 20577m | -30.8m/s | -55.6°C | 1.3% | 54.0hPa | 2.5V | 00:00:00 | 00:00:00 | 00:00:00 | |
| OE5DRO-10 | 2026-08-31 00:57:18 | 47.41849 | 19.70724 | 31° | 13km/h | 20925m | -32.7m/s | -55.1°C | 4.6% | 51.1hPa | 2.5V | 08:25:00 | 00:00:00 | 00:00:00 | |
| OE5DRO-10 | 2026-08-31 00:56:50 | 47.41861 | 19.70770 | 280° | 13km/h | 21831m | -34.5m/s | -54.9°C | 4.5% | 44.4hPa | 2.5V | 00:00:00 | 00:00:00 | 00:00:00 | |
| GYPAP8-17 | 2026-08-31 00:56:32 | 47.41816 | 19.70814 | 71° | 4km/h | 22413m | -34.6m/s | -54.6°C | 1.2% | 40.5hPa | 2.5V | 00:00:00 | 00:00:00 | 00:00:00 | |
| OE5DRO-10 | 2026-08-31 00:56:31 | 47.41815 | 19.70812 | 202° | 9km/h | 22483m | -35.4m/s | -54.7°C | 4.6% | 40.0hPa | 2.5V | 00:00:00 | 00:00:00 | 00:00:00 | |
| OE5DRO-10 | 2026-08-31 00:56:12 | 47.41805 | 19.70862 | 322° | 7km/h | 23148m | -36.4m/s | -53.4°C | 4.2% | 36.1hPa | 2.5V | 00:00:00 | 00:00:00 | 00:00:00 | |
| LZ4TU-5 | 2026-08-31 00:56:06 | 47.41800 | 19.70878 | 270° | 13km/h | 23332m | -36.2m/s | -53.6°C | 0% | 35.1hPa | 2.5V | 00:00:00 | 00:00:00 | 00:00:00 | |
| SQ9EZE-14 | 2026-08-31 00:55:58 | 47.41799 | 19.70900 | 232° | 4km/h | 23657m | -36.6m/s | 0°C | 0% | 0hPa | 2.5V | 00:00:00 | 00:00:00 | 00:00:00 | |
| OE5DRO-10 | 2026-08-31 00:55:46 | 47.41794 | 19.70891 | 39° | 7km/h | 24095m | -38.4m/s | -52.5°C | 4.1% | 31.2hPa | 2.5V | 00:00:00 | 00:00:00 | 00:00:00 | |
| GYPAP8-17 | 2026-08-31 00:55:27 | 47.41775 | 19.70849 | 98° | 7km/h | 24792m | -36.5m/s | -51.9°C | 1.0% | 28.0hPa | 2.5V | 00:00:00 | 00:00:00 | 00:00:00 | |
| SQ9EZE-15 | 2026-08-31 00:55:14 | 47.41792 | 19.70824 | 307° | 4km/h | 25256m | -38.5m/s | -52.2°C | 1.1% | 26.0hPa | 2.5V | 00:00:00 | 00:00:00 | 00:00:00 | |
| OE5DRO-10 | 2026-08-31 00:55:08 | 47.41784 | 19.70827 | 1° | 4km/h | 25530m | -40.5m/s | -51.4°C | 4.0% | 25.0hPa | 2.5V | 00:00:00 | 00:00:00 | 00:00:00 | |
| OE5DRO-10 | 2026-08-31 00:54:21 | 47.41734 | 19.70864 | 86° | 5km/h | 27469m | -43.8m/s | -49.3°C | 3.8% | 18.4hPa | 2.5V | 00:00:00 | 00:00:00 | 00:00:00 | |
| GYPAP8-17 | 2026-08-31 00:54:17 | 47.41735 | 19.70860 | 0° | 0km/h | 27598m | -43.9m/s | -49.0°C | 0.9% | 18.2hPa | 2.5V | 00:00:00 | 00:00:00 | 00:00:00 | |
| LZ4TU-5 | 2026-08-31 00:54:06 | 47.41752 | 19.70867 | 164° | 5km/h | 28094m | -45.5m/s | -47.3°C | 0% | 16.8hPa | 2.5V | 00:00:00 | 00:00:00 | 00:00:00 | |
| LZ4TU-5 | 2026-08-31 00:54:02 | 47.41756 | 19.70864 | 0° | 0km/h | 28336m | -49.5m/s | -47.0°C | 0% | 16.3hPa | 2.5V | 00:00:00 | 00:00:00 | 00:00:00 | |
| OE5DRO-10 | 2026-08-31 00:53:42 | 47.41737 | 19.70832 | 64° | 7km/h | 29326m | -50.7m/s | -44.4°C | 3.1% | 13.9hPa | 2.5V | 00:00:00 | 00:00:00 | 00:00:00 | |
| OE5DRO-10 | 2026-08-31 00:53:23 | 47.41712 | 19.70821 | 345° | 20km/h | 30304m | -54.1m/s | -42.0°C | 2.5% | 12.0hPa | 2.5V | 00:00:00 | 00:00:00 | 00:00:00 | |
| GYPAP8-17 | 2026-08-31 00:53:10 | 47.41659 | 19.70820 | 1° | 24km/h | 30912m | -48.5m/s | -42.9°C | 0.6% | 10.9hPa | 2.5V | 00:00:00 | 00:00:00 | 00:00:00 | |
| OE5DRO-10 | 2026-08-31 00:53:04 | 47.41623 | 19.70798 | 62° | 18km/h | 31227m | -46.6m/s | -42.6°C | 2.8% | 10.4hPa | 2.5V | 00:00:00 | 00:00:00 | 00:00:00 | |
| SQ9EZE-15 | 2026-08-31 00:52:54 | 47.41612 | 19.70715 | 59° | 15km/h | 31632m | -44.4m/s | -41.1°C | 0.6% | 9.8hPa | 2.6V | 00:00:00 | 00:00:00 | 00:00:00 | |
| OE5DRO-10 | 2026-08-31 00:52:45 | 47.41604 | 19.70682 | 95° | 26km/h | 32056m | -42.3m/s | -40.8°C | 2.4% | 9.1hPa | 2.6V | 00:00:00 | 00:00:00 | 00:00:00 | |
| SQ9EZE-15 | 2026-08-31 00:52:34 | 47.41564 | 19.70620 | 35° | 22km/h | 32434m | -36.3m/s | -41.3°C | 0.6% | 8.6hPa | 2.6V | 00:00:00 | 00:00:00 | 00:00:00 | |
| OE5DRO-10 | 2026-08-31 00:52:26 | 47.41518 | 19.70565 | 24° | 29km/h | 32732m | -29.3m/s | -39.6°C | 2.3% | 8.2hPa | 2.6V | 00:00:00 | 00:00:00 | 00:00:00 | |
| OE5DRO-10 | 2026-08-31 00:52:07 | 47.41389 | 19.70508 | 10° | 26km/h | 32813m | 8.0m/s | -39.9°C | 2.3% | 8.1hPa | 2.6V | 00:00:00 | 00:00:00 | 00:00:00 | |
| OE5DRO-10 | 2026-08-31 00:51:48 | 47.41299 | 19.70408 | 19° | 29km/h | 32669m | 6.5m/s | -40.6°C | 2.4% | 8.2hPa | 2.5V | 00:00:00 | 00:00:00 | 00:00:00 | |
| LZ4TU-5 | 2026-08-31 00:51:37 | 47.41217 | 19.70358 | 22° | 31km/h | 32588m | 6.8m/s | -41.2°C | 0% | 8.4hPa | 2.5V | 00:00:00 | 00:00:00 | 00:00:00 | |
| LZ4TU-5 | 2026-08-31 00:51:31 | 47.41191 | 19.70345 | 40° | 22km/h | 32551m | 8.4m/s | -41.4°C | 0% | 8.4hPa | 2.5V | 00:00:00 | 00:00:00 | 00:00:00 | |
| OE5DRO-10 | 2026-08-31 00:51:29 | 47.41173 | 19.70319 | 42° | 29km/h | 32530m | 7.0m/s | -41.5°C | 2.5% | 8.4hPa | 2.5V | 00:00:00 | 00:00:00 | 00:00:00 | |
| SQ9EZE-14 | 2026-08-31 00:51:25 | 47.41138 | 19.70286 | 35° | 40km/h | 32500m | 7.0m/s | 0°C | 0% | 0hPa | 2.5V | 00:00:00 | 00:00:00 | 00:00:00 | |
| OE5DRO-10 | 2026-08-31 00:50:59 | 47.41060 | 19.70085 | 57° | 22km/h | 32312m | 6.7m/s | -41.2°C | 2.5% | 8.7hPa | 2.5V | 00:00:00 | 00:00:00 | 08:30:00 | |
| OE5DRO-10 | 2026-08-31 00:50:40 | 47.40988 | 19.70013 | 17° | 13km/h | 32173m | 5.2m/s | -41.3°C | 2.5% | 8.9hPa | 2.6V | 00:00:00 | 00:00:00 | 00:00:00 | |
| OE5DRO-10 | 2026-08-31 00:50:21 | 47.40957 | 19.69951 | 55° | 16km/h | 32037m | 7.2m/s | -41.1°C | 2.4% | 9.1hPa | 2.6V | 00:00:00 | 00:00:00 | 00:00:00 | |
| GYPAP8-17 | 2026-08-31 00:50:07 | 47.40936 | 19.69905 | 41° | 16km/h | 31942m | 9.0m/s | -41.5°C | 0.6% | 9.2hPa | 2.6V | 00:00:00 | 00:00:00 | 00:00:00 | |
| OE5DRO-10 | 2026-08-31 00:50:02 | 47.40920 | 19.69882 | 15° | 9km/h | 31896m | 6.8m/s | -41.6°C | 2.5% | 9.3hPa | 2.6V | 00:00:00 | 00:00:00 | 00:00:00 | |
| OE5DRO-10 | 2026-08-31 00:49:43 | 47.40904 | 19.69831 | 96° | 20km/h | 31759m | 7.3m/s | -41.8°C | 2.6% | 9.5hPa | 2.6V | 00:00:00 | 00:00:00 | 00:00:00 | |
| LZ4TU-5 | 2026-08-31 00:49:32 | 47.40903 | 19.69756 | 94° | 22km/h | 31686m | 8.3m/s | -41.3°C | 0% | 9.6hPa | 2.6V | 00:00:00 | 00:00:00 | 00:00:00 | |
| OE5DRO-10 | 2026-08-31 00:49:24 | 47.40892 | 19.69687 | 80° | 27km/h | 31621m | 7.7m/s | -41.4°C | 2.4% | 9.7hPa | 2.6V | 00:00:00 | 00:00:00 | 00:00:00 | |
| OE5DRO-10 | 2026-08-31 00:49:05 | 47.40866 | 19.69504 | 62° | 29km/h | 31486m | 7.7m/s | -42.1°C | 2.6% | 9.8hPa | 2.6V | 00:00:00 | 00:00:00 | 00:00:00 | |
| OE5DRO-10 | 2026-08-31 00:48:46 | 47.40769 | 19.69364 | 25° | 18km/h | 31349m | 6.0m/s | -42.6°C | 2.6% | 10.1hPa | 2.5V | 00:00:00 | 00:00:00 | 00:00:00 | |
| OE5DRO-10 | 2026-08-31 00:48:27 | 47.40706 | 19.69307 | 313° | 29km/h | 31215m | 6.4m/s | -42.8°C | 2.6% | 10.3hPa | 2.5V | 00:00:00 | 00:00:00 | 00:00:00 | |
| OE5DRO-10 | 2026-08-31 00:48:08 | 47.40580 | 19.69256 | 20° | 27km/h | 31081m | 7.9m/s | -43.2°C | 2.7% | 10.5hPa | 2.5V | 00:00:00 | 00:00:00 | 08:30:00 | |
| OE5DRO-10 | 2026-08-31 00:47:49 | 47.40461 | 19.69281 | 342° | 20km/h | 30948m | 7.8m/s | -43.3°C | 2.8% | 10.7hPa | 2.5V | 00:00:00 | 00:00:00 | 00:00:00 | |
| GYPAP8-17 | 2026-08-31 00:47:38 | 47.40419 | 19.69288 | 5° | 35km/h | 30877m | 6.0m/s | -43.1°C | 0.7% | 10.9hPa | 2.5V | 00:00:00 | 00:00:00 | 00:00:00 | |
| OE5DRO-10 | 2026-08-31 00:47:30 | 47.40375 | 19.69298 | 322° | 22km/h | 30813m | 7.9m/s | -42.8°C | 2.6% | 10.9hPa | 2.5V | 00:00:00 | 00:00:00 | 00:00:00 | |
| OE5DRO-10 | 2026-08-31 00:46:52 | 47.40230 | 19.69339 | 13° | 16km/h | 30544m | 6.6m/s | -43.4°C | 2.7% | 11.4hPa | 2.5V | 00:00:00 | 00:00:00 | 00:00:00 | |
| LZ4TU-5 | 2026-08-31 00:46:34 | 47.40175 | 19.69373 | 342° | 16km/h | 30422m | 5.5m/s | -43.5°C | 0% | 11.6hPa | 2.5V | 00:00:00 | 00:00:00 | 00:00:00 | |
| OE5DRO-10 | 2026-08-31 00:46:33 | 47.40171 | 19.69375 | 336° | 15km/h | 30416m | 6.0m/s | -43.4°C | 2.7% | 11.6hPa | 2.5V | 00:00:00 | 00:00:00 | 00:00:00 | |
| SQ9EZE-15 | 2026-08-31 00:46:29 | 47.40162 | 19.69382 | 336° | 16km/h | 30390m | 6.1m/s | -43.4°C | 0.7% | 11.7hPa | 2.5V | 00:00:00 | 00:00:00 | 00:00:00 | |
| GYPAP8-17 | 2026-08-31 00:46:20 | 47.40119 | 19.69395 | 352° | 11km/h | 30331m | 7.5m/s | -43.5°C | 0.7% | 11.8hPa | 2.5V | 00:00:00 | 00:00:00 | 00:00:00 | |
| OE5DRO-10 | 2026-08-31 00:46:14 | 47.40117 | 19.69406 | 305° | 15km/h | 30282m | 8.4m/s | -43.4°C | 2.7% | 11.8hPa | 2.5V | 00:00:00 | 00:00:00 | 00:00:00 | |
| OE5DRO-10 | 2026-08-31 00:45:55 | 47.40100 | 19.69476 | 305° | 15km/h | 30155m | 5.1m/s | -43.9°C | 2.8% | 12.1hPa | 2.5V | 00:00:00 | 00:00:00 | 00:00:00 | |
| GYPAP8-17 | 2026-08-31 00:45:18 | 47.40132 | 19.69388 | 96° | 15km/h | 29899m | 6.7m/s | -44.7°C | 0.7% | 12.6hPa | 2.5V | 00:00:00 | 00:00:00 | 00:00:00 | |
| OE5DRO-10 | 2026-08-31 00:45:10 | 47.40096 | 19.69343 | 24° | 13km/h | 29837m | 7.2m/s | -44.6°C | 2.8% | 12.7hPa | 2.5V | 00:00:00 | 00:00:00 | 08:30:00 | |
| OE5DRO-10 | 2026-08-31 00:44:51 | 47.40095 | 19.69275 | 160° | 16km/h | 29698m | 5.6m/s | -45.3°C | 3.0% | 12.9hPa | 2.5V | 00:00:00 | 00:00:00 | 00:00:00 | |
| OM5KV | 2026-08-31 00:44:46 | 47.40105 | 19.69254 | 76° | 15km/h | 29670m | 6.1m/s | -45.4°C | 0.7% | 13.1hPa | 2.5V | 00:00:00 | 00:00:00 | 00:00:00 | |
| OM5KV | 2026-08-31 00:44:44 | 47.40101 | 19.69247 | 21° | 13km/h | 29655m | 7.5m/s | -45.4°C | 0.7% | 13.1hPa | 2.5V | 00:00:00 | 00:00:00 | 00:00:00 | |
| OM5KV | 2026-08-31 00:44:40 | 47.40090 | 19.69242 | 61° | 7km/h | 29627m | 5.6m/s | -45.5°C | 0.7% | 13.2hPa | 2.5V | 00:00:00 | 00:00:00 | 00:00:00 | |
| OM5KV | 2026-08-31 00:44:39 | 47.40090 | 19.69240 | 124° | 4km/h | 29621m | 6.6m/s | -45.4°C | 0.7% | 13.2hPa | 2.5V | 00:00:00 | 00:00:00 | 00:00:00 | |
| OM5KV | 2026-08-31 00:44:34 | 47.40101 | 19.69231 | 117° | 18km/h | 29587m | 8.2m/s | -45.5°C | 0.7% | 13.2hPa | 2.5V | 00:00:00 | 00:00:00 | 00:00:00 | |
| OM5KV | 2026-08-31 00:44:33 | 47.40102 | 19.69224 | 99° | 22km/h | 29580m | 6.9m/s | -45.5°C | 0.7% | 13.2hPa | 2.5V | 00:00:00 | 00:00:00 | 00:00:00 | |
| OM5KV | 2026-08-31 00:44:29 | 47.40100 | 19.69196 | 73° | 16km/h | 29551m | 6.9m/s | -45.6°C | 0.7% | 13.3hPa | 2.5V | 00:00:00 | 00:00:00 | 00:00:00 | |
| OM5KV | 2026-08-31 00:44:28 | 47.40099 | 19.69190 | 76° | 16km/h | 29543m | 8.2m/s | -45.6°C | 0.7% | 13.3hPa | 2.5V | 00:00:00 | 00:00:00 | 00:00:00 | |
| OE5DRO-10 | 2026-08-31 00:44:23 | 47.40106 | 19.69165 | 136° | 16km/h | 29503m | 6.1m/s | -45.9°C | 3.0% | 13.4hPa | 2.5V | 00:00:00 | 00:00:00 | 00:00:00 | |
| OM5KV | 2026-08-31 00:44:22 | 47.40106 | 19.69165 | 136° | 16km/h | 29503m | 6.2m/s | -45.9°C | 0.8% | 13.4hPa | 2.5V | 00:00:00 | 00:00:00 | 00:00:00 | |
| OM5KV | 2026-08-31 00:44:18 | 47.40113 | 19.69134 | 91° | 24km/h | 29473m | 8.4m/s | -46.1°C | 0.8% | 13.5hPa | 2.5V | 00:00:00 | 00:00:00 | 00:00:00 | |
| OM5KV | 2026-08-31 00:44:16 | 47.40111 | 19.69118 | 66° | 22km/h | 29459m | 6.0m/s | -46.2°C | 0.8% | 13.5hPa | 2.5V | 00:00:00 | 00:00:00 | 00:00:00 | |
| SQ9EZE-15 | 2026-08-31 00:44:14 | 47.40105 | 19.69103 | 60° | 22km/h | 29444m | 7.1m/s | -46.2°C | 0.8% | 13.5hPa | 2.5V | 00:00:00 | 00:00:00 | 00:00:00 | |
| OM5KV | 2026-08-31 00:44:07 | 47.40102 | 19.69090 | 131° | 11km/h | 29394m | 7.4m/s | -46.2°C | 0.8% | 13.6hPa | 2.5V | 00:00:00 | 00:00:00 | 00:00:00 | |
| OE5DRO-10 | 2026-08-31 00:44:04 | 47.40104 | 19.69073 | 63° | 11km/h | 29365m | 5.8m/s | -46.3°C | 3.0% | 13.6hPa | 2.5V | 00:00:00 | 00:00:00 | 00:00:00 | |
| OM5KV | 2026-08-31 00:43:58 | 47.40091 | 19.69044 | 60° | 13km/h | 29332m | 6.2m/s | -46.5°C | 0.7% | 13.7hPa | 2.6V | 00:00:00 | 00:00:00 | 00:00:00 | |
| OM5KV | 2026-08-31 00:43:56 | 47.40089 | 19.69041 | 249° | 2km/h | 29317m | 7.3m/s | -46.5°C | 0.7% | 13.8hPa | 2.6V | 00:00:00 | 00:00:00 | 00:00:00 | |
| OM5KV | 2026-08-31 00:43:52 | 47.40092 | 19.69044 | 141° | 2km/h | 29289m | 6.0m/s | -46.7°C | 0.7% | 13.8hPa | 2.6V | 00:00:00 | 00:00:00 | 00:00:00 | |
| OM5KV | 2026-08-31 00:43:51 | 47.40092 | 19.69043 | 0° | 0km/h | 29282m | 6.6m/s | -46.7°C | 0.8% | 13.9hPa | 2.6V | 00:00:00 | 00:00:00 | 00:00:00 | |
| LZ4TU-5 | 2026-08-31 00:43:50 | 47.40092 | 19.69043 | 0° | 0km/h | 29275m | 8.0m/s | -46.7°C | 0% | 13.9hPa | 2.6V | 00:00:00 | 00:00:00 | 00:00:00 | |
| OM5KV | 2026-08-31 00:43:46 | 47.40089 | 19.69033 | 68° | 20km/h | 29246m | 7.7m/s | -47.0°C | 0.8% | 13.9hPa | 2.6V | 00:00:00 | 00:00:00 | 00:00:00 | |
| OE5DRO-10 | 2026-08-31 00:43:45 | 47.40085 | 19.69018 | 64° | 13km/h | 29234m | 5.4m/s | -47.0°C | 3.2% | 13.9hPa | 2.6V | 00:00:00 | 00:00:00 | 00:00:00 | |
| OM5KV | 2026-08-31 00:43:41 | 47.40080 | 19.69006 | 92° | 2km/h | 29207m | 6.1m/s | -47.1°C | 0.8% | 14.0hPa | 2.6V | 00:00:00 | 00:00:00 | 00:00:00 | |
| OM5KV | 2026-08-31 00:43:34 | 47.40082 | 19.68983 | 96° | 11km/h | 29165m | 6.6m/s | -47.3°C | 0.8% | 14.1hPa | 2.6V | 00:00:00 | 00:00:00 | 00:00:00 | |
| OM5KV | 2026-08-31 00:43:29 | 47.40074 | 19.68954 | 50° | 20km/h | 29134m | 5.2m/s | -47.4°C | 0.8% | 14.1hPa | 2.6V | 00:00:00 | 00:00:00 | 00:00:00 | |
| OM5KV | 2026-08-31 00:43:28 | 47.40071 | 19.68950 | 43° | 15km/h | 29128m | 6.5m/s | -47.4°C | 0.8% | 14.2hPa | 2.6V | 00:00:00 | 00:00:00 | 00:00:00 | |
| GYPAP8-17 | 2026-08-31 00:43:26 | 47.40069 | 19.68947 | 178° | 2km/h | 29114m | 6.7m/s | -47.4°C | 0.8% | 14.2hPa | 2.6V | 00:00:00 | 00:00:00 | 00:00:00 | |
| OM5KV | 2026-08-31 00:43:23 | 47.40076 | 19.68942 | 143° | 16km/h | 29095m | 5.8m/s | -47.4°C | 0.8% | 14.3hPa | 2.6V | 00:00:00 | 00:00:00 | 00:00:00 | |
| OM5KV | 2026-08-31 00:43:18 | 47.40076 | 19.68925 | 22° | 11km/h | 29062m | 6.5m/s | -47.6°C | 0.8% | 14.3hPa | 2.6V | 00:00:00 | 00:00:00 | 00:00:00 | |
| OM5KV | 2026-08-31 00:43:17 | 47.40073 | 19.68923 | 22° | 11km/h | 29056m | 6.4m/s | -47.6°C | 0.8% | 14.3hPa | 2.6V | 00:00:00 | 00:00:00 | 00:00:00 | |
| OE5DRO-10 | 2026-08-31 00:43:14 | 47.40063 | 19.68909 | 47° | 7km/h | 29030m | 6.1m/s | -47.5°C | 3.2% | 14.3hPa | 2.6V | 00:00:00 | 00:00:00 | 00:00:00 | |
| OM5KV | 2026-08-31 00:43:12 | 47.40060 | 19.68905 | 37° | 13km/h | 29024m | 5.7m/s | -47.5°C | 0.8% | 14.4hPa | 2.6V | 00:00:00 | 00:00:00 | 00:00:00 | |
| OM5KV | 2026-08-31 00:43:06 | 47.40056 | 19.68899 | 105° | 7km/h | 28981m | 5.7m/s | -47.5°C | 0.8% | 14.5hPa | 2.6V | 00:00:00 | 00:00:00 | 00:00:00 | |
| OM5KV | 2026-08-31 00:43:00 | 47.40051 | 19.68894 | 28° | 11km/h | 28939m | 7.6m/s | -47.7°C | 0.8% | 14.6hPa | 2.6V | 00:00:00 | 00:00:00 | 00:00:00 | |
| OE5DRO-10 | 2026-08-31 00:42:55 | 47.40044 | 19.68884 | 139° | 9km/h | 28901m | 6.3m/s | -47.7°C | 3.2% | 14.7hPa | 2.6V | 00:00:00 | 00:00:00 | 00:00:00 | |
| OM5KV | 2026-08-31 00:42:53 | 47.40044 | 19.68883 | 116° | 4km/h | 28893m | 8.5m/s | -47.7°C | 0.8% | 14.7hPa | 2.6V | 00:00:00 | 00:00:00 | 00:00:00 | |
| OM5KV | 2026-08-31 00:42:46 | 47.40055 | 19.68873 | 140° | 7km/h | 28844m | 7.8m/s | -47.7°C | 0.8% | 14.8hPa | 2.6V | 00:00:00 | 00:00:00 | 00:00:00 | |
| OM5KV | 2026-08-31 00:42:38 | 47.40067 | 19.68857 | 129° | 18km/h | 28791m | 6.7m/s | -47.7°C | 0.8% | 14.9hPa | 2.6V | 00:00:00 | 00:00:00 | 00:00:00 | |
| OE5DRO-10 | 2026-08-31 00:42:36 | 47.40074 | 19.68845 | 149° | 11km/h | 28770m | 7.7m/s | -47.7°C | 3.3% | 14.9hPa | 2.6V | 00:00:00 | 00:00:00 | 00:00:00 | |
| OM5KV | 2026-08-31 00:42:35 | 47.40074 | 19.68845 | 150° | 7km/h | 28770m | 7.7m/s | -47.7°C | 0.8% | 15.0hPa | 2.6V | 00:00:00 | 00:00:00 | 00:00:00 | |
| OM5KV | 2026-08-31 00:42:31 | 47.40073 | 19.68842 | 12° | 7km/h | 28742m | 5.9m/s | -47.8°C | 0.8% | 15.1hPa | 2.6V | 00:00:00 | 00:00:00 | 00:00:00 | |
| SQ9EZE-14 | 2026-08-31 00:42:29 | 47.40069 | 19.68843 | 340° | 9km/h | 28728m | 7.5m/s | 0°C | 0% | 0hPa | 2.6V | 00:00:00 | 00:00:00 | 00:00:00 | |
| OM5KV | 2026-08-31 00:42:24 | 47.40069 | 19.68830 | 117° | 20km/h | 28694m | 5.9m/s | -47.8°C | 0.8% | 15.1hPa | 2.6V | 00:00:00 | 00:00:00 | 00:00:00 | |
| OM5KV | 2026-08-31 00:42:19 | 47.40081 | 19.68812 | 84° | 2km/h | 28653m | 5.9m/s | -47.8°C | 0.8% | 15.3hPa | 2.6V | 00:00:00 | 00:00:00 | 00:00:00 | |
| GYPAP8-17 | 2026-08-31 00:42:17 | 47.40080 | 19.68812 | 341° | 4km/h | 28648m | 5.8m/s | -47.8°C | 0.8% | 15.3hPa | 2.6V | 00:00:00 | 00:00:00 | 00:00:00 | |
| OM5KV | 2026-08-31 00:42:14 | 47.40076 | 19.68818 | 322° | 13km/h | 28626m | 5.7m/s | -47.8°C | 0.8% | 15.3hPa | 2.6V | 00:00:00 | 00:00:00 | 00:00:00 | |
| OM5KV | 2026-08-31 00:42:12 | 47.40071 | 19.68819 | 29° | 9km/h | 28614m | 7.6m/s | -47.8°C | 0.8% | 15.4hPa | 2.6V | 00:00:00 | 00:00:00 | 00:00:00 | |
| OM5KV | 2026-08-31 00:42:08 | 47.40069 | 19.68801 | 125° | 13km/h | 28586m | 7.7m/s | -48.0°C | 0.8% | 15.4hPa | 2.6V | 00:00:00 | 00:00:00 | 00:00:00 | |
| OE5DRO-10 | 2026-08-31 00:42:06 | 47.40077 | 19.68790 | 141° | 9km/h | 28565m | 7.7m/s | -48.0°C | 3.3% | 15.4hPa | 2.6V | 00:00:00 | 00:00:00 | 00:00:00 | |
| OM5KV | 2026-08-31 00:42:05 | 47.40077 | 19.68790 | 141° | 13km/h | 28565m | 7.7m/s | -48.1°C | 0.8% | 15.5hPa | 2.6V | 00:00:00 | 00:00:00 | 00:00:00 | |
| OM5KV | 2026-08-31 00:42:03 | 47.40080 | 19.68788 | 222° | 5km/h | 28552m | 7.3m/s | -48.1°C | 0.8% | 15.5hPa | 2.6V | 00:00:00 | 00:00:00 | 00:00:00 | |
| OM5KV | 2026-08-31 00:41:59 | 47.40078 | 19.68804 | 318° | 11km/h | 28523m | 8.2m/s | -48.1°C | 0.8% | 15.6hPa | 2.6V | 00:00:00 | 00:00:00 | 00:00:00 | |
| SQ9EZE-15 | 2026-08-31 00:41:54 | 47.40079 | 19.68797 | 138° | 11km/h | 28482m | 7.9m/s | -48.2°C | 0.8% | 15.7hPa | 2.6V | 00:00:00 | 00:00:00 | 00:00:00 | |
| OM5KV | 2026-08-31 00:41:52 | 47.40081 | 19.68794 | 136° | 11km/h | 28475m | 6.9m/s | -48.2°C | 0.9% | 15.7hPa | 2.6V | 00:00:00 | 00:00:00 | 00:00:00 | |
| OM5KV | 2026-08-31 00:41:48 | 47.40088 | 19.68799 | 256° | 15km/h | 28448m | 5.6m/s | -48.1°C | 0.8% | 15.8hPa | 2.6V | 00:00:00 | 00:00:00 | 00:00:00 | |
| OE5DRO-10 | 2026-08-31 00:41:47 | 47.40088 | 19.68811 | 292° | 9km/h | 28435m | 8.0m/s | -48.1°C | 3.3% | 15.7hPa | 2.6V | 00:00:00 | 00:00:00 | 08:30:00 | |
| OM5KV | 2026-08-31 00:41:46 | 47.40088 | 19.68810 | 293° | 15km/h | 28435m | 8.0m/s | -48.1°C | 0.8% | 15.8hPa | 2.6V | 00:00:00 | 00:00:00 | 00:00:00 | |
| OM5KV | 2026-08-31 00:41:40 | 47.40083 | 19.68824 | 182° | 9km/h | 28396m | 5.1m/s | -48.1°C | 0.8% | 15.9hPa | 2.6V | 00:00:00 | 00:00:00 | 00:00:00 | |
| OM5KV | 2026-08-31 00:41:37 | 47.40088 | 19.68821 | 139° | 7km/h | 28376m | 6.2m/s | -48.0°C | 0.8% | 15.9hPa | 2.6V | 00:00:00 | 00:00:00 | 00:00:00 | |
| OM5KV | 2026-08-31 00:41:35 | 47.40093 | 19.68823 | 226° | 13km/h | 28355m | 7.3m/s | -47.9°C | 0.8% | 16.0hPa | 2.6V | 00:00:00 | 00:00:00 | 00:00:00 | |
| OM5KV | 2026-08-31 00:41:29 | 47.40101 | 19.68837 | 192° | 5km/h | 28317m | 7.5m/s | -48.0°C | 0.8% | 16.1hPa | 2.6V | 00:00:00 | 00:00:00 | 00:00:00 | |
| OE5DRO-10 | 2026-08-31 00:41:28 | 47.40103 | 19.68837 | 187° | 15km/h | 28310m | 7.2m/s | -48.0°C | 3.3% | 16.0hPa | 2.6V | 00:00:00 | 00:00:00 | 00:00:00 | |
| OM5KV | 2026-08-31 00:41:25 | 47.40109 | 19.68837 | 173° | 13km/h | 28297m | 5.8m/s | -48.1°C | 0.8% | 16.1hPa | 2.6V | 00:00:00 | 00:00:00 | 00:00:00 | |
| OM5KV | 2026-08-31 00:41:20 | 47.40122 | 19.68826 | 161° | 16km/h | 28266m | 7.6m/s | -48.1°C | 0.8% | 16.2hPa | 2.6V | 00:00:00 | 00:00:00 | 00:00:00 | |
| OM5KV | 2026-08-31 00:41:15 | 47.40144 | 19.68819 | 159° | 9km/h | 28225m | 7.5m/s | -48.2°C | 0.8% | 16.3hPa | 2.6V | 00:00:00 | 00:00:00 | 00:00:00 | |
| OM5KV | 2026-08-31 00:41:10 | 47.40152 | 19.68803 | 98° | 18km/h | 28198m | 7.7m/s | -48.1°C | 0.8% | 16.4hPa | 2.6V | 00:00:00 | 00:00:00 | 00:00:00 | |
| OE5DRO-10 | 2026-08-31 00:41:08 | 47.40155 | 19.68781 | 118° | 13km/h | 28178m | 7.6m/s | -48.1°C | 3.3% | 16.4hPa | 2.6V | 00:00:00 | 00:00:00 | 00:00:00 | |
| GYPAP8-17 | 2026-08-31 00:41:06 | 47.40158 | 19.68775 | 139° | 20km/h | 28171m | 6.9m/s | -48.2°C | 0.8% | 16.4hPa | 2.6V | 00:00:00 | 00:00:00 | 00:00:00 | |
| OM5KV | 2026-08-31 00:41:04 | 47.40166 | 19.68769 | 169° | 16km/h | 28159m | 7.0m/s | -48.3°C | 0.8% | 16.5hPa | 2.6V | 00:00:00 | 00:00:00 | 00:00:00 | |
| OM5KV | 2026-08-31 00:41:03 | 47.40170 | 19.68768 | 179° | 11km/h | 28152m | 7.5m/s | -48.3°C | 0.8% | 16.5hPa | 2.6V | 00:00:00 | 00:00:00 | 00:00:00 | |
| OM5KV | 2026-08-31 00:40:52 | 47.40186 | 19.68747 | 81° | 16km/h | 28083m | 5.6m/s | -48.2°C | 0.8% | 16.7hPa | 2.6V | 00:00:00 | 00:00:00 | 00:00:00 | |
| OE5DRO-10 | 2026-08-31 00:40:48 | 47.40186 | 19.68726 | 38° | 5km/h | 28050m | 6.3m/s | -48.2°C | 3.3% | 16.7hPa | 2.6V | 00:00:00 | 00:00:00 | 00:00:00 | |
| OM5KV | 2026-08-31 00:40:46 | 47.40187 | 19.68727 | 246° | 4km/h | 28045m | 5.5m/s | -48.3°C | 0.8% | 16.7hPa | 2.6V | 00:00:00 | 00:00:00 | 00:00:00 | |
| LZ4TU-5 | 2026-08-31 00:40:44 | 47.40190 | 19.68730 | 206° | 13km/h | 28031m | 7.8m/s | -48.3°C | 0% | 0hPa | 2.6V | 00:00:00 | 00:00:00 | 00:00:00 | |
| OM5KV | 2026-08-31 00:40:42 | 47.40199 | 19.68734 | 202° | 9km/h | 28012m | 6.4m/s | -48.4°C | 0.8% | 16.8hPa | 2.6V | 00:00:00 | 00:00:00 | 00:00:00 | |
| LZ4TU-5 | 2026-08-31 00:40:41 | 47.40201 | 19.68736 | 230° | 5km/h | 28005m | 7.4m/s | -48.5°C | 0% | 0hPa | 2.6V | 00:00:00 | 00:00:00 | 00:00:00 | |
| OM5KV | 2026-08-31 00:40:36 | 47.40201 | 19.68741 | 0° | 0km/h | 27973m | 6.2m/s | -48.6°C | 0.8% | 16.9hPa | 2.6V | 00:00:00 | 00:00:00 | 00:00:00 | |
| OM5KV | 2026-08-31 00:40:34 | 47.40201 | 19.68741 | 260° | 2km/h | 27966m | 6.9m/s | -48.7°C | 0.8% | 16.9hPa | 2.6V | 00:00:00 | 00:00:00 | 00:00:00 | |
| OE5DRO-10 | 2026-08-31 00:40:29 | 47.40203 | 19.68752 | 225° | 9km/h | 27927m | 4.9m/s | -48.9°C | 3.4% | 17.0hPa | 2.6V | 00:00:00 | 00:00:00 | 00:00:00 | |
| OM5KV | 2026-08-31 00:40:28 | 47.40203 | 19.68752 | 226° | 9km/h | 27927m | 4.9m/s | -49.0°C | 0.8% | 17.1hPa | 2.6V | 00:00:00 | 00:00:00 | 00:00:00 | |
| OM5KV | 2026-08-31 00:40:17 | 47.40190 | 19.68740 | 131° | 4km/h | 27855m | 8.4m/s | -49.3°C | 0.9% | 17.3hPa | 2.6V | 00:00:00 | 00:00:00 | 00:00:00 | |
| OM5KV | 2026-08-31 00:40:16 | 47.40192 | 19.68740 | 191° | 9km/h | 27848m | 5.6m/s | -49.4°C | 0.9% | 17.3hPa | 2.6V | 00:00:00 | 00:00:00 | 00:00:00 | |
| OM5KV | 2026-08-31 00:40:11 | 47.40203 | 19.68755 | 210° | 13km/h | 27814m | 7.7m/s | -49.4°C | 0.9% | 17.4hPa | 2.6V | 00:00:00 | 00:00:00 | 00:00:00 | |
| OE5DRO-10 | 2026-08-31 00:40:10 | 47.40207 | 19.68756 | 161° | 7km/h | 27802m | 5.9m/s | -49.4°C | 3.5% | 17.3hPa | 2.6V | 00:00:00 | 00:00:00 | 00:00:00 | |
| OM5KV | 2026-08-31 00:40:06 | 47.40206 | 19.68749 | 83° | 11km/h | 27776m | 7.6m/s | -49.5°C | 0.9% | 17.5hPa | 2.6V | 00:00:00 | 00:00:00 | 00:00:00 | |
| OM5KV | 2026-08-31 00:40:00 | 47.40210 | 19.68730 | 292° | 4km/h | 27737m | 5.5m/s | -49.8°C | 0.9% | 17.6hPa | 2.6V | 00:00:00 | 00:00:00 | 00:00:00 | |
| OM5KV | 2026-08-31 00:39:54 | 47.40215 | 19.68722 | 98° | 9km/h | 27699m | 7.6m/s | -50.1°C | 0.9% | 17.7hPa | 2.6V | 00:00:00 | 00:00:00 | 00:00:00 | |
| OE5DRO-10 | 2026-08-31 00:39:51 | 47.40212 | 19.68706 | 71° | 18km/h | 27678m | 7.5m/s | -50.1°C | 3.7% | 17.7hPa | 2.6V | 00:00:00 | 00:00:00 | 00:00:00 | |
| OM5KV | 2026-08-31 00:39:36 | 47.40190 | 19.68639 | 61° | 18km/h | 27587m | 7.5m/s | -50.4°C | 0.9% | 18.0hPa | 2.6V | 00:00:00 | 00:00:00 | 00:00:00 | |
| OM5KV | 2026-08-31 00:39:35 | 47.40187 | 19.68632 | 57° | 22km/h | 27581m | 5.9m/s | -50.4°C | 1.0% | 18.0hPa | 2.6V | 00:00:00 | 00:00:00 | 00:00:00 | |
| OE5DRO-10 | 2026-08-31 00:39:32 | 47.40169 | 19.68611 | 28° | 16km/h | 27554m | 5.8m/s | -50.2°C | 3.7% | 18.0hPa | 2.6V | 00:00:00 | 00:00:00 | 00:00:00 | |
| OM5KV | 2026-08-31 00:39:31 | 47.40169 | 19.68611 | 28° | 22km/h | 27554m | 5.9m/s | -50.3°C | 1.0% | 18.1hPa | 2.6V | 00:00:00 | 00:00:00 | 00:00:00 | |
| OM5KV | 2026-08-31 00:39:29 | 47.40162 | 19.68603 | 52° | 16km/h | 27540m | 6.8m/s | -50.2°C | 0.9% | 18.1hPa | 2.6V | 00:00:00 | 00:00:00 | 00:00:00 | |
| OM5KV | 2026-08-31 00:39:24 | 47.40152 | 19.68590 | 37° | 11km/h | 27506m | 7.2m/s | -50.1°C | 0.9% | 18.2hPa | 2.6V | 00:00:00 | 00:00:00 | 00:00:00 | |
| SQ9EZE-15 | 2026-08-31 00:39:19 | 47.40129 | 19.68568 | 20° | 27km/h | 27474m | 6.0m/s | -50.1°C | 0.9% | 18.3hPa | 2.6V | 00:00:00 | 00:00:00 | 00:00:00 | |
| OM5KV | 2026-08-31 00:39:14 | 47.40106 | 19.68551 | 12° | 9km/h | 27436m | 7.2m/s | -50.1°C | 0.9% | 18.4hPa | 2.6V | 00:00:00 | 00:00:00 | 00:00:00 | |
| OE5DRO-10 | 2026-08-31 00:39:13 | 47.40103 | 19.68551 | 359° | 20km/h | 27429m | 6.3m/s | -50.1°C | 3.7% | 18.4hPa | 2.6V | 00:00:00 | 00:00:00 | 00:00:00 | |
| OM5KV | 2026-08-31 00:39:10 | 47.40090 | 19.68547 | 22° | 22km/h | 27409m | 7.3m/s | -50.1°C | 0.9% | 18.5hPa | 2.6V | 00:00:00 | 00:00:00 | 00:00:00 | |
| OM5KV | 2026-08-31 00:39:08 | 47.40078 | 19.68540 | 22° | 29km/h | 27395m | 7.2m/s | -50.0°C | 0.9% | 18.5hPa | 2.6V | 00:00:00 | 00:00:00 | 00:00:00 | |
| GYPAP8-17 | 2026-08-31 00:39:03 | 47.40051 | 19.68532 | 11° | 20km/h | 27371m | 7.7m/s | -49.8°C | 0.9% | 18.6hPa | 2.6V | 00:00:00 | 00:00:00 | 00:00:00 | |
| OM5KV | 2026-08-31 00:39:01 | 47.40044 | 19.68530 | 16° | 11km/h | 27357m | 5.8m/s | -49.7°C | 0.9% | 18.6hPa | 2.6V | 00:00:00 | 00:00:00 | 00:00:00 | |
| SQ9EZE-15 | 2026-08-31 00:38:59 | 47.40038 | 19.68529 | 359° | 13km/h | 27343m | 6.4m/s | -49.7°C | 0.9% | 18.7hPa | 2.6V | 00:00:00 | 00:00:00 | 00:00:00 | |
| OM5KV | 2026-08-31 00:38:57 | 47.40032 | 19.68529 | 4° | 11km/h | 27331m | 7.5m/s | -49.6°C | 0.9% | 18.7hPa | 2.6V | 00:00:00 | 00:00:00 | 00:00:00 | |
| OM5KV | 2026-08-31 00:38:55 | 47.40027 | 19.68527 | 21° | 13km/h | 27317m | 5.7m/s | -49.6°C | 0.9% | 18.8hPa | 2.6V | 00:00:00 | 00:00:00 | 00:00:00 | |
| OM5KV | 2026-08-31 00:38:51 | 47.40007 | 19.68522 | 2° | 22km/h | 27291m | 5.1m/s | -49.7°C | 0.9% | 18.8hPa | 2.6V | 00:00:00 | 00:00:00 | 00:00:00 | |
| OE5DRO-10 | 2026-08-31 00:38:50 | 47.39998 | 19.68523 | 349° | 13km/h | 27278m | 6.7m/s | -49.7°C | 3.5% | 18.8hPa | 2.6V | 00:00:00 | 00:00:00 | 08:30:00 | |
| LZ4TU-5 | 2026-08-31 00:38:48 | 47.39993 | 19.68526 | 322° | 11km/h | 27266m | 6.7m/s | -49.7°C | 0% | 0hPa | 2.6V | 00:00:00 | 00:00:00 | 00:00:00 | |
| OM5KV | 2026-08-31 00:38:47 | 47.39991 | 19.68530 | 320° | 13km/h | 27259m | 7.4m/s | -49.8°C | 0.9% | 18.9hPa | 2.6V | 00:00:00 | 00:00:00 | 00:00:00 | |
| OM5KV | 2026-08-31 00:38:41 | 47.39982 | 19.68543 | 316° | 5km/h | 27226m | 5.5m/s | -50.0°C | 0.9% | 19.0hPa | 2.6V | 00:00:00 | 00:00:00 | 00:00:00 | |
| OM5KV | 2026-08-31 00:38:37 | 47.39971 | 19.68547 | 348° | 15km/h | 27199m | 6.6m/s | -50.1°C | 0.9% | 19.1hPa | 2.6V | 00:00:00 | 00:00:00 | 00:00:00 | |
| OM5KV | 2026-08-31 00:38:35 | 47.39965 | 19.68552 | 309° | 13km/h | 27185m | 6.0m/s | -50.1°C | 0.9% | 19.2hPa | 2.6V | 00:00:00 | 00:00:00 | 00:00:00 | |
| OE5DRO-10 | 2026-08-31 00:38:31 | 47.39958 | 19.68584 | 268° | 11km/h | 27152m | 8.3m/s | -50.2°C | 3.6% | 19.2hPa | 2.6V | 00:00:00 | 00:00:00 | 00:00:00 | |
| OM5KV | 2026-08-31 00:38:30 | 47.39958 | 19.68584 | 268° | 20km/h | 27152m | 8.3m/s | -50.3°C | 0.9% | 19.2hPa | 2.6V | 00:00:00 | 00:00:00 | 00:00:00 | |
| OM5KV | 2026-08-31 00:38:25 | 47.39960 | 19.68603 | 320° | 4km/h | 27119m | 5.8m/s | -50.3°C | 0.9% | 19.3hPa | 2.6V | 00:00:00 | 00:00:00 | 00:00:00 | |
| OM5KV | 2026-08-31 00:38:24 | 47.39959 | 19.68603 | 301° | 2km/h | 27112m | 7.8m/s | -50.2°C | 0.9% | 19.3hPa | 2.6V | 00:00:00 | 00:00:00 | 00:00:00 | |
| OM5KV | 2026-08-31 00:38:20 | 47.39955 | 19.68618 | 295° | 15km/h | 27079m | 5.4m/s | -50.3°C | 0.9% | 19.5hPa | 2.6V | 00:00:00 | 00:00:00 | 00:00:00 | |
| OM5KV | 2026-08-31 00:38:18 | 47.39953 | 19.68623 | 278° | 15km/h | 27073m | 5.9m/s | -50.3°C | 0.9% | 19.5hPa | 2.6V | 00:00:00 | 00:00:00 | 00:00:00 | |
| OM5KV | 2026-08-31 00:38:13 | 47.39964 | 19.68640 | 206° | 7km/h | 27041m | 7.0m/s | -50.4°C | 0.9% | 19.6hPa | 2.6V | 00:00:00 | 00:00:00 | 00:00:00 | |
| OE5DRO-10 | 2026-08-31 00:38:12 | 47.39965 | 19.68641 | 184° | 9km/h | 27028m | 5.9m/s | -50.3°C | 3.7% | 19.6hPa | 2.6V | 00:00:00 | 00:00:00 | 00:00:00 | |
| OM5KV | 2026-08-31 00:38:11 | 47.39965 | 19.68641 | 184° | 2km/h | 27028m | 5.9m/s | -50.3°C | 0.9% | 19.6hPa | 2.6V | 00:00:00 | 00:00:00 | 00:00:00 | |
| OM5KV | 2026-08-31 00:38:07 | 47.39965 | 19.68641 | 2° | 7km/h | 27001m | 8.1m/s | -50.4°C | 0.9% | 19.7hPa | 2.6V | 00:00:00 | 00:00:00 | 00:00:00 | |
| OM5KV | 2026-08-31 00:38:00 | 47.39952 | 19.68645 | 336° | 9km/h | 26955m | 8.2m/s | -50.6°C | 1.0% | 19.8hPa | 2.6V | 00:00:00 | 00:00:00 | 00:00:00 | |
| OM5KV | 2026-08-31 00:37:57 | 47.39943 | 19.68647 | 7° | 9km/h | 26927m | 5.5m/s | -50.7°C | 0.9% | 19.9hPa | 2.6V | 00:00:00 | 00:00:00 | 00:00:00 | |
| OM5KV | 2026-08-31 00:37:54 | 47.39936 | 19.68646 | 3° | 18km/h | 26914m | 7.9m/s | -50.7°C | 0.9% | 20.0hPa | 2.6V | 00:00:00 | 00:00:00 | 00:00:00 | |
| OM5KV | 2026-08-31 00:37:51 | 47.39922 | 19.68648 | 345° | 16km/h | 26894m | 7.9m/s | -50.6°C | 0.9% | 20.0hPa | 2.6V | 00:00:00 | 00:00:00 | 00:00:00 | |
| OM5KV | 2026-08-31 00:37:46 | 47.39912 | 19.68677 | 302° | 18km/h | 26855m | 5.6m/s | -50.4°C | 0.9% | 20.1hPa | 2.6V | 00:00:00 | 00:00:00 | 00:00:00 | |
| OM5KV | 2026-08-31 00:37:40 | 47.39903 | 19.68688 | 10° | 9km/h | 26821m | 8.0m/s | -50.3°C | 0.9% | 20.2hPa | 2.6V | 00:00:00 | 00:00:00 | 00:00:00 | |
| OE5DRO-10 | 2026-08-31 00:37:39 | 47.39899 | 19.68687 | 20° | 7km/h | 26808m | 5.9m/s | -50.2°C | 3.7% | 20.2hPa | 2.6V | 00:00:00 | 00:00:00 | 00:00:00 | |
| OM5KV | 2026-08-31 00:37:33 | 47.39897 | 19.68691 | 264° | 11km/h | 26773m | 6.7m/s | -50.1°C | 1.0% | 20.4hPa | 2.7V | 00:00:00 | 00:00:00 | 00:00:00 | |
| GYPAP8-17 | 2026-08-31 00:37:31 | 47.39901 | 19.68706 | 233° | 15km/h | 26753m | 7.8m/s | -50.0°C | 0.9% | 20.5hPa | 2.7V | 00:00:00 | 00:00:00 | 00:00:00 | |
| OM5KV | 2026-08-31 00:37:29 | 47.39903 | 19.68709 | 224° | 13km/h | 26746m | 5.9m/s | -50.0°C | 0.9% | 20.5hPa | 2.7V | 00:00:00 | 00:00:00 | 00:00:00 | |
| OM5KV | 2026-08-31 00:37:27 | 47.39907 | 19.68714 | 248° | 5km/h | 26732m | 7.8m/s | -49.9°C | 0.9% | 20.5hPa | 2.7V | 00:00:00 | 00:00:00 | 00:00:00 | |
| OM5KV | 2026-08-31 00:37:24 | 47.39907 | 19.68711 | 130° | 7km/h | 26705m | 5.9m/s | -49.7°C | 0.9% | 20.6hPa | 2.7V | 00:00:00 | 00:00:00 | 00:00:00 | |
| OM5KV | 2026-08-31 00:37:23 | 47.39908 | 19.68710 | 155° | 5km/h | 26699m | 5.4m/s | -49.7°C | 0.9% | 20.6hPa | 2.7V | 00:00:00 | 00:00:00 | 00:00:00 | |
| OE5DRO-10 | 2026-08-31 00:37:20 | 47.39914 | 19.68717 | 233° | 16km/h | 26680m | 6.0m/s | -49.6°C | 3.5% | 20.6hPa | 2.7V | 00:00:00 | 00:00:00 | 00:00:00 | |
| OM5KV | 2026-08-31 00:37:19 | 47.39917 | 19.68723 | 229° | 24km/h | 26673m | 8.3m/s | -49.7°C | 0.9% | 20.7hPa | 2.7V | 00:00:00 | 00:00:00 | 00:00:00 | |
| OM5KV | 2026-08-31 00:37:17 | 47.39922 | 19.68730 | 221° | 27km/h | 26666m | 6.1m/s | -49.7°C | 0.9% | 20.7hPa | 2.7V | 00:00:00 | 00:00:00 | 00:00:00 | |
| OM5KV | 2026-08-31 00:37:11 | 47.39937 | 19.68733 | 92° | 22km/h | 26628m | 8.5m/s | -49.9°C | 0.9% | 20.9hPa | 2.7V | 00:00:00 | 00:00:00 | 00:00:00 | |
| LZ4TU-5 | 2026-08-31 00:37:04 | 47.39939 | 19.68698 | 206° | 13km/h | 26580m | 5.8m/s | -50.1°C | 0% | 0hPa | 2.7V | 00:00:00 | 00:00:00 | 00:00:00 | |
| OE5DRO-10 | 2026-08-31 00:37:01 | 47.39947 | 19.68709 | 217° | 9km/h | 26555m | 5.8m/s | -50.0°C | 3.7% | 21.1hPa | 2.7V | 00:00:00 | 00:00:00 | 00:00:00 | |
| OM5KV | 2026-08-31 00:37:00 | 47.39947 | 19.68709 | 217° | 4km/h | 26555m | 5.8m/s | -50.0°C | 0.9% | 21.1hPa | 2.7V | 00:00:00 | 00:00:00 | 00:00:00 | |
| OM5KV | 2026-08-31 00:36:59 | 47.39948 | 19.68709 | 132° | 5km/h | 26548m | 8.1m/s | -50.0°C | 0.9% | 21.1hPa | 2.7V | 00:00:00 | 00:00:00 | 00:00:00 | |
| OM5KV | 2026-08-31 00:36:55 | 47.39945 | 19.68685 | 49° | 13km/h | 26514m | 5.1m/s | -49.8°C | 0.9% | 21.2hPa | 2.7V | 00:00:00 | 00:00:00 | 00:00:00 | |
| OM5KV | 2026-08-31 00:36:54 | 47.39943 | 19.68682 | 48° | 7km/h | 26508m | 6.5m/s | -49.7°C | 0.9% | 21.3hPa | 2.7V | 00:00:00 | 00:00:00 | 00:00:00 | |
| OM5KV | 2026-08-31 00:36:49 | 47.39942 | 19.68684 | 289° | 7km/h | 26480m | 7.1m/s | -49.6°C | 0.9% | 21.3hPa | 2.7V | 00:00:00 | 00:00:00 | 00:00:00 | |
| OM5KV | 2026-08-31 00:36:43 | 47.39942 | 19.68687 | 46° | 9km/h | 26440m | 8.1m/s | -49.5°C | 0.8% | 21.5hPa | 2.7V | 00:00:00 | 00:00:00 | 00:00:00 | |
| OM5KV | 2026-08-31 00:36:42 | 47.39939 | 19.68684 | 42° | 16km/h | 26433m | 6.2m/s | -49.5°C | 0.9% | 21.5hPa | 2.7V | 00:00:00 | 00:00:00 | 00:00:00 | |
| OM5KV | 2026-08-31 00:36:37 | 47.39925 | 19.68663 | 26° | 13km/h | 26400m | 7.8m/s | -49.5°C | 0.9% | 21.6hPa | 2.7V | 00:00:00 | 00:00:00 | 00:00:00 | |
| OM5KV | 2026-08-31 00:36:35 | 47.39919 | 19.68662 | 346° | 11km/h | 26387m | 5.1m/s | -49.6°C | 0.8% | 21.6hPa | 2.7V | 00:00:00 | 00:00:00 | 00:00:00 | |
| OE5DRO-10 | 2026-08-31 00:36:31 | 47.39916 | 19.68664 | 17° | 15km/h | 26356m | 7.2m/s | -49.7°C | 3.5% | 21.7hPa | 2.7V | 00:00:00 | 00:00:00 | 00:00:00 | |
| OM5KV | 2026-08-31 00:36:29 | 47.39914 | 19.68664 | 359° | 11km/h | 26349m | 7.2m/s | -49.7°C | 0.9% | 21.8hPa | 2.6V | 00:00:00 | 00:00:00 | 00:00:00 | |
| OM5KV | 2026-08-31 00:36:25 | 47.39898 | 19.68665 | 1° | 18km/h | 26322m | 6.1m/s | -50.0°C | 0.9% | 21.9hPa | 2.6V | 00:00:00 | 00:00:00 | 00:00:00 | |
| OM5KV | 2026-08-31 00:36:23 | 47.39888 | 19.68665 | 358° | 22km/h | 26308m | 7.9m/s | -50.0°C | 0.9% | 21.9hPa | 2.6V | 00:00:00 | 00:00:00 | 00:00:00 | |
| OM5KV | 2026-08-31 00:36:19 | 47.39871 | 19.68668 | 351° | 7km/h | 26281m | 5.8m/s | -50.0°C | 0.9% | 22.0hPa | 2.6V | 00:00:00 | 00:00:00 | 00:00:00 | |
| GYPAP8-17 | 2026-08-31 00:36:18 | 47.39869 | 19.68668 | 352° | 7km/h | 26275m | 5.8m/s | -50.0°C | 0.9% | 22.0hPa | 2.6V | 00:00:00 | 00:00:00 | 00:00:00 | |
| OM5KV | 2026-08-31 00:36:17 | 47.39867 | 19.68668 | 358° | 11km/h | 26269m | 7.4m/s | -50.0°C | 0.9% | 22.1hPa | 2.6V | 00:00:00 | 00:00:00 | 00:00:00 | |
| OM5KV | 2026-08-31 00:36:12 | 47.39845 | 19.68656 | 16° | 16km/h | 26228m | 7.9m/s | -50.5°C | 0.9% | 22.2hPa | 2.6V | 00:00:00 | 00:00:00 | 00:00:00 | |
| OM5KV | 2026-08-31 00:36:08 | 47.39834 | 19.68659 | 334° | 15km/h | 26210m | 6.8m/s | -50.7°C | 0.9% | 22.3hPa | 2.6V | 00:00:00 | 00:00:00 | 00:00:00 | |
| OM5KV | 2026-08-31 00:36:04 | 47.39826 | 19.68666 | 348° | 11km/h | 26184m | 7.7m/s | -51.0°C | 1.0% | 22.3hPa | 2.6V | 00:00:00 | 00:00:00 | 00:00:00 | |
| OM5KV | 2026-08-31 00:36:03 | 47.39818 | 19.68666 | 6° | 18km/h | 26171m | 5.8m/s | -51.0°C | 1.0% | 22.4hPa | 2.6V | 00:00:00 | 00:00:00 | 00:00:00 | |
| OM5KV | 2026-08-31 00:35:57 | 47.39799 | 19.68665 | 335° | 16km/h | 26137m | 6.6m/s | -51.1°C | 1.0% | 22.5hPa | 2.6V | 00:00:00 | 00:00:00 | 00:00:00 | |
| OM5KV | 2026-08-31 00:35:56 | 47.39796 | 19.68668 | 316° | 15km/h | 26131m | 5.2m/s | -51.1°C | 1.0% | 22.5hPa | 2.6V | 00:00:00 | 00:00:00 | 00:00:00 | |
| OE5DRO-10 | 2026-08-31 00:35:53 | 47.39794 | 19.68684 | 257° | 5km/h | 26104m | 7.1m/s | -51.0°C | 3.7% | 22.6hPa | 2.6V | 00:00:00 | 00:00:00 | 00:00:00 | |
| OM5KV | 2026-08-31 00:35:52 | 47.39794 | 19.68684 | 257° | 11km/h | 26104m | 7.1m/s | -51.0°C | 0.9% | 22.6hPa | 2.6V | 00:00:00 | 00:00:00 | 00:00:00 | |
| OM5KV | 2026-08-31 00:35:50 | 47.39793 | 19.68691 | 291° | 7km/h | 26090m | 5.5m/s | -51.0°C | 1.0% | 22.7hPa | 2.6V | 00:00:00 | 00:00:00 | 00:00:00 | |
| OM5KV | 2026-08-31 00:35:47 | 47.39791 | 19.68692 | 45° | 7km/h | 26070m | 5.4m/s | -51.0°C | 0.9% | 22.7hPa | 2.6V | 00:00:00 | 00:00:00 | 00:00:00 | |
| OM5KV | 2026-08-31 00:35:45 | 47.39787 | 19.68688 | 19° | 13km/h | 26056m | 6.5m/s | -51.0°C | 0.9% | 22.8hPa | 2.6V | 00:00:00 | 00:00:00 | 00:00:00 | |
| OM5KV | 2026-08-31 00:35:41 | 47.39782 | 19.68688 | 241° | 7km/h | 26031m | 6.0m/s | -51.0°C | 0.9% | 22.9hPa | 2.6V | 00:00:00 | 00:00:00 | 00:00:00 | |
| OM5KV | 2026-08-31 00:35:36 | 47.39788 | 19.68708 | 228° | 13km/h | 25996m | 6.1m/s | -51.0°C | 1.0% | 23.0hPa | 2.6V | 00:00:00 | 00:00:00 | 00:00:00 | |
| OM5KV | 2026-08-31 00:35:34 | 47.39791 | 19.68714 | 262° | 7km/h | 25983m | 7.9m/s | -51.0°C | 0.9% | 23.0hPa | 2.6V | 00:00:00 | 00:00:00 | 00:00:00 | |
| OM5KV | 2026-08-31 00:35:30 | 47.39790 | 19.68715 | 119° | 5km/h | 25957m | 5.8m/s | -51.1°C | 0.9% | 23.2hPa | 2.6V | 00:00:00 | 00:00:00 | 00:00:00 | |
| OE5DRO-10 | 2026-08-31 00:35:28 | 47.39793 | 19.68712 | 187° | 13km/h | 25938m | 5.1m/s | -51.0°C | 3.7% | 23.2hPa | 2.6V | 00:00:00 | 00:00:00 | 08:30:00 | |
| OM5KV | 2026-08-31 00:35:25 | 47.39797 | 19.68712 | 180° | 11km/h | 25926m | 7.6m/s | -51.0°C | 0.9% | 23.2hPa | 2.6V | 00:00:00 | 00:00:00 | 00:00:00 | |
| OM5KV | 2026-08-31 00:35:23 | 47.39804 | 19.68713 | 196° | 15km/h | 25914m | 5.7m/s | -51.0°C | 0.9% | 23.3hPa | 2.6V | 00:00:00 | 00:00:00 | 00:00:00 | |
| OM5KV | 2026-08-31 00:35:20 | 47.39814 | 19.68720 | 209° | 13km/h | 25895m | 5.6m/s | -51.1°C | 0.9% | 23.4hPa | 2.6V | 00:00:00 | 00:00:00 | 00:00:00 | |
| OM5KV | 2026-08-31 00:35:16 | 47.39826 | 19.68716 | 147° | 15km/h | 25871m | 6.4m/s | -51.1°C | 0.9% | 23.5hPa | 2.6V | 00:00:00 | 00:00:00 | 00:00:00 | |
| OM5KV | 2026-08-31 00:35:14 | 47.39831 | 19.68711 | 158° | 11km/h | 25858m | 5.5m/s | -51.1°C | 0.9% | 23.5hPa | 2.6V | 00:00:00 | 00:00:00 | 00:00:00 | |
| OM5KV | 2026-08-31 00:35:10 | 47.39846 | 19.68704 | 172° | 18km/h | 25834m | 5.4m/s | -51.2°C | 0.9% | 23.6hPa | 2.6V | 00:00:00 | 00:00:00 | 00:00:00 | |
| OM5KV | 2026-08-31 00:35:08 | 47.39855 | 19.68704 | 191° | 15km/h | 25821m | 5.8m/s | -51.3°C | 0.9% | 23.7hPa | 2.6V | 00:00:00 | 00:00:00 | 00:00:00 | |
| OM5KV | 2026-08-31 00:35:03 | 47.39868 | 19.68706 | 210° | 5km/h | 25790m | 7.6m/s | -51.4°C | 0.9% | 23.8hPa | 2.6V | 00:00:00 | 00:00:00 | 00:00:00 | |
| GYPAP8-17 | 2026-08-31 00:35:01 | 47.39870 | 19.68708 | 203° | 5km/h | 25777m | 7.2m/s | -51.5°C | 0.9% | 23.8hPa | 2.6V | 00:00:00 | 00:00:00 | 00:00:00 | |
| OM5KV | 2026-08-31 00:34:59 | 47.39872 | 19.68708 | 176° | 4km/h | 25765m | 4.1m/s | -51.6°C | 0.9% | 23.9hPa | 2.6V | 00:00:00 | 00:00:00 | 00:00:00 | |
| LZ4TU-5 | 2026-08-31 00:34:54 | 47.39875 | 19.68714 | 224° | 4km/h | 25735m | 6.3m/s | -51.8°C | 0% | 0hPa | 2.6V | 00:00:00 | 00:00:00 | 00:00:00 | |
| LZ4TU-5 | 2026-08-31 00:34:50 | 47.39869 | 19.68720 | 337° | 11km/h | 25704m | 6.6m/s | -51.8°C | 0% | 0hPa | 2.6V | 00:00:00 | 00:00:00 | 00:00:00 | |
| OE5DRO-10 | 2026-08-31 00:34:49 | 47.39866 | 19.68722 | 339° | 9km/h | 25698m | 7.0m/s | -51.8°C | 3.8% | 24.1hPa | 2.6V | 00:00:00 | 00:00:00 | 00:00:00 | |
| OM5KV | 2026-08-31 00:34:45 | 47.39862 | 19.68726 | 316° | 9km/h | 25679m | 7.7m/s | -51.8°C | 1.0% | 24.2hPa | 2.6V | 00:00:00 | 00:00:00 | 00:00:00 | |
| OM5KV | 2026-08-31 00:34:41 | 47.39857 | 19.68740 | 284° | 5km/h | 25654m | 5.1m/s | -51.9°C | 0.9% | 24.3hPa | 2.6V | 00:00:00 | 00:00:00 | 00:00:00 | |
| OM5KV | 2026-08-31 00:34:39 | 47.39855 | 19.68742 | 341° | 9km/h | 25642m | 7.2m/s | -52.0°C | 1.0% | 24.3hPa | 2.6V | 00:00:00 | 00:00:00 | 00:00:00 | |
| OM5KV | 2026-08-31 00:34:35 | 47.39840 | 19.68743 | 8° | 13km/h | 25617m | 5.7m/s | -52.1°C | 1.0% | 24.4hPa | 2.6V | 00:00:00 | 00:00:00 | 00:00:00 | |
| OM5KV | 2026-08-31 00:34:33 | 47.39834 | 19.68743 | 343° | 11km/h | 25607m | 5.4m/s | -52.2°C | 1.0% | 24.4hPa | 2.6V | 00:00:00 | 00:00:00 | 00:00:00 | |
| OM5KV | 2026-08-31 00:34:27 | 47.39816 | 19.68752 | 17° | 7km/h | 25570m | 6.1m/s | -52.2°C | 1.0% | 24.6hPa | 2.6V | 00:00:00 | 00:00:00 | 00:00:00 | |
| OM5KV | 2026-08-31 00:34:24 | 47.39809 | 19.68751 | 351° | 9km/h | 25552m | 3.9m/s | -52.3°C | 1.0% | 24.7hPa | 2.6V | 00:00:00 | 00:00:00 | 00:00:00 | |
| OE5DRO-10 | 2026-08-31 00:34:23 | 47.39805 | 19.68753 | 320° | 7km/h | 25541m | 6.9m/s | -52.4°C | 3.9% | 24.7hPa | 2.6V | 00:00:00 | 00:00:00 | 00:00:00 | |
| OM5KV | 2026-08-31 00:34:22 | 47.39806 | 19.68753 | 320° | 5km/h | 25541m | 7.0m/s | -52.4°C | 1.0% | 24.7hPa | 2.6V | 00:00:00 | 00:00:00 | 00:00:00 | |
| OM5KV | 2026-08-31 00:34:18 | 47.39795 | 19.68768 | 336° | 20km/h | 25512m | 4.8m/s | -52.7°C | 1.0% | 24.8hPa | 2.6V | 00:00:00 | 00:00:00 | 00:00:00 | |
| OM5KV | 2026-08-31 00:34:13 | 47.39783 | 19.68771 | 22° | 4km/h | 25489m | 5.4m/s | -52.7°C | 1.0% | 24.9hPa | 2.6V | 00:00:00 | 00:00:00 | 00:00:00 | |
| OM5KV | 2026-08-31 00:34:07 | 47.39783 | 19.68779 | 238° | 5km/h | 25450m | 5.7m/s | -52.8°C | 1.0% | 25.1hPa | 2.6V | 00:00:00 | 00:00:00 | 00:00:00 | |
| OM5KV | 2026-08-31 00:34:06 | 47.39783 | 19.68781 | 270° | 5km/h | 25444m | 7.2m/s | -52.8°C | 1.0% | 25.1hPa | 2.6V | 00:00:00 | 00:00:00 | 00:00:00 | |
| OE5DRO-10 | 2026-08-31 00:34:03 | 47.39779 | 19.68782 | 61° | 7km/h | 25419m | 6.6m/s | -53.0°C | 4.1% | 25.1hPa | 2.6V | 00:00:00 | 00:00:00 | 00:00:00 | |
| OM5KV | 2026-08-31 00:34:01 | 47.39778 | 19.68780 | 82° | 5km/h | 25413m | 4.8m/s | -53.1°C | 1.0% | 25.2hPa | 2.6V | 00:00:00 | 00:00:00 | 00:00:00 | |
| OM5KV | 2026-08-31 00:34:00 | 47.39778 | 19.68778 | 80° | 4km/h | 25408m | 5.9m/s | -53.1°C | 1.0% | 25.2hPa | 2.6V | 00:00:00 | 00:00:00 | 00:00:00 | |
| OM5KV | 2026-08-31 00:33:56 | 47.39781 | 19.68778 | 187° | 11km/h | 25383m | 7.4m/s | -53.1°C | 1.0% | 25.3hPa | 2.6V | 00:00:00 | 00:00:00 | 00:00:00 | |
| OM5KV | 2026-08-31 00:33:54 | 47.39788 | 19.68778 | 185° | 15km/h | 25371m | 5.7m/s | -53.1°C | 1.0% | 25.4hPa | 2.6V | 00:00:00 | 00:00:00 | 00:00:00 | |
| OM5KV | 2026-08-31 00:33:50 | 47.39798 | 19.68780 | 171° | 5km/h | 25347m | 5.9m/s | -53.2°C | 1.0% | 25.5hPa | 2.6V | 00:00:00 | 00:00:00 | 00:00:00 | |
| OM5KV | 2026-08-31 00:33:48 | 47.39801 | 19.68778 | 137° | 7km/h | 25334m | 5.9m/s | -53.1°C | 1.0% | 25.5hPa | 2.6V | 00:00:00 | 00:00:00 | 00:00:00 | |
| GYPAP8-17 | 2026-08-31 00:33:46 | 47.39803 | 19.68775 | 0° | 0km/h | 25322m | 7.2m/s | -53.1°C | 1.1% | 25.6hPa | 2.6V | 00:00:00 | 00:00:00 | 00:00:00 | |
| OM5KV | 2026-08-31 00:33:45 | 47.39803 | 19.68775 | 172° | 4km/h | 25310m | 5.6m/s | -53.1°C | 1.0% | 25.6hPa | 2.6V | 00:00:00 | 00:00:00 | 00:00:00 | |
| OM5KV | 2026-08-31 00:33:44 | 47.39804 | 19.68775 | 154° | 7km/h | 25303m | 7.9m/s | -53.1°C | 1.1% | 25.6hPa | 2.6V | 00:00:00 | 00:00:00 | 00:00:00 | |
| OE5DRO-10 | 2026-08-31 00:33:43 | 47.39809 | 19.68771 | 159° | 15km/h | 25291m | 5.2m/s | -53.1°C | 4.1% | 25.6hPa | 2.6V | 00:00:00 | 00:00:00 | 00:00:00 | |
| OM5KV | 2026-08-31 00:33:39 | 47.39833 | 19.68769 | 174° | 16km/h | 25278m | 5.5m/s | -53.1°C | 1.0% | 25.7hPa | 2.6V | 00:00:00 | 00:00:00 | 00:00:00 | |
| OM5KV | 2026-08-31 00:33:38 | 47.39821 | 19.68768 | 173° | 20km/h | 25272m | 5.7m/s | -53.1°C | 1.0% | 25.7hPa | 2.6V | 00:00:00 | 00:00:00 | 00:00:00 | |
| OM5KV | 2026-08-31 00:33:34 | 47.39839 | 19.68761 | 161° | 11km/h | 25247m | 7.2m/s | -53.1°C | 1.0% | 25.8hPa | 2.6V | 00:00:00 | 00:00:00 | 00:00:00 | |
| OM5KV | 2026-08-31 00:33:32 | 47.39841 | 19.68757 | 103° | 9km/h | 25235m | 5.9m/s | -53.1°C | 1.0% | 25.9hPa | 2.6V | 00:00:00 | 00:00:00 | 00:00:00 | |
| OM5KV | 2026-08-31 00:33:28 | 47.39847 | 19.68739 | 121° | 15km/h | 25208m | 7.7m/s | -53.1°C | 1.0% | 26.0hPa | 2.6V | 00:00:00 | 00:00:00 | 00:00:00 | |
| OM5KV | 2026-08-31 00:33:26 | 47.39851 | 19.68730 | 136° | 16km/h | 25195m | 5.6m/s | -53.1°C | 1.0% | 26.0hPa | 2.6V | 00:00:00 | 00:00:00 | 00:00:00 | |
| OM5KV | 2026-08-31 00:33:23 | 47.39864 | 19.68712 | 129° | 13km/h | 25170m | 7.6m/s | -53.1°C | 1.1% | 26.1hPa | 2.6V | 00:00:00 | 00:00:00 | 00:00:00 | |
| OM5KV | 2026-08-31 00:33:17 | 47.39867 | 19.68696 | 91° | 13km/h | 25139m | 5.3m/s | -53.2°C | 1.1% | 26.3hPa | 2.6V | 00:00:00 | 00:00:00 | 00:00:00 | |
| LZ4TU-5 | 2026-08-31 00:33:12 | 47.39863 | 19.68659 | 99° | 18km/h | 25100m | 4.9m/s | -53.0°C | 0% | 0hPa | 2.6V | 00:00:00 | 00:00:00 | 00:00:00 | |
| OM5KV | 2026-08-31 00:33:11 | 47.39863 | 19.68659 | 99° | 18km/h | 25100m | 4.9m/s | -53.0°C | 1.0% | 26.5hPa | 2.6V | 00:00:00 | 00:00:00 | 00:00:00 | |
| LZ4TU-5 | 2026-08-31 00:33:08 | 47.39864 | 19.68637 | 99° | 11km/h | 25076m | 6.4m/s | -52.8°C | 0% | 0hPa | 2.6V | 00:00:00 | 00:00:00 | 00:00:00 | |
| OM5KV | 2026-08-31 00:33:02 | 47.39869 | 19.68623 | 85° | 4km/h | 25042m | 5.8m/s | -52.6°C | 1.0% | 26.7hPa | 2.6V | 00:00:00 | 00:00:00 | 00:00:00 | |
| OM5KV | 2026-08-31 00:32:57 | 47.39871 | 19.68617 | 92° | 2km/h | 25009m | 7.6m/s | -52.5°C | 1.0% | 26.8hPa | 2.6V | 00:00:00 | 00:00:00 | 00:00:00 | |
| OM5KV | 2026-08-31 00:32:51 | 47.39875 | 19.68608 | 97° | 5km/h | 24969m | 6.9m/s | -52.5°C | 1.0% | 27.0hPa | 2.6V | 00:00:00 | 00:00:00 | 00:00:00 | |
| OM5KV | 2026-08-31 00:32:48 | 47.39877 | 19.68604 | 158° | 5km/h | 24950m | 7.0m/s | -52.7°C | 1.0% | 27.1hPa | 2.6V | 00:00:00 | 00:00:00 | 00:00:00 | |
| OE5DRO-10 | 2026-08-31 00:32:44 | 47.39880 | 19.68617 | 273° | 9km/h | 24912m | 7.0m/s | -52.5°C | 4.0% | 27.2hPa | 2.6V | 00:00:00 | 00:00:00 | 00:00:00 | |
| OM5KV | 2026-08-31 00:32:43 | 47.39880 | 19.68617 | 274° | 11km/h | 24912m | 7.0m/s | -52.6°C | 1.0% | 27.2hPa | 2.6V | 00:00:00 | 00:00:00 | 00:00:00 | |
| GYPAP8-17 | 2026-08-31 00:32:41 | 47.39880 | 19.68620 | 265° | 9km/h | 24905m | 6.7m/s | -52.6°C | 1.0% | 27.3hPa | 2.6V | 00:00:00 | 00:00:00 | 00:00:00 | |
| OM5KV | 2026-08-31 00:32:39 | 47.39880 | 19.68627 | 280° | 9km/h | 24893m | 6.5m/s | -52.5°C | 1.0% | 27.3hPa | 2.6V | 00:00:00 | 00:00:00 | 00:00:00 | |
| OM5KV | 2026-08-31 00:32:35 | 47.39880 | 19.68643 | 224° | 11km/h | 24860m | 5.5m/s | -52.6°C | 1.0% | 27.4hPa | 2.6V | 00:00:00 | 00:00:00 | 00:00:00 | |
| OM5KV | 2026-08-31 00:32:29 | 47.39885 | 19.68656 | 195° | 4km/h | 24821m | 6.9m/s | -52.7°C | 1.0% | 27.6hPa | 2.6V | 00:00:00 | 00:00:00 | 00:00:00 | |
| OE5DRO-10 | 2026-08-31 00:32:24 | 47.39885 | 19.68656 | 9° | 18km/h | 24790m | 6.2m/s | -52.8°C | 4.0% | 27.7hPa | 2.6V | 00:00:00 | 00:00:00 | 00:00:00 | |
| OM5KV | 2026-08-31 00:32:22 | 47.39885 | 19.68656 | 89° | 2km/h | 24783m | 7.3m/s | -52.9°C | 1.0% | 27.8hPa | 2.6V | 00:00:00 | 00:00:00 | 00:00:00 | |
| OM5KV | 2026-08-31 00:32:17 | 47.39880 | 19.68650 | 31° | 11km/h | 24749m | 6.7m/s | -52.8°C | 1.0% | 28.0hPa | 2.6V | 00:00:00 | 00:00:00 | 00:00:00 | |
| OM5KV | 2026-08-31 00:32:12 | 47.39866 | 19.68636 | 22° | 15km/h | 24717m | 5.8m/s | -52.9°C | 1.0% | 28.1hPa | 2.6V | 00:00:00 | 00:00:00 | 00:00:00 | |
| OM5KV | 2026-08-31 00:32:11 | 47.39863 | 19.68634 | 25° | 11km/h | 24710m | 6.8m/s | -52.9°C | 1.0% | 28.1hPa | 2.6V | 00:00:00 | 00:00:00 | 00:00:00 | |
| OM5KV | 2026-08-31 00:32:07 | 47.39853 | 19.68629 | 7° | 15km/h | 24684m | 7.1m/s | -52.9°C | 1.0% | 28.2hPa | 2.6V | 00:00:00 | 00:00:00 | 00:00:00 | |
| OM5KV | 2026-08-31 00:32:06 | 47.39849 | 19.68628 | 11° | 18km/h | 24678m | 5.2m/s | -52.9°C | 1.0% | 28.2hPa | 2.6V | 00:00:00 | 00:00:00 | 00:00:00 | |
| OM5KV | 2026-08-31 00:32:01 | 47.39823 | 19.68609 | 24° | 24km/h | 24647m | 7.5m/s | -52.9°C | 1.0% | 28.4hPa | 2.6V | 00:00:00 | 00:00:00 | 00:00:00 | |
| OM5KV | 2026-08-31 00:32:00 | 47.39818 | 19.68606 | 17° | 22km/h | 24640m | 6.8m/s | -52.9°C | 1.0% | 28.4hPa | 2.6V | 00:00:00 | 00:00:00 | 00:00:00 | |
| OM5KV | 2026-08-31 00:31:55 | 47.39798 | 19.68599 | 359° | 15km/h | 24606m | 7.3m/s | -52.9°C | 1.1% | 28.6hPa | 2.6V | 00:00:00 | 00:00:00 | 00:00:00 | |
| OM5KV | 2026-08-31 00:31:54 | 47.39794 | 19.68600 | 358° | 15km/h | 24600m | 4.5m/s | -52.9°C | 1.0% | 28.6hPa | 2.6V | 00:00:00 | 00:00:00 | 00:00:00 | |
| OE5DRO-10 | 2026-08-31 00:31:53 | 47.39787 | 19.68599 | 18° | 7km/h | 24588m | 7.5m/s | -52.8°C | 4.0% | 28.6hPa | 2.6V | 00:00:00 | 00:00:00 | 08:30:00 | |
| OM5KV | 2026-08-31 00:31:44 | 47.39767 | 19.68589 | 337° | 5km/h | 24535m | 8.0m/s | -52.9°C | 1.1% | 28.9hPa | 2.6V | 00:00:00 | 00:00:00 | 00:00:00 | |
| OM5KV | 2026-08-31 00:31:43 | 47.39766 | 19.68590 | 323° | 7km/h | 24528m | 6.1m/s | -52.8°C | 1.0% | 28.9hPa | 2.6V | 00:00:00 | 00:00:00 | 00:00:00 | |
| OE5DRO-10 | 2026-08-31 00:31:34 | 47.39761 | 19.68586 | 161° | 5km/h | 24464m | 6.7m/s | -52.7°C | 4.0% | 29.1hPa | 2.6V | 00:00:00 | 00:00:00 | 00:00:00 | |
| OM5KV | 2026-08-31 00:31:33 | 47.39762 | 19.68586 | 187° | 5km/h | 24457m | 7.1m/s | -52.7°C | 1.0% | 29.2hPa | 2.6V | 00:00:00 | 00:00:00 | 00:00:00 | |
| OM5KV | 2026-08-31 00:31:26 | 47.39770 | 19.68588 | 0° | 0km/h | 24419m | 8.0m/s | -52.7°C | 1.0% | 29.4hPa | 2.6V | 00:00:00 | 00:00:00 | 00:00:00 | |
| OM5KV | 2026-08-31 00:31:22 | 47.39769 | 19.68584 | 102° | 7km/h | 24393m | 5.5m/s | -52.6°C | 1.0% | 29.5hPa | 2.6V | 00:00:00 | 00:00:00 | 00:00:00 | |
| LZ4TU-5 | 2026-08-31 00:31:21 | 47.39769 | 19.68581 | 109° | 5km/h | 24387m | 5.6m/s | -52.6°C | 0% | 0hPa | 2.6V | 00:00:00 | 00:00:00 | 00:00:00 | |
| LZ4TU-5 | 2026-08-31 00:31:17 | 47.39770 | 19.68575 | 75° | 5km/h | 24354m | 5.0m/s | -52.7°C | 0% | 0hPa | 2.6V | 00:00:00 | 00:00:00 | 00:00:00 | |
| OE5DRO-10 | 2026-08-31 00:31:15 | 47.39768 | 19.68572 | 14° | 11km/h | 24342m | 7.2m/s | -52.7°C | 4.0% | 29.7hPa | 2.6V | 00:00:00 | 00:00:00 | 00:00:00 | |
| GYPAP8-17 | 2026-08-31 00:31:11 | 47.39762 | 19.68570 | 44° | 7km/h | 24322m | 6.9m/s | -52.9°C | 1.0% | 29.9hPa | 2.6V | 00:00:00 | 00:00:00 | 00:00:00 | |
| OM5KV | 2026-08-31 00:31:10 | 47.39761 | 19.68568 | 71° | 5km/h | 24316m | 5.5m/s | -52.9°C | 1.0% | 29.9hPa | 2.6V | 00:00:00 | 00:00:00 | 00:00:00 | |
| SQ9EZE-14 | 2026-08-31 00:31:03 | 47.39761 | 19.68559 | 55° | 9km/h | 24273m | 6.1m/s | 0°C | 0% | 0hPa | 2.6V | 00:00:00 | 00:00:00 | 00:00:00 | |
| OM5KV | 2026-08-31 00:30:58 | 47.39741 | 19.68553 | 361° | 20km/h | 24242m | 5.3m/s | -53.0°C | 1.1% | 30.2hPa | 2.6V | 00:00:00 | 00:00:00 | 00:00:00 | |
| OE5DRO-10 | 2026-08-31 00:30:55 | 47.39722 | 19.68558 | 355° | 15km/h | 24217m | 6.3m/s | -53.0°C | 4.1% | 30.3hPa | 2.6V | 00:00:00 | 00:00:00 | 00:00:00 | |
| OM5KV | 2026-08-31 00:30:52 | 47.39713 | 19.68557 | 11° | 20km/h | 24204m | 5.5m/s | -53.1°C | 1.0% | 30.4hPa | 2.7V | 00:00:00 | 00:00:00 | 00:00:00 | |
| OM5KV | 2026-08-31 00:30:49 | 47.39693 | 19.68551 | 23° | 20km/h | 24181m | 7.0m/s | -53.2°C | 1.0% | 30.5hPa | 2.7V | 00:00:00 | 00:00:00 | 00:00:00 | |
| OM5KV | 2026-08-31 00:30:46 | 47.39686 | 19.68546 | 24° | 9km/h | 24169m | 4.9m/s | -53.2°C | 1.1% | 30.6hPa | 2.7V | 00:00:00 | 00:00:00 | 00:00:00 | |
| OM5KV | 2026-08-31 00:30:41 | 47.39677 | 19.68558 | 315° | 11km/h | 24137m | 6.0m/s | -53.4°C | 1.1% | 30.7hPa | 2.7V | 00:00:00 | 00:00:00 | 00:00:00 | |
| OM5KV | 2026-08-31 00:30:40 | 47.39674 | 19.68561 | 324° | 13km/h | 24131m | 5.8m/s | -53.4°C | 1.1% | 30.8hPa | 2.7V | 00:00:00 | 00:00:00 | 00:00:00 | |
| SQ9EZE-15 | 2026-08-31 00:30:36 | 47.39660 | 19.68567 | 18° | 13km/h | 24104m | 7.5m/s | -53.3°C | 1.0% | 30.9hPa | 2.7V | 00:00:00 | 00:00:00 | 00:00:00 | |
| OM5KV | 2026-08-31 00:30:35 | 47.39655 | 19.68563 | 20° | 11km/h | 24093m | 6.2m/s | -53.2°C | 1.0% | 30.9hPa | 2.7V | 00:00:00 | 00:00:00 | 00:00:00 | |
| OM5KV | 2026-08-31 00:30:31 | 47.39649 | 19.68569 | 281° | 7km/h | 24069m | 6.8m/s | -53.2°C | 1.0% | 31.1hPa | 2.7V | 00:00:00 | 00:00:00 | 00:00:00 | |
| OM5KV | 2026-08-31 00:30:28 | 47.39649 | 19.68574 | 260° | 7km/h | 24057m | 6.1m/s | -53.1°C | 1.0% | 31.1hPa | 2.7V | 00:00:00 | 00:00:00 | 00:00:00 | |
| OM5KV | 2026-08-31 00:30:24 | 47.39649 | 19.68585 | 268° | 4km/h | 24033m | 5.8m/s | -53.5°C | 1.1% | 31.2hPa | 2.7V | 00:00:00 | 00:00:00 | 00:00:00 | |
| OM5KV | 2026-08-31 00:30:23 | 47.39650 | 19.68585 | 128° | 7km/h | 24020m | 5.7m/s | -53.7°C | 1.1% | 31.3hPa | 2.7V | 00:00:00 | 00:00:00 | 00:00:00 | |
| OM5KV | 2026-08-31 00:30:18 | 47.39652 | 19.68573 | 105° | 9km/h | 23996m | 6.3m/s | -53.7°C | 1.1% | 31.4hPa | 2.7V | 00:00:00 | 00:00:00 | 00:00:00 | |
| SQ9EZE-15 | 2026-08-31 00:30:17 | 47.39658 | 19.68569 | 197° | 11km/h | 23978m | 6.4m/s | -53.8°C | 1.1% | 31.5hPa | 2.7V | 00:00:00 | 00:00:00 | 00:00:00 | |
| OM5KV | 2026-08-31 00:30:12 | 47.39665 | 19.68579 | 237° | 15km/h | 23959m | 5.0m/s | -53.8°C | 1.1% | 31.6hPa | 2.7V | 00:00:00 | 00:00:00 | 00:00:00 | |
| OM5KV | 2026-08-31 00:30:11 | 47.39667 | 19.68583 | 223° | 15km/h | 23953m | 6.8m/s | -53.8°C | 1.1% | 31.6hPa | 2.7V | 00:00:00 | 00:00:00 | 00:00:00 | |
| OM5KV | 2026-08-31 00:30:07 | 47.39675 | 19.68585 | 105° | 4km/h | 23929m | 6.2m/s | -53.8°C | 1.1% | 31.8hPa | 2.7V | 00:00:00 | 00:00:00 | 00:00:00 | |
| OM5KV | 2026-08-31 00:30:05 | 47.39675 | 19.68581 | 85° | 7km/h | 23917m | 7.0m/s | -53.8°C | 1.1% | 31.8hPa | 2.7V | 00:00:00 | 00:00:00 | 00:00:00 | |
| OM5KV | 2026-08-31 00:29:59 | 47.39672 | 19.68573 | 252° | 2km/h | 23880m | 7.1m/s | -54.1°C | 1.1% | 32.0hPa | 2.7V | 00:00:00 | 00:00:00 | 00:00:00 | |
| OE5DRO-10 | 2026-08-31 00:29:57 | 47.39674 | 19.68574 | 216° | 7km/h | 23862m | 6.4m/s | 0°C | 0% | 0hPa | 2.7V | 00:00:00 | 00:00:00 | 00:00:00 | |
| OM5KV | 2026-08-31 00:29:53 | 47.39674 | 19.68579 | 291° | 4km/h | 23843m | 6.9m/s | -54.4°C | 1.1% | 32.2hPa | 2.7V | 00:00:00 | 00:00:00 | 00:00:00 | |
| OM5KV | 2026-08-31 00:29:48 | 47.39669 | 19.68587 | 312° | 13km/h | 23812m | 6.1m/s | -54.4°C | 1.1% | 32.3hPa | 2.7V | 00:00:00 | 00:00:00 | 00:00:00 | |
| OM5KV | 2026-08-31 00:29:45 | 47.39662 | 19.68597 | 339° | 5km/h | 23788m | 4.5m/s | -54.3°C | 1.1% | 32.5hPa | 2.7V | 00:00:00 | 00:00:00 | 00:00:00 | |
| OM5KV | 2026-08-31 00:29:43 | 47.39661 | 19.68599 | 338° | 7km/h | 23782m | 7.2m/s | -54.3°C | 1.1% | 32.5hPa | 2.7V | 00:00:00 | 00:00:00 | 00:00:00 | |
| LZ4TU-5 | 2026-08-31 00:29:41 | 47.39656 | 19.68605 | 284° | 7km/h | 23764m | 7.6m/s | -54.3°C | 0% | 0hPa | 2.7V | 00:00:00 | 00:00:00 | 00:00:00 | |
| OM5KV | 2026-08-31 00:29:39 | 47.39656 | 19.68608 | 257° | 9km/h | 23757m | 6.3m/s | -54.3°C | 1.2% | 32.6hPa | 2.7V | 00:00:00 | 00:00:00 | 00:00:00 | |
| OE5DRO-10 | 2026-08-31 00:29:38 | 47.39658 | 19.68616 | 265° | 7km/h | 23744m | 7.4m/s | 0°C | 0% | 0hPa | 2.7V | 00:00:00 | 00:00:00 | 00:00:00 | |
| GYPAP8-17 | 2026-08-31 00:29:36 | 47.39658 | 19.68620 | 270° | 13km/h | 23737m | 5.5m/s | -54.2°C | 1.1% | 32.7hPa | 2.7V | 00:00:00 | 00:00:00 | 00:00:00 | |
| OM5KV | 2026-08-31 00:29:28 | 47.39660 | 19.68642 | 238° | 5km/h | 23686m | 6.8m/s | -53.9°C | 1.1% | 33.0hPa | 2.7V | 00:00:00 | 00:00:00 | 00:00:00 | |
| OM5KV | 2026-08-31 00:29:25 | 47.39661 | 19.68649 | 259° | 7km/h | 23667m | 6.0m/s | -53.9°C | 1.1% | 33.1hPa | 2.7V | 00:00:00 | 00:00:00 | 00:00:00 | |
| OM5KV | 2026-08-31 00:29:21 | 47.39664 | 19.68656 | 251° | 4km/h | 23644m | 4.5m/s | -53.8°C | 1.1% | 33.2hPa | 2.7V | 00:00:00 | 00:00:00 | 00:00:00 | |
| OM5KV | 2026-08-31 00:29:20 | 47.39663 | 19.68660 | 305° | 7km/h | 23631m | 6.3m/s | -53.8°C | 1.1% | 33.3hPa | 2.7V | 00:00:00 | 00:00:00 | 00:00:00 | |
| OE5DRO-10 | 2026-08-31 00:29:19 | 47.39662 | 19.68662 | 319° | 9km/h | 23625m | 5.5m/s | 0°C | 0% | 0hPa | 2.7V | 00:00:00 | 00:00:00 | 00:00:00 | |
| OM5KV | 2026-08-31 00:29:15 | 47.39660 | 19.68666 | 270° | 5km/h | 23606m | 5.8m/s | -53.8°C | 1.1% | 33.4hPa | 2.7V | 00:00:00 | 00:00:00 | 00:00:00 | |
| OM5KV | 2026-08-31 00:29:13 | 47.39660 | 19.68671 | 244° | 11km/h | 23594m | 5.3m/s | -53.8°C | 1.1% | 33.4hPa | 2.7V | 00:00:00 | 00:00:00 | 00:00:00 | |
| OM5KV | 2026-08-31 00:29:10 | 47.39666 | 19.68680 | 224° | 11km/h | 23575m | 5.5m/s | -53.9°C | 1.1% | 33.6hPa | 2.7V | 00:00:00 | 00:00:00 | 00:00:00 | |
| OM5KV | 2026-08-31 00:29:05 | 47.39669 | 19.68702 | 298° | 9km/h | 23538m | 5.0m/s | -54.2°C | 1.1% | 33.8hPa | 2.7V | 00:00:00 | 00:00:00 | 00:00:00 | |
| OM5KV | 2026-08-31 00:29:02 | 47.39668 | 19.68710 | 277° | 15km/h | 23526m | 6.9m/s | -54.3°C | 1.1% | 33.8hPa | 2.7V | 00:00:00 | 00:00:00 | 00:00:00 | |
| OE5DRO-10 | 2026-08-31 00:29:00 | 47.39671 | 19.68726 | 230° | 16km/h | 23507m | 6.9m/s | 0°C | 0% | 0hPa | 2.7V | 00:00:00 | 00:00:00 | 00:00:00 | |
| OM5KV | 2026-08-31 00:28:58 | 47.39674 | 19.68730 | 217° | 16km/h | 23501m | 6.0m/s | -54.4°C | 1.1% | 33.9hPa | 2.7V | 00:00:00 | 00:00:00 | 00:00:00 | |
| OM5KV | 2026-08-31 00:28:53 | 47.39694 | 19.68753 | 221° | 11km/h | 23466m | 6.5m/s | -54.4°C | 1.1% | 34.1hPa | 2.7V | 00:00:00 | 00:00:00 | 00:00:00 | |
| OM5KV | 2026-08-31 00:28:48 | 47.39697 | 19.68770 | 286° | 11km/h | 23435m | 7.1m/s | -54.3°C | 1.2% | 34.3hPa | 2.7V | 00:00:00 | 00:00:00 | 00:00:00 | |
| OM5KV | 2026-08-31 00:28:38 | 47.39695 | 19.68816 | 258° | 7km/h | 23381m | 5.8m/s | -54.1°C | 1.1% | 34.6hPa | 2.7V | 00:00:00 | 00:00:00 | 00:00:00 | |
| OM5KV | 2026-08-31 00:28:37 | 47.39695 | 19.68819 | 334° | 2km/h | 23369m | 7.2m/s | -54.0°C | 1.1% | 34.6hPa | 2.7V | 00:00:00 | 00:00:00 | 00:00:00 | |
| OM5KV | 2026-08-31 00:28:33 | 47.39689 | 19.68821 | 304° | 9km/h | 23345m | 6.2m/s | -53.9°C | 1.1% | 34.8hPa | 2.7V | 00:00:00 | 00:00:00 | 00:00:00 | |
| OM5KV | 2026-08-31 00:28:30 | 47.39686 | 19.68831 | 293° | 18km/h | 23333m | 6.0m/s | -53.8°C | 1.1% | 34.9hPa | 2.7V | 00:00:00 | 00:00:00 | 00:00:00 | |
| OM5KV | 2026-08-31 00:28:27 | 47.39679 | 19.68850 | 298° | 18km/h | 23315m | 5.3m/s | -53.8°C | 1.1% | 34.9hPa | 2.7V | 00:00:00 | 00:00:00 | 00:00:00 | |
| GYPAP8-17 | 2026-08-31 00:28:25 | 47.39676 | 19.68861 | 287° | 13km/h | 23303m | 5.4m/s | -53.8°C | 1.1% | 35.0hPa | 2.7V | 00:00:00 | 00:00:00 | 00:00:00 | |
| SQ9EZE-14 | 2026-08-31 00:28:20 | 47.39668 | 19.68867 | 340° | 7km/h | 23272m | 7.1m/s | 0°C | 0% | 0hPa | 2.7V | 00:00:00 | 00:00:00 | 00:00:00 | |
| OM5KV | 2026-08-31 00:28:19 | 47.39666 | 19.68869 | 314° | 9km/h | 23266m | 5.3m/s | -53.9°C | 1.1% | 35.2hPa | 2.7V | 00:00:00 | 00:00:00 | 00:00:00 | |
| OM5KV | 2026-08-31 00:28:16 | 47.39660 | 19.68879 | 311° | 16km/h | 23248m | 5.4m/s | -53.9°C | 1.1% | 35.3hPa | 2.7V | 00:00:00 | 00:00:00 | 00:00:00 | |
| SQ9EZE-15 | 2026-08-31 00:28:15 | 47.39658 | 19.68884 | 303° | 18km/h | 23242m | 5.8m/s | -53.9°C | 1.1% | 35.3hPa | 2.7V | 00:00:00 | 00:00:00 | 00:00:00 | |
| OM5KV | 2026-08-31 00:28:14 | 47.39655 | 19.68890 | 294° | 16km/h | 23236m | 6.5m/s | -53.9°C | 1.1% | 35.4hPa | 2.7V | 00:00:00 | 00:00:00 | 00:00:00 | |
| OM5KV | 2026-08-31 00:28:10 | 47.39643 | 19.68907 | 358° | 15km/h | 23207m | 5.9m/s | -53.8°C | 1.1% | 35.5hPa | 2.7V | 00:00:00 | 00:00:00 | 00:00:00 | |
| SQ9EZE-14 | 2026-08-31 00:28:08 | 47.39626 | 19.68902 | 2° | 18km/h | 23177m | 5.7m/s | 0°C | 0% | 0hPa | 2.7V | 00:00:00 | 00:00:00 | 00:00:00 | |
| OM5KV | 2026-08-31 00:28:06 | 47.39621 | 19.68902 | 350° | 18km/h | 23172m | 5.7m/s | -53.6°C | 1.1% | 35.7hPa | 2.7V | 00:00:00 | 00:00:00 | 00:00:00 | |
| OM5KV | 2026-08-31 00:27:43 | 47.39540 | 19.68976 | 278° | 5km/h | 23042m | 6.0m/s | -53.9°C | 1.1% | 36.5hPa | 2.7V | 00:00:00 | 00:00:00 | 00:00:00 | |
| OM5KV | 2026-08-31 00:27:40 | 47.39540 | 19.68978 | 310° | 4km/h | 23036m | 6.3m/s | -53.9°C | 1.1% | 36.5hPa | 2.7V | 00:00:00 | 00:00:00 | 00:00:00 | |
| OM5KV | 2026-08-31 00:27:35 | 47.39536 | 19.68975 | 7° | 7km/h | 23001m | 6.4m/s | -54.0°C | 1.1% | 36.7hPa | 2.7V | 00:00:00 | 00:00:00 | 00:00:00 | |
| OM5KV | 2026-08-31 00:27:28 | 47.39525 | 19.69004 | 286° | 18km/h | 22964m | 5.0m/s | -54.3°C | 1.2% | 36.9hPa | 2.7V | 00:00:00 | 00:00:00 | 00:00:00 | |
| OM5KV | 2026-08-31 00:27:24 | 47.39525 | 19.69022 | 257° | 5km/h | 22941m | 6.1m/s | -54.4°C | 1.1% | 37.1hPa | 2.7V | 00:00:00 | 00:00:00 | 00:00:00 | |
| OM5KV | 2026-08-31 00:27:23 | 47.39525 | 19.69023 | 321° | 2km/h | 22935m | 6.6m/s | -54.3°C | 1.1% | 37.1hPa | 2.7V | 00:00:00 | 00:00:00 | 00:00:00 | |
| OM5KV | 2026-08-31 00:27:18 | 47.39523 | 19.69029 | 284° | 11km/h | 22906m | 6.7m/s | -54.5°C | 1.1% | 37.3hPa | 2.7V | 00:00:00 | 00:00:00 | 00:00:00 | |
| OM5KV | 2026-08-31 00:27:13 | 47.39526 | 19.69073 | 251° | 33km/h | 22875m | 5.1m/s | -54.6°C | 1.2% | 37.4hPa | 2.7V | 00:00:00 | 00:00:00 | 00:00:00 | |
| OM5KV | 2026-08-31 00:27:12 | 47.39529 | 19.69084 | 252° | 31km/h | 22869m | 6.6m/s | -54.6°C | 1.1% | 37.5hPa | 2.7V | 00:00:00 | 00:00:00 | 00:00:00 | |
| OM5KV | 2026-08-31 00:27:07 | 47.39542 | 19.69118 | 210° | 11km/h | 22840m | 5.3m/s | -54.5°C | 1.2% | 37.7hPa | 2.7V | 00:00:00 | 00:00:00 | 00:00:00 | |
| OM5KV | 2026-08-31 00:27:06 | 47.39544 | 19.69120 | 201° | 7km/h | 22834m | 7.4m/s | -54.5°C | 1.1% | 37.7hPa | 2.7V | 00:00:00 | 00:00:00 | 00:00:00 | |
| OM5KV | 2026-08-31 00:27:01 | 47.39551 | 19.69136 | 248° | 26km/h | 22806m | 5.0m/s | -54.6°C | 1.2% | 37.8hPa | 2.7V | 00:00:00 | 00:00:00 | 00:00:00 | |
| OM5KV | 2026-08-31 00:26:55 | 47.39564 | 19.69182 | 210° | 13km/h | 22772m | 5.1m/s | -54.5°C | 1.1% | 38.1hPa | 2.7V | 00:00:00 | 00:00:00 | 00:00:00 | |
| OM5KV | 2026-08-31 00:26:50 | 47.39574 | 19.69185 | 222° | 9km/h | 22744m | 6.4m/s | -54.4°C | 1.1% | 38.2hPa | 2.7V | 00:00:00 | 00:00:00 | 00:00:00 | |
| OM5KV | 2026-08-31 00:26:45 | 47.39579 | 19.69213 | 265° | 22km/h | 22715m | 5.5m/s | -54.5°C | 1.1% | 38.4hPa | 2.7V | 00:00:00 | 00:00:00 | 00:00:00 | |
| OM5KV | 2026-08-31 00:26:44 | 47.39580 | 19.69221 | 258° | 22km/h | 22709m | 7.1m/s | -54.6°C | 1.1% | 38.4hPa | 2.7V | 00:00:00 | 00:00:00 | 00:00:00 | |
| OM5KV | 2026-08-31 00:26:40 | 47.39585 | 19.69240 | 191° | 2km/h | 22685m | 6.2m/s | -54.6°C | 1.1% | 38.6hPa | 2.7V | 00:00:00 | 00:00:00 | 00:00:00 | |
| OM5KV | 2026-08-31 00:26:38 | 47.39586 | 19.69237 | 125° | 7km/h | 22672m | 6.0m/s | -54.6°C | 1.2% | 38.7hPa | 2.7V | 00:00:00 | 00:00:00 | 00:00:00 | |
| OM5KV | 2026-08-31 00:26:34 | 47.39587 | 19.69233 | 284° | 5km/h | 22650m | 4.1m/s | -54.7°C | 1.1% | 38.8hPa | 2.7V | 00:00:00 | 00:00:00 | 00:00:00 | |
| OM5KV | 2026-08-31 00:26:32 | 47.39588 | 19.69239 | 248° | 13km/h | 22638m | 6.1m/s | -54.8°C | 1.1% | 38.9hPa | 2.7V | 00:00:00 | 00:00:00 | 00:00:00 | |
| OM5KV | 2026-08-31 00:26:28 | 47.39592 | 19.69256 | 265° | 4km/h | 22616m | 4.7m/s | -55.0°C | 1.2% | 39.0hPa | 2.7V | 00:00:00 | 00:00:00 | 00:00:00 | |
| OM5KV | 2026-08-31 00:26:22 | 47.39593 | 19.69241 | 73° | 7km/h | 22582m | 4.4m/s | -55.1°C | 1.2% | 39.2hPa | 2.7V | 00:00:00 | 00:00:00 | 00:00:00 | |
| OM5KV | 2026-08-31 00:26:21 | 47.39593 | 19.69238 | 90° | 5km/h | 22577m | 6.3m/s | -55.1°C | 1.2% | 39.2hPa | 2.7V | 00:00:00 | 00:00:00 | 00:00:00 | |
| LZ4TU-5 | 2026-08-31 00:26:20 | 47.39593 | 19.69236 | 131° | 4km/h | 22571m | 5.8m/s | -55.1°C | 0% | 0hPa | 2.7V | 00:00:00 | 00:00:00 | 00:00:00 | |
| OM5KV | 2026-08-31 00:26:16 | 47.39595 | 19.69236 | 201° | 4km/h | 22548m | 4.8m/s | -55.2°C | 1.2% | 39.4hPa | 2.7V | 00:00:00 | 00:00:00 | 00:00:00 | |
| OM5KV | 2026-08-31 00:26:15 | 47.39596 | 19.69236 | 194° | 5km/h | 22542m | 7.0m/s | -55.3°C | 1.2% | 39.5hPa | 2.7V | 00:00:00 | 00:00:00 | 00:00:00 | |
| OM5KV | 2026-08-31 00:26:10 | 47.39599 | 19.69235 | 28° | 2km/h | 22513m | 6.7m/s | -55.4°C | 1.2% | 39.6hPa | 2.7V | 00:00:00 | 00:00:00 | 00:00:00 | |
| OM5KV | 2026-08-31 00:26:09 | 47.39598 | 19.69234 | 0° | 0km/h | 22507m | 5.6m/s | -55.4°C | 1.2% | 39.7hPa | 2.7V | 00:00:00 | 00:00:00 | 00:00:00 | |
| GYPAP8-17 | 2026-08-31 00:26:08 | 47.39598 | 19.69234 | 19° | 4km/h | 22502m | 4.8m/s | -55.4°C | 1.2% | 39.7hPa | 2.7V | 00:00:00 | 00:00:00 | 00:00:00 | |
| OM5KV | 2026-08-31 00:26:05 | 47.39593 | 19.69231 | 26° | 11km/h | 22484m | 5.7m/s | -55.3°C | 1.2% | 39.8hPa | 2.7V | 00:00:00 | 00:00:00 | 00:00:00 | |
| OM5KV | 2026-08-31 00:26:04 | 47.39590 | 19.69230 | 34° | 7km/h | 22478m | 7.1m/s | -55.3°C | 1.2% | 39.9hPa | 2.7V | 00:00:00 | 00:00:00 | 00:00:00 | |
| SQ9EZE-15 | 2026-08-31 00:25:58 | 47.39585 | 19.69218 | 28° | 11km/h | 22444m | 5.8m/s | -55.3°C | 1.2% | 40.1hPa | 2.7V | 00:00:00 | 00:00:00 | 00:00:00 | |
| OM5KV | 2026-08-31 00:25:52 | 47.39568 | 19.69214 | 5° | 13km/h | 22409m | 5.2m/s | -55.3°C | 1.2% | 40.3hPa | 2.7V | 00:00:00 | 00:00:00 | 00:00:00 | |
| OM5KV | 2026-08-31 00:25:51 | 47.39566 | 19.69214 | 354° | 9km/h | 22402m | 7.2m/s | -55.3°C | 1.2% | 40.3hPa | 2.7V | 00:00:00 | 00:00:00 | 00:00:00 | |
| OM5KV | 2026-08-31 00:25:47 | 47.39558 | 19.69221 | 338° | 9km/h | 22379m | 4.9m/s | -55.6°C | 1.2% | 40.5hPa | 2.7V | 00:00:00 | 00:00:00 | 00:00:00 | |
| OM5KV | 2026-08-31 00:25:45 | 47.39554 | 19.69223 | 352° | 7km/h | 22367m | 5.6m/s | -55.7°C | 1.2% | 40.5hPa | 2.7V | 00:00:00 | 00:00:00 | 00:00:00 | |
| OM5KV | 2026-08-31 00:25:41 | 47.39539 | 19.69220 | 4° | 22km/h | 22343m | 5.6m/s | -55.9°C | 1.2% | 40.7hPa | 2.7V | 00:00:00 | 00:00:00 | 00:00:00 | |
| SQ9EZE-15 | 2026-08-31 00:25:37 | 47.39517 | 19.69227 | 341° | 26km/h | 22319m | 6.4m/s | -55.8°C | 1.3% | 40.8hPa | 2.7V | 00:00:00 | 00:00:00 | 00:00:00 | |
| OM5KV | 2026-08-31 00:25:35 | 47.39506 | 19.69233 | 341° | 18km/h | 22308m | 5.5m/s | -55.8°C | 1.2% | 41.0hPa | 2.7V | 00:00:00 | 00:00:00 | 00:00:00 | |
| OM5KV | 2026-08-31 00:25:33 | 47.39499 | 19.69237 | 327° | 9km/h | 22295m | 5.4m/s | -55.8°C | 1.2% | 41.0hPa | 2.7V | 00:00:00 | 00:00:00 | 00:00:00 | |
| OM5KV | 2026-08-31 00:25:30 | 47.39494 | 19.69242 | 330° | 9km/h | 22277m | 5.0m/s | -55.7°C | 1.2% | 41.1hPa | 2.7V | 00:00:00 | 00:00:00 | 00:00:00 | |
| OM5KV | 2026-08-31 00:25:28 | 47.39490 | 19.69247 | 317° | 11km/h | 22266m | 6.0m/s | -55.7°C | 1.2% | 41.2hPa | 2.7V | 00:00:00 | 00:00:00 | 00:00:00 | |
| OM5KV | 2026-08-31 00:25:24 | 47.39467 | 19.69268 | 327° | 27km/h | 22237m | 5.8m/s | -55.7°C | 1.2% | 41.4hPa | 2.7V | 00:00:00 | 00:00:00 | 00:00:00 | |
| OM5KV | 2026-08-31 00:25:18 | 47.39445 | 19.69299 | 309° | 18km/h | 22208m | 5.0m/s | -55.5°C | 1.2% | 41.6hPa | 2.7V | 00:00:00 | 00:00:00 | 00:00:00 | |
| OM5KV | 2026-08-31 00:25:11 | 47.39438 | 19.69329 | 307° | 13km/h | 22168m | 6.5m/s | -55.4°C | 1.2% | 41.8hPa | 2.7V | 00:00:00 | 00:00:00 | 00:00:00 | |
| GYPAP8-17 | 2026-08-31 00:25:08 | 47.39430 | 19.69345 | 315° | 20km/h | 22150m | 6.9m/s | -55.4°C | 1.2% | 41.9hPa | 2.7V | 00:00:00 | 00:00:00 | 00:00:00 | |
| OM5KV | 2026-08-31 00:25:07 | 47.39426 | 19.69350 | 314° | 22km/h | 22145m | 4.8m/s | -55.5°C | 1.2% | 42.0hPa | 2.7V | 00:00:00 | 00:00:00 | 00:00:00 | |
| OM5KV | 2026-08-31 00:25:02 | 47.39409 | 19.69394 | 297° | 26km/h | 22117m | 6.8m/s | -55.6°C | 1.2% | 42.2hPa | 2.7V | 00:00:00 | 00:00:00 | 00:00:00 | |
| OM5KV | 2026-08-31 00:24:58 | 47.39400 | 19.69420 | 289° | 18km/h | 22093m | 5.7m/s | -55.7°C | 1.3% | 42.3hPa | 2.7V | 00:00:00 | 00:00:00 | 00:00:00 | |
| OM5KV | 2026-08-31 00:24:53 | 47.39393 | 19.69458 | 281° | 26km/h | 22058m | 5.4m/s | -55.7°C | 1.3% | 42.6hPa | 2.7V | 00:00:00 | 00:00:00 | 00:00:00 | |
| OM5KV | 2026-08-31 00:24:50 | 47.39390 | 19.69478 | 288° | 27km/h | 22047m | 6.3m/s | -55.6°C | 1.3% | 42.6hPa | 2.7V | 00:00:00 | 00:00:00 | 00:00:00 | |
| OM5KV | 2026-08-31 00:24:46 | 47.39377 | 19.69513 | 305° | 27km/h | 22023m | 5.6m/s | -55.5°C | 1.3% | 42.8hPa | 2.7V | 00:00:00 | 00:00:00 | 00:00:00 | |
| OM5KV | 2026-08-31 00:24:44 | 47.39370 | 19.69528 | 305° | 22km/h | 22010m | 6.2m/s | -55.4°C | 1.2% | 42.9hPa | 2.7V | 00:00:00 | 00:00:00 | 00:00:00 | |
| OM5KV | 2026-08-31 00:24:40 | 47.39365 | 19.69558 | 262° | 22km/h | 21987m | 5.9m/s | -55.2°C | 1.2% | 43.0hPa | 2.7V | 00:00:00 | 00:00:00 | 00:00:00 | |
| OM5KV | 2026-08-31 00:24:38 | 47.39368 | 19.69573 | 252° | 20km/h | 21974m | 4.9m/s | -55.1°C | 1.2% | 43.1hPa | 2.7V | 00:00:00 | 00:00:00 | 00:00:00 | |
| OM5KV | 2026-08-31 00:24:32 | 47.39368 | 19.69617 | 303° | 18km/h | 21938m | 5.8m/s | -54.8°C | 1.2% | 43.4hPa | 2.7V | 00:00:00 | 00:00:00 | 00:00:00 | |
| OM5KV | 2026-08-31 00:24:29 | 47.39361 | 19.69636 | 294° | 18km/h | 21920m | 6.6m/s | -54.8°C | 1.2% | 43.5hPa | 2.7V | 00:00:00 | 00:00:00 | 00:00:00 | |
| OM5KV | 2026-08-31 00:24:23 | 47.39361 | 19.69678 | 259° | 18km/h | 21884m | 7.3m/s | -54.8°C | 1.2% | 43.7hPa | 2.7V | 00:00:00 | 00:00:00 | 00:00:00 | |
| OM5KV | 2026-08-31 00:24:21 | 47.39363 | 19.69689 | 267° | 15km/h | 21872m | 6.2m/s | -55.0°C | 1.2% | 43.8hPa | 2.7V | 00:00:00 | 00:00:00 | 00:00:00 | |
| OM5KV | 2026-08-31 00:24:17 | 47.39360 | 19.69709 | 291° | 11km/h | 21846m | 5.8m/s | -55.2°C | 1.2% | 44.0hPa | 2.7V | 00:00:00 | 00:00:00 | 00:00:00 | |
| OM5KV | 2026-08-31 00:24:10 | 47.39364 | 19.69749 | 254° | 18km/h | 21806m | 6.0m/s | -55.2°C | 1.2% | 44.3hPa | 2.7V | 00:00:00 | 00:00:00 | 00:00:00 | |
| OM5KV | 2026-08-31 00:24:06 | 47.39369 | 19.69772 | 233° | 15km/h | 21780m | 6.1m/s | -55.2°C | 1.2% | 44.5hPa | 2.7V | 00:00:00 | 00:00:00 | 00:00:00 | |
| SQ9EZE-15 | 2026-08-31 00:24:05 | 47.39372 | 19.69776 | 226° | 15km/h | 21775m | 5.1m/s | -55.2°C | 0% | 0hPa | 2.7V | 00:00:00 | 00:00:00 | 00:00:00 | |
| OM5KV | 2026-08-31 00:24:04 | 47.39375 | 19.69780 | 231° | 16km/h | 21769m | 6.9m/s | -55.2°C | 1.2% | 44.6hPa | 2.7V | 00:00:00 | 00:00:00 | 00:00:00 | |
| GYPAP8-17 | 2026-08-31 00:24:03 | 47.39377 | 19.69785 | 232° | 16km/h | 21763m | 5.7m/s | -55.2°C | 1.2% | 44.6hPa | 2.7V | 00:00:00 | 00:00:00 | 00:00:00 | |
| OM5KV | 2026-08-31 00:24:01 | 47.39381 | 19.69793 | 230° | 11km/h | 21750m | 6.8m/s | -55.2°C | 1.2% | 44.7hPa | 2.7V | 00:00:00 | 00:00:00 | 00:00:00 | |
| OM5KV | 2026-08-31 00:23:56 | 47.39386 | 19.69813 | 254° | 15km/h | 21719m | 7.1m/s | -55.0°C | 1.2% | 44.9hPa | 2.7V | 00:00:00 | 00:00:00 | 00:00:00 | |
| OM5KV | 2026-08-31 00:23:53 | 47.39392 | 19.69827 | 236° | 16km/h | 21700m | 7.5m/s | -55.0°C | 1.2% | 45.0hPa | 2.7V | 00:00:00 | 00:00:00 | 00:00:00 | |
| OM5KV | 2026-08-31 00:23:47 | 47.39408 | 19.69842 | 210° | 9km/h | 21663m | 5.5m/s | -54.8°C | 1.2% | 45.3hPa | 2.7V | 00:00:00 | 00:00:00 | 00:00:00 | |
| SQ9EZE-15 | 2026-08-31 00:23:44 | 47.39413 | 19.69845 | 203° | 4km/h | 21644m | 5.8m/s | 0°C | 0% | 0hPa | 2.7V | 00:00:00 | 00:00:00 | 00:00:00 | |
| OM5KV | 2026-08-31 00:23:41 | 47.39415 | 19.69851 | 252° | 7km/h | 21626m | 4.9m/s | -54.7°C | 1.2% | 45.6hPa | 2.7V | 00:00:00 | 00:00:00 | 00:00:00 | |
| OM5KV | 2026-08-31 00:23:39 | 47.39417 | 19.69855 | 210° | 7km/h | 21613m | 6.1m/s | -54.7°C | 1.2% | 45.6hPa | 2.7V | 00:00:00 | 00:00:00 | 00:00:00 | |
| OM5KV | 2026-08-31 00:23:35 | 47.39428 | 19.69864 | 209° | 16km/h | 21590m | 5.2m/s | -54.7°C | 1.2% | 45.8hPa | 2.7V | 00:00:00 | 00:00:00 | 00:00:00 | |
| OM5KV | 2026-08-31 00:23:31 | 47.39449 | 19.69877 | 210° | 18km/h | 21559m | 5.0m/s | -54.7°C | 1.2% | 46.0hPa | 2.7V | 00:00:00 | 00:00:00 | 00:00:00 | |
| OM5KV | 2026-08-31 00:23:26 | 47.39463 | 19.69889 | 219° | 16km/h | 21535m | 6.9m/s | -54.7°C | 1.2% | 46.2hPa | 2.7V | 00:00:00 | 00:00:00 | 00:00:00 | |
| SQ9EZE-15 | 2026-08-31 00:23:24 | 47.39469 | 19.69897 | 228° | 15km/h | 21523m | 5.2m/s | 0°C | 0% | 0hPa | 2.7V | 00:00:00 | 00:00:00 | 00:00:00 | |
| OM5KV | 2026-08-31 00:23:20 | 47.39480 | 19.69904 | 196° | 15km/h | 21500m | 6.2m/s | -54.8°C | 1.2% | 46.5hPa | 2.7V | 00:00:00 | 00:00:00 | 00:00:00 | |
| OM5KV | 2026-08-31 00:23:15 | 47.39496 | 19.69916 | 204° | 9km/h | 21470m | 5.3m/s | -54.7°C | 1.2% | 46.6hPa | 2.7V | 00:00:00 | 00:00:00 | 00:00:00 | |
| OM5KV | 2026-08-31 00:23:14 | 47.39499 | 19.69917 | 196° | 9km/h | 21465m | 6.1m/s | -54.7°C | 1.2% | 46.7hPa | 2.7V | 00:00:00 | 00:00:00 | 00:00:00 | |
| OM5KV | 2026-08-31 00:23:09 | 47.39511 | 19.69913 | 133° | 9km/h | 21434m | 5.7m/s | -54.6°C | 1.2% | 47.0hPa | 2.7V | 00:00:00 | 00:00:00 | 00:00:00 | |
| OM5KV | 2026-08-31 00:23:03 | 47.39511 | 19.69905 | 338° | 4km/h | 21397m | 7.0m/s | -54.4°C | 1.2% | 47.2hPa | 2.7V | 00:00:00 | 00:00:00 | 00:00:00 | |
| GYPAP8-17 | 2026-08-31 00:23:00 | 47.39512 | 19.69909 | 184° | 4km/h | 21379m | 6.9m/s | -54.4°C | 1.2% | 47.3hPa | 2.7V | 00:00:00 | 00:00:00 | 00:00:00 | |
| OM5KV | 2026-08-31 00:22:57 | 47.39518 | 19.69904 | 151° | 13km/h | 21361m | 7.2m/s | -54.5°C | 1.2% | 47.5hPa | 2.7V | 00:00:00 | 00:00:00 | 00:00:00 | |
| OM5KV | 2026-08-31 00:22:56 | 47.39521 | 19.69901 | 147° | 15km/h | 21354m | 5.7m/s | -54.5°C | 1.2% | 47.5hPa | 2.7V | 00:00:00 | 00:00:00 | 00:00:00 | |
| LZ4TU-5 | 2026-08-31 00:22:55 | 47.39524 | 19.69897 | 132° | 15km/h | 21348m | 6.4m/s | -54.4°C | 0% | 0hPa | 2.7V | 00:00:00 | 00:00:00 | 00:00:00 | |
| OM5KV | 2026-08-31 00:22:51 | 47.39525 | 19.69881 | 52° | 7km/h | 21325m | 5.8m/s | -54.3°C | 1.2% | 47.7hPa | 2.7V | 00:00:00 | 00:00:00 | 00:00:00 | |
| OM5KV | 2026-08-31 00:22:50 | 47.39524 | 19.69880 | 28° | 7km/h | 21320m | 4.4m/s | -54.2°C | 1.2% | 47.8hPa | 2.7V | 00:00:00 | 00:00:00 | 00:00:00 | |
| OM5KV | 2026-08-31 00:22:45 | 47.39516 | 19.69870 | 68° | 5km/h | 21291m | 5.8m/s | -54.1°C | 1.2% | 48.0hPa | 2.7V | 00:00:00 | 00:00:00 | 00:00:00 | |
| OM5KV | 2026-08-31 00:22:44 | 47.39516 | 19.69868 | 75° | 7km/h | 21286m | 4.7m/s | -54.2°C | 1.2% | 48.0hPa | 2.7V | 00:00:00 | 00:00:00 | 00:00:00 | |
| OM5KV | 2026-08-31 00:22:39 | 47.39511 | 19.69847 | 83° | 11km/h | 21256m | 5.1m/s | -54.2°C | 1.1% | 48.3hPa | 2.7V | 00:00:00 | 00:00:00 | 00:00:00 | |
| OM5KV | 2026-08-31 00:22:33 | 47.39508 | 19.69824 | 84° | 9km/h | 21221m | 4.6m/s | -54.1°C | 1.1% | 48.5hPa | 2.7V | 00:00:00 | 00:00:00 | 00:00:00 | |
| OM5KV | 2026-08-31 00:22:28 | 47.39498 | 19.69800 | 40° | 18km/h | 21193m | 6.9m/s | -54.2°C | 1.2% | 48.7hPa | 2.7V | 00:00:00 | 00:00:00 | 00:00:00 | |
| OM5KV | 2026-08-31 00:22:23 | 47.39479 | 19.69782 | 32° | 13km/h | 21164m | 7.1m/s | -54.1°C | 1.1% | 49.0hPa | 2.7V | 00:00:00 | 00:00:00 | 00:00:00 | |
| OM5KV | 2026-08-31 00:22:21 | 47.39474 | 19.69778 | 25° | 9km/h | 21153m | 4.5m/s | -54.1°C | 1.1% | 49.0hPa | 2.7V | 00:00:00 | 00:00:00 | 00:00:00 | |
| OM5KV | 2026-08-31 00:22:18 | 47.39462 | 19.69766 | 28° | 18km/h | 21131m | 6.3m/s | -54.2°C | 1.2% | 49.2hPa | 2.7V | 00:00:00 | 00:00:00 | 00:00:00 | |
| OM5KV | 2026-08-31 00:22:15 | 47.39453 | 19.69762 | 11° | 22km/h | 21118m | 4.9m/s | -54.2°C | 1.2% | 49.3hPa | 2.7V | 00:00:00 | 00:00:00 | 00:00:00 | |
| OM5KV | 2026-08-31 00:22:10 | 47.39422 | 19.69759 | 349° | 24km/h | 21088m | 5.5m/s | -54.3°C | 1.2% | 49.6hPa | 2.7V | 00:00:00 | 00:00:00 | 00:00:00 | |
| OM5KV | 2026-08-31 00:22:05 | 47.39397 | 19.69765 | 359° | 16km/h | 21057m | 5.0m/s | -54.3°C | 1.2% | 49.8hPa | 2.7V | 00:00:00 | 00:00:00 | 00:00:00 | |
| OM5KV | 2026-08-31 00:22:00 | 47.39377 | 19.69753 | 15° | 18km/h | 21029m | 6.0m/s | -54.2°C | 1.1% | 50.0hPa | 2.7V | 00:00:00 | 00:00:00 | 00:00:00 | |
| GYPAP8-17 | 2026-08-31 00:21:57 | 47.39365 | 19.69752 | 1° | 15km/h | 21011m | 6.0m/s | -54.1°C | 1.2% | 50.1hPa | 2.7V | 00:00:00 | 00:00:00 | 00:00:00 | |
| OM5KV | 2026-08-31 00:21:54 | 47.39357 | 19.69756 | 320° | 9km/h | 20993m | 5.0m/s | -54.1°C | 1.1% | 50.3hPa | 2.7V | 00:00:00 | 00:00:00 | 00:00:00 | |
| OM5KV | 2026-08-31 00:21:53 | 47.39356 | 19.69758 | 325° | 5km/h | 20988m | 5.1m/s | -54.1°C | 1.1% | 50.3hPa | 2.7V | 00:00:00 | 00:00:00 | 00:00:00 | |
| OM5KV | 2026-08-31 00:21:49 | 47.39350 | 19.69752 | 44° | 9km/h | 20967m | 5.8m/s | -54.2°C | 1.2% | 50.5hPa | 2.7V | 00:00:00 | 00:00:00 | 00:00:00 | |
| OM5KV | 2026-08-31 00:21:48 | 47.39349 | 19.69750 | 36° | 7km/h | 20961m | 5.1m/s | -54.3°C | 1.1% | 50.6hPa | 2.7V | 00:00:00 | 00:00:00 | 00:00:00 | |
| OM5KV | 2026-08-31 00:21:44 | 47.39345 | 19.69743 | 86° | 7km/h | 20940m | 5.4m/s | -54.2°C | 1.1% | 50.7hPa | 2.7V | 00:00:00 | 00:00:00 | 00:00:00 | |
| OM5KV | 2026-08-31 00:21:42 | 47.39343 | 19.69739 | 30° | 7km/h | 20929m | 6.8m/s | -54.2°C | 1.1% | 50.8hPa | 2.7V | 00:00:00 | 00:00:00 | 00:00:00 | |
| OM5KV | 2026-08-31 00:21:38 | 47.39336 | 19.69737 | 13° | 4km/h | 20906m | 4.5m/s | -54.6°C | 1.2% | 51.0hPa | 2.7V | 00:00:00 | 00:00:00 | 00:00:00 | |
| OM5KV | 2026-08-31 00:21:37 | 47.39334 | 19.69737 | 361° | 5km/h | 20900m | 6.0m/s | -54.7°C | 1.2% | 51.0hPa | 2.7V | 00:00:00 | 00:00:00 | 00:00:00 | |
| OM5KV | 2026-08-31 00:21:34 | 47.39334 | 19.69736 | 148° | 5km/h | 20878m | 4.8m/s | -54.9°C | 1.2% | 51.2hPa | 2.7V | 00:00:00 | 00:00:00 | 00:00:00 | |
| OM5KV | 2026-08-31 00:21:30 | 47.39336 | 19.69730 | 83° | 7km/h | 20861m | 4.7m/s | -54.9°C | 1.2% | 51.3hPa | 2.7V | 00:00:00 | 00:00:00 | 00:00:00 | |
| OM5KV | 2026-08-31 00:21:26 | 47.39333 | 19.69714 | 57° | 13km/h | 20839m | 6.3m/s | -55.0°C | 1.2% | 51.5hPa | 2.7V | 00:00:00 | 00:00:00 | 00:00:00 | |
| OM5KV | 2026-08-31 00:21:25 | 47.39329 | 19.69708 | 29° | 11km/h | 20828m | 4.1m/s | -55.0°C | 1.2% | 51.6hPa | 2.7V | 00:00:00 | 00:00:00 | 00:00:00 | |
| OM5KV | 2026-08-31 00:21:21 | 47.39325 | 19.69702 | 109° | 7km/h | 20813m | 5.1m/s | -55.1°C | 1.2% | 51.7hPa | 2.7V | 00:00:00 | 00:00:00 | 00:00:00 | |
| OM5KV | 2026-08-31 00:21:19 | 47.39327 | 19.69697 | 127° | 7km/h | 20804m | 5.5m/s | -55.2°C | 1.2% | 51.8hPa | 2.7V | 00:00:00 | 00:00:00 | 00:00:00 | |
| OM5KV | 2026-08-31 00:21:15 | 47.39325 | 19.69689 | 46° | 11km/h | 20781m | 5.5m/s | -55.4°C | 1.2% | 52.0hPa | 2.7V | 00:00:00 | 00:00:00 | 00:00:00 | |
| LZ4TU-5 | 2026-08-31 00:21:10 | 47.39304 | 19.69678 | 14° | 16km/h | 20751m | 6.3m/s | -55.6°C | 0% | 0hPa | 2.7V | 00:00:00 | 00:00:00 | 00:00:00 | |
| OM5KV | 2026-08-31 00:21:08 | 47.39297 | 19.69677 | 356° | 13km/h | 20740m | 6.6m/s | -55.7°C | 1.2% | 52.3hPa | 2.7V | 00:00:00 | 00:00:00 | 00:00:00 | |
| OM5KV | 2026-08-31 00:21:07 | 47.39294 | 19.69678 | 341° | 11km/h | 20734m | 5.9m/s | -55.7°C | 1.2% | 52.4hPa | 2.7V | 00:00:00 | 00:00:00 | 00:00:00 | |
| OM5KV | 2026-08-31 00:21:03 | 47.39285 | 19.69682 | 348° | 11km/h | 20713m | 6.3m/s | -55.9°C | 1.3% | 52.5hPa | 2.7V | 00:00:00 | 00:00:00 | 00:00:00 | |
| OM5KV | 2026-08-31 00:21:02 | 47.39277 | 19.69684 | 351° | 20km/h | 20702m | 4.6m/s | -56.0°C | 1.3% | 52.6hPa | 2.7V | 00:00:00 | 00:00:00 | 00:00:00 | |
| OM5KV | 2026-08-31 00:20:57 | 47.39257 | 19.69687 | 350° | 20km/h | 20680m | 7.0m/s | -56.0°C | 1.3% | 52.8hPa | 2.7V | 00:00:00 | 00:00:00 | 00:00:00 | |
| OM5KV | 2026-08-31 00:20:55 | 47.39247 | 19.69692 | 338° | 18km/h | 20668m | 5.9m/s | -55.9°C | 1.3% | 52.9hPa | 2.7V | 00:00:00 | 00:00:00 | 00:00:00 | |
| OM5KV | 2026-08-31 00:20:52 | 47.39234 | 19.69704 | 321° | 15km/h | 20646m | 4.2m/s | -55.9°C | 1.3% | 53.1hPa | 2.7V | 00:00:00 | 00:00:00 | 00:00:00 | |
| OM5KV | 2026-08-31 00:20:50 | 47.39231 | 19.69708 | 326° | 13km/h | 20641m | 5.6m/s | -55.9°C | 1.2% | 53.1hPa | 2.7V | 00:00:00 | 00:00:00 | 00:00:00 | |
| OM5KV | 2026-08-31 00:20:44 | 47.39208 | 19.69718 | 358° | 20km/h | 20607m | 5.9m/s | -55.9°C | 1.2% | 53.4hPa | 2.7V | 00:00:00 | 00:00:00 | 00:00:00 | |
| OM5KV | 2026-08-31 00:20:39 | 47.39182 | 19.69723 | 355° | 18km/h | 20580m | 5.7m/s | -55.9°C | 1.3% | 53.7hPa | 2.7V | 00:00:00 | 00:00:00 | 00:00:00 | |
| OM5KV | 2026-08-31 00:20:37 | 47.39175 | 19.69725 | 336° | 13km/h | 20571m | 5.6m/s | -55.9°C | 1.3% | 53.7hPa | 2.7V | 00:00:00 | 00:00:00 | 00:00:00 | |
| OM5KV | 2026-08-31 00:20:34 | 47.39168 | 19.69736 | 303° | 11km/h | 20554m | 6.6m/s | -55.8°C | 1.3% | 53.9hPa | 2.7V | 00:00:00 | 00:00:00 | 00:00:00 | |
| OM5KV | 2026-08-31 00:20:31 | 47.39162 | 19.69749 | 311° | 13km/h | 20530m | 4.5m/s | -55.8°C | 1.3% | 54.1hPa | 2.7V | 00:00:00 | 00:00:00 | 00:00:00 | |
| OM5KV | 2026-08-31 00:20:28 | 47.39156 | 19.69755 | 333° | 15km/h | 20519m | 5.7m/s | -55.8°C | 1.3% | 54.2hPa | 2.7V | 00:00:00 | 00:00:00 | 00:00:00 | |
| GYPAP8-17 | 2026-08-31 00:20:27 | 47.39150 | 19.69761 | 322° | 16km/h | 20508m | 6.6m/s | -55.8°C | 1.2% | 54.3hPa | 2.7V | 00:00:00 | 00:00:00 | 00:00:00 | |
| OM5KV | 2026-08-31 00:20:24 | 47.39144 | 19.69770 | 312° | 15km/h | 20497m | 5.5m/s | -55.7°C | 1.2% | 54.4hPa | 2.7V | 00:00:00 | 00:00:00 | 00:00:00 | |
| OM5KV | 2026-08-31 00:20:15 | 47.39130 | 19.69792 | 316° | 11km/h | 20445m | 5.1m/s | -55.9°C | 1.3% | 54.8hPa | 2.7V | 00:00:00 | 00:00:00 | 00:00:00 | |
| OM5KV | 2026-08-31 00:20:13 | 47.39127 | 19.69797 | 309° | 9km/h | 20434m | 6.9m/s | -55.8°C | 1.3% | 54.9hPa | 2.7V | 00:00:00 | 00:00:00 | 00:00:00 | |
| OM5KV | 2026-08-31 00:20:09 | 47.39125 | 19.69812 | 267° | 13km/h | 20412m | 5.5m/s | -55.8°C | 1.2% | 55.1hPa | 2.7V | 00:00:00 | 00:00:00 | 00:00:00 | |
| OM5KV | 2026-08-31 00:20:08 | 47.39126 | 19.69816 | 261° | 11km/h | 20406m | 6.6m/s | -55.8°C | 1.2% | 55.1hPa | 2.7V | 00:00:00 | 00:00:00 | 00:00:00 | |
| OM5KV | 2026-08-31 00:20:02 | 47.39130 | 19.69830 | 222° | 2km/h | 20373m | 4.2m/s | -55.8°C | 1.3% | 55.4hPa | 2.7V | 00:00:00 | 00:00:00 | 00:00:00 | |
| OM5KV | 2026-08-31 00:19:57 | 47.39125 | 19.69843 | 320° | 13km/h | 20346m | 5.7m/s | -55.9°C | 1.3% | 55.7hPa | 2.7V | 00:00:00 | 00:00:00 | 00:00:00 | |
| OM5KV | 2026-08-31 00:19:45 | 47.39115 | 19.69891 | 291° | 7km/h | 20278m | 5.0m/s | -55.5°C | 1.2% | 56.2hPa | 2.7V | 00:00:00 | 00:00:00 | 00:00:00 | |
| OM5KV | 2026-08-31 00:19:39 | 47.39114 | 19.69916 | 286° | 16km/h | 20246m | 4.8m/s | -55.4°C | 1.2% | 56.5hPa | 2.7V | 00:00:00 | 00:00:00 | 00:00:00 | |
| OM5KV | 2026-08-31 00:19:35 | 47.39107 | 19.69943 | 303° | 18km/h | 20222m | 5.5m/s | -55.5°C | 1.2% | 56.7hPa | 2.7V | 00:00:00 | 00:00:00 | 00:00:00 | |
| LZ4TU-5 | 2026-08-31 00:19:34 | 47.39105 | 19.69949 | 300° | 18km/h | 20217m | 5.5m/s | -55.5°C | 0% | 0hPa | 2.7V | 00:00:00 | 00:00:00 | 00:00:00 | |
| LZ4TU-5 | 2026-08-31 00:19:30 | 47.39105 | 19.69963 | 193° | 7km/h | 20193m | 5.4m/s | -55.5°C | 0% | 0hPa | 2.7V | 00:00:00 | 00:00:00 | 00:00:00 | |
| OM5KV | 2026-08-31 00:19:29 | 47.39107 | 19.69964 | 190° | 9km/h | 20188m | 5.3m/s | -55.5°C | 1.2% | 57.1hPa | 2.7V | 00:00:00 | 00:00:00 | 00:00:00 | |
| OM5KV | 2026-08-31 00:19:28 | 47.39109 | 19.69964 | 200° | 9km/h | 20182m | 6.4m/s | -55.5°C | 1.3% | 57.1hPa | 2.7V | 00:00:00 | 00:00:00 | 00:00:00 | |
| OM5KV | 2026-08-31 00:19:24 | 47.39113 | 19.69971 | 286° | 7km/h | 20159m | 5.1m/s | -55.5°C | 1.3% | 57.3hPa | 2.7V | 00:00:00 | 00:00:00 | 00:00:00 | |
| OM5KV | 2026-08-31 00:19:23 | 47.39112 | 19.69975 | 289° | 9km/h | 20153m | 6.6m/s | -55.5°C | 1.3% | 57.3hPa | 2.7V | 00:00:00 | 00:00:00 | 00:00:00 | |
| GYPAP8-17 | 2026-08-31 00:19:22 | 47.39112 | 19.69978 | 299° | 11km/h | 20148m | 4.6m/s | -55.5°C | 1.2% | 57.4hPa | 2.7V | 00:00:00 | 00:00:00 | 00:00:00 | |
| OM5KV | 2026-08-31 00:19:18 | 47.39108 | 19.69983 | 114° | 2km/h | 20125m | 7.2m/s | -55.4°C | 1.3% | 57.6hPa | 2.7V | 00:00:00 | 00:00:00 | 00:00:00 | |
| OM5KV | 2026-08-31 00:19:17 | 47.39108 | 19.69982 | 140° | 7km/h | 20119m | 5.0m/s | -55.4°C | 1.2% | 57.7hPa | 2.7V | 00:00:00 | 00:00:00 | 00:00:00 | |
| OM5KV | 2026-08-31 00:19:11 | 47.39113 | 19.69966 | 90° | 7km/h | 20084m | 5.7m/s | -55.5°C | 1.2% | 58.0hPa | 2.7V | 00:00:00 | 00:00:00 | 00:00:00 | |
| OM5KV | 2026-08-31 00:19:07 | 47.39108 | 19.69956 | 55° | 7km/h | 20060m | 5.0m/s | -55.3°C | 1.2% | 58.2hPa | 2.7V | 00:00:00 | 00:00:00 | 00:00:00 | |
| OM5KV | 2026-08-31 00:18:56 | 47.39095 | 19.69926 | 48° | 16km/h | 19994m | 6.1m/s | -55.1°C | 1.2% | 58.8hPa | 2.7V | 00:00:00 | 00:00:00 | 00:00:00 | |
| OM5KV | 2026-08-31 00:18:50 | 47.39077 | 19.69900 | 50° | 15km/h | 19959m | 7.2m/s | -55.2°C | 1.2% | 59.1hPa | 2.7V | 00:00:00 | 00:00:00 | 00:00:00 | |
| OM5KV | 2026-08-31 00:18:45 | 47.39068 | 19.69877 | 64° | 15km/h | 19930m | 6.7m/s | -55.3°C | 1.2% | 59.4hPa | 2.7V | 00:00:00 | 00:00:00 | 00:00:00 | |
| OM5KV | 2026-08-31 00:18:40 | 47.39055 | 19.69853 | 46° | 18km/h | 19901m | 5.2m/s | -55.4°C | 1.2% | 59.7hPa | 2.7V | 00:00:00 | 00:00:00 | 00:00:00 | |
| OM5KV | 2026-08-31 00:18:37 | 47.39044 | 19.69830 | 66° | 16km/h | 19878m | 6.7m/s | -55.5°C | 1.2% | 59.9hPa | 2.7V | 00:00:00 | 00:00:00 | 00:00:00 | |
| OM5KV | 2026-08-31 00:18:34 | 47.39041 | 19.69822 | 49° | 11km/h | 19867m | 5.7m/s | -55.6°C | 1.2% | 60.0hPa | 2.7V | 00:00:00 | 00:00:00 | 00:00:00 | |
| OM5KV | 2026-08-31 00:18:31 | 47.39033 | 19.69815 | 24° | 13km/h | 19849m | 6.2m/s | -56.0°C | 1.3% | 60.2hPa | 2.7V | 00:00:00 | 00:00:00 | 00:00:00 | |
| OM5KV | 2026-08-31 00:18:29 | 47.39028 | 19.69811 | 40° | 13km/h | 19838m | 4.9m/s | -56.0°C | 1.3% | 60.3hPa | 2.7V | 00:00:00 | 00:00:00 | 00:00:00 | |
| OM5KV | 2026-08-31 00:18:25 | 47.39016 | 19.69791 | 58° | 20km/h | 19815m | 5.5m/s | -55.9°C | 1.3% | 60.5hPa | 2.7V | 00:00:00 | 00:00:00 | 00:00:00 | |
| OM5KV | 2026-08-31 00:18:23 | 47.39009 | 19.69780 | 41° | 20km/h | 19803m | 6.7m/s | -55.9°C | 1.3% | 60.6hPa | 2.7V | 00:00:00 | 00:00:00 | 00:00:00 | |
| OM5KV | 2026-08-31 00:18:20 | 47.38995 | 19.69769 | 21° | 13km/h | 19780m | 5.6m/s | -55.8°C | 1.2% | 60.9hPa | 2.7V | 00:00:00 | 00:00:00 | 00:00:00 | |
| OM5KV | 2026-08-31 00:18:17 | 47.38988 | 19.69766 | 23° | 13km/h | 19768m | 4.6m/s | -55.9°C | 1.3% | 61.0hPa | 2.7V | 00:00:00 | 00:00:00 | 00:00:00 | |
| OM5KV | 2026-08-31 00:18:13 | 47.38983 | 19.69754 | 70° | 11km/h | 19745m | 7.0m/s | -56.0°C | 1.2% | 61.2hPa | 2.7V | 00:00:00 | 00:00:00 | 00:00:00 | |
| OM5KV | 2026-08-31 00:18:11 | 47.38980 | 19.69748 | 59° | 9km/h | 19734m | 5.0m/s | -55.9°C | 1.3% | 61.3hPa | 2.7V | 00:00:00 | 00:00:00 | 00:00:00 | |
| GYPAP8-17 | 2026-08-31 00:18:09 | 47.38978 | 19.69743 | 44° | 7km/h | 19722m | 5.2m/s | -55.9°C | 1.3% | 61.4hPa | 2.7V | 00:00:00 | 00:00:00 | 00:00:00 | |
| OM5KV | 2026-08-31 00:18:07 | 47.38975 | 19.69740 | 29° | 11km/h | 19711m | 4.7m/s | -55.8°C | 1.3% | 61.5hPa | 2.7V | 00:00:00 | 00:00:00 | 00:00:00 | |
| OM5KV | 2026-08-31 00:18:05 | 47.38971 | 19.69736 | 51° | 7km/h | 19699m | 6.1m/s | -55.8°C | 1.3% | 61.6hPa | 2.7V | 00:00:00 | 00:00:00 | 00:00:00 | |
| OM5KV | 2026-08-31 00:18:01 | 47.38968 | 19.69724 | 84° | 9km/h | 19676m | 5.6m/s | -55.9°C | 1.3% | 61.8hPa | 2.7V | 00:00:00 | 00:00:00 | 00:00:00 | |
| OM5KV | 2026-08-31 00:17:59 | 47.38969 | 19.69718 | 117° | 5km/h | 19664m | 4.5m/s | -55.9°C | 1.3% | 62.0hPa | 2.7V | 00:00:00 | 00:00:00 | 00:00:00 | |
| OM5KV | 2026-08-31 00:17:55 | 47.38969 | 19.69713 | 65° | 4km/h | 19642m | 6.4m/s | -55.8°C | 1.3% | 62.2hPa | 2.7V | 00:00:00 | 00:00:00 | 00:00:00 | |
| OM5KV | 2026-08-31 00:17:54 | 47.38968 | 19.69712 | 62° | 4km/h | 19636m | 4.9m/s | -55.9°C | 1.3% | 62.2hPa | 2.7V | 00:00:00 | 00:00:00 | 00:00:00 | |
| LZ4TU-5 | 2026-08-31 00:17:53 | 47.38968 | 19.69710 | 46° | 5km/h | 19630m | 6.9m/s | -55.9°C | 0% | 0hPa | 2.7V | 00:00:00 | 00:00:00 | 00:00:00 | |
| LZ4TU-5 | 2026-08-31 00:17:49 | 47.38965 | 19.69707 | 0° | 0km/h | 19607m | 4.0m/s | -55.9°C | 0% | 0hPa | 2.7V | 00:00:00 | 00:00:00 | 00:00:00 | |
| OM5KV | 2026-08-31 00:17:48 | 47.38965 | 19.69707 | 261° | 2km/h | 19602m | 6.1m/s | -56.0°C | 1.3% | 62.6hPa | 2.7V | 00:00:00 | 00:00:00 | 00:00:00 | |
| OM5KV | 2026-08-31 00:17:44 | 47.38966 | 19.69711 | 210° | 2km/h | 19580m | 3.7m/s | -56.0°C | 1.3% | 62.8hPa | 2.7V | 00:00:00 | 00:00:00 | 00:00:00 | |
| OM5KV | 2026-08-31 00:17:43 | 47.38966 | 19.69712 | 318° | 5km/h | 19569m | 6.3m/s | -56.0°C | 1.3% | 62.9hPa | 2.7V | 00:00:00 | 00:00:00 | 00:00:00 | |
| OM5KV | 2026-08-31 00:17:37 | 47.38962 | 19.69716 | 300° | 2km/h | 19541m | 5.6m/s | -56.0°C | 1.3% | 63.2hPa | 2.7V | 00:00:00 | 00:00:00 | 00:00:00 | |
| OM5KV | 2026-08-31 00:17:26 | 47.38985 | 19.69711 | 45° | 2km/h | 19482m | 5.5m/s | -56.1°C | 1.3% | 63.8hPa | 2.7V | 00:00:00 | 00:00:00 | 00:00:00 | |
| OM5KV | 2026-08-31 00:17:22 | 47.38989 | 19.69706 | 170° | 11km/h | 19461m | 5.7m/s | -56.0°C | 1.3% | 64.0hPa | 2.7V | 00:00:00 | 00:00:00 | 00:00:00 | |
| OM5KV | 2026-08-31 00:17:21 | 47.38993 | 19.69706 | 181° | 13km/h | 19454m | 6.1m/s | -56.0°C | 1.3% | 64.0hPa | 2.7V | 00:00:00 | 00:00:00 | 00:00:00 | |
| OM5KV | 2026-08-31 00:17:16 | 47.39009 | 19.69700 | 138° | 9km/h | 19428m | 5.5m/s | -56.0°C | 1.3% | 64.3hPa | 2.7V | 00:00:00 | 00:00:00 | 00:00:00 | |
| OM5KV | 2026-08-31 00:17:15 | 47.39010 | 19.69697 | 107° | 5km/h | 19422m | 6.4m/s | -56.0°C | 1.3% | 64.4hPa | 2.7V | 00:00:00 | 00:00:00 | 00:00:00 | |
| OM5KV | 2026-08-31 00:17:10 | 47.39003 | 19.69678 | 57° | 13km/h | 19394m | 6.8m/s | -56.1°C | 1.3% | 64.6hPa | 2.7V | 00:00:00 | 00:00:00 | 00:00:00 | |
| OM5KV | 2026-08-31 00:17:04 | 47.39006 | 19.69656 | 110° | 11km/h | 19363m | 5.4m/s | -56.5°C | 1.3% | 65.0hPa | 2.7V | 00:00:00 | 00:00:00 | 00:00:00 | |
| OM5KV | 2026-08-31 00:16:59 | 47.39001 | 19.69624 | 66° | 26km/h | 19337m | 5.6m/s | -56.5°C | 1.3% | 65.2hPa | 2.7V | 00:00:00 | 00:00:00 | 00:00:00 | |
| OM5KV | 2026-08-31 00:16:58 | 47.38998 | 19.69616 | 65° | 24km/h | 19331m | 6.9m/s | -56.5°C | 1.3% | 65.3hPa | 2.7V | 00:00:00 | 00:00:00 | 00:00:00 | |
| GYPAP8-17 | 2026-08-31 00:16:55 | 47.38992 | 19.69592 | 77° | 22km/h | 19314m | 4.9m/s | -56.6°C | 1.4% | 65.5hPa | 2.7V | 00:00:00 | 00:00:00 | 00:00:00 | |
| OM5KV | 2026-08-31 00:16:53 | 47.38990 | 19.69578 | 77° | 16km/h | 19302m | 5.8m/s | -56.6°C | 1.4% | 65.6hPa | 2.7V | 00:00:00 | 00:00:00 | 00:00:00 | |
| OM5KV | 2026-08-31 00:16:47 | 47.38981 | 19.69539 | 69° | 20km/h | 19269m | 4.4m/s | -56.7°C | 1.4% | 66.0hPa | 2.7V | 00:00:00 | 00:00:00 | 00:00:00 | |
| OM5KV | 2026-08-31 00:16:41 | 47.38971 | 19.69493 | 70° | 20km/h | 19236m | 5.7m/s | -56.5°C | 1.3% | 66.3hPa | 2.7V | 00:00:00 | 00:00:00 | 00:00:00 | |
| OM5KV | 2026-08-31 00:16:37 | 47.38968 | 19.69469 | 105° | 13km/h | 19214m | 4.9m/s | -56.5°C | 1.3% | 66.5hPa | 2.7V | 00:00:00 | 00:00:00 | 00:00:00 | |
| OM5KV | 2026-08-31 00:16:35 | 47.38971 | 19.69459 | 119° | 18km/h | 19204m | 6.3m/s | -56.6°C | 1.4% | 66.6hPa | 2.7V | 00:00:00 | 00:00:00 | 00:00:00 | |
| OM5KV | 2026-08-31 00:16:32 | 47.38975 | 19.69431 | 83° | 20km/h | 19182m | 5.1m/s | -56.7°C | 1.3% | 66.8hPa | 2.7V | 00:00:00 | 00:00:00 | 00:00:00 | |
| OM5KV | 2026-08-31 00:16:29 | 47.38971 | 19.69415 | 70° | 27km/h | 19171m | 5.9m/s | -56.7°C | 1.3% | 67.0hPa | 2.7V | 00:00:00 | 00:00:00 | 00:00:00 | |
| OM5KV | 2026-08-31 00:16:25 | 47.38961 | 19.69379 | 69° | 20km/h | 19149m | 4.6m/s | -56.9°C | 1.4% | 67.2hPa | 2.7V | 00:00:00 | 00:00:00 | 00:00:00 | |
| OM5KV | 2026-08-31 00:16:24 | 47.38959 | 19.69372 | 72° | 20km/h | 19144m | 6.3m/s | -57.1°C | 1.4% | 67.2hPa | 2.7V | 00:00:00 | 00:00:00 | 00:00:00 | |
| OM5KV | 2026-08-31 00:16:09 | 47.38951 | 19.69236 | 86° | 22km/h | 19055m | 5.8m/s | -57.1°C | 1.4% | 68.2hPa | 2.7V | 00:00:00 | 00:00:00 | 00:00:00 | |
| LZ4TU-5 | 2026-08-31 00:16:04 | 47.38950 | 19.69206 | 93° | 18km/h | 19034m | 3.6m/s | 0°C | 0% | 0hPa | 2.7V | 00:00:00 | 00:00:00 | 00:00:00 | |
| OM5KV | 2026-08-31 00:16:02 | 47.38951 | 19.69189 | 94° | 27km/h | 19023m | 5.6m/s | -57.0°C | 1.4% | 68.6hPa | 2.7V | 00:00:00 | 00:00:00 | 00:00:00 | |
| OM5KV | 2026-08-31 00:15:56 | 47.38949 | 19.69127 | 60° | 26km/h | 18989m | 4.7m/s | -56.8°C | 1.4% | 68.9hPa | 2.7V | 00:00:00 | 00:00:00 | 00:00:00 | |
| OM5KV | 2026-08-31 00:15:51 | 47.38934 | 19.69095 | 66° | 20km/h | 18963m | 5.4m/s | -56.9°C | 1.4% | 69.2hPa | 2.7V | 00:00:00 | 00:00:00 | 00:00:00 | |
| OM5KV | 2026-08-31 00:15:46 | 47.38935 | 19.69051 | 102° | 26km/h | 18927m | 4.1m/s | -56.8°C | 1.4% | 69.6hPa | 2.7V | 00:00:00 | 00:00:00 | 00:00:00 | |
| GYPAP8-17 | 2026-08-31 00:15:45 | 47.38935 | 19.69051 | 102° | 26km/h | 18927m | 4.1m/s | -56.8°C | 1.4% | 69.6hPa | 2.7V | 00:00:00 | 00:00:00 | 00:00:00 | |
| OM5KV | 2026-08-31 00:15:39 | 47.38937 | 19.69005 | 70° | 16km/h | 18892m | 7.3m/s | -56.6°C | 1.4% | 69.9hPa | 2.7V | 00:00:00 | 00:00:00 | 00:00:00 | |
| OM5KV | 2026-08-31 00:15:35 | 47.38929 | 19.68987 | 62° | 18km/h | 18868m | 4.9m/s | -56.5°C | 1.4% | 70.2hPa | 2.7V | 00:00:00 | 00:00:00 | 00:00:00 | |
| OM5KV | 2026-08-31 00:15:29 | 47.38917 | 19.68947 | 68° | 27km/h | 18834m | 5.0m/s | -56.7°C | 1.3% | 70.6hPa | 2.7V | 00:00:00 | 00:00:00 | 00:00:00 | |
| OM5KV | 2026-08-31 00:15:27 | 47.38912 | 19.68929 | 67° | 24km/h | 18822m | 6.4m/s | -56.7°C | 1.4% | 70.8hPa | 2.7V | 00:00:00 | 00:00:00 | 00:00:00 | |
| OM5KV | 2026-08-31 00:15:23 | 47.38902 | 19.68899 | 67° | 22km/h | 18799m | 3.9m/s | -56.7°C | 1.4% | 71.0hPa | 2.7V | 00:00:00 | 00:00:00 | 00:00:00 | |
| OM5KV | 2026-08-31 00:15:21 | 47.38899 | 19.68887 | 69° | 15km/h | 18789m | 6.2m/s | -56.9°C | 1.4% | 71.1hPa | 2.7V | 00:00:00 | 00:00:00 | 00:00:00 | |
| OM5KV | 2026-08-31 00:15:17 | 47.38887 | 19.68862 | 46° | 29km/h | 18768m | 4.8m/s | -56.9°C | 1.4% | 71.4hPa | 2.7V | 00:00:00 | 00:00:00 | 00:00:00 | |
| OM5KV | 2026-08-31 00:15:12 | 47.38857 | 19.68825 | 46° | 31km/h | 18739m | 5.1m/s | -57.0°C | 1.3% | 71.7hPa | 2.7V | 00:00:00 | 00:00:00 | 00:00:00 | |
| OM5KV | 2026-08-31 00:15:06 | 47.38834 | 19.68794 | 33° | 16km/h | 18706m | 4.6m/s | -57.2°C | 1.4% | 72.1hPa | 2.7V | 00:00:00 | 00:00:00 | 00:00:00 | |
| OM5KV | 2026-08-31 00:14:57 | 47.38786 | 19.68755 | 34° | 26km/h | 18656m | 6.1m/s | -57.1°C | 1.4% | 72.6hPa | 2.7V | 00:00:00 | 00:00:00 | 00:00:00 | |
| OM5KV | 2026-08-31 00:14:55 | 47.38777 | 19.68747 | 26° | 20km/h | 18646m | 6.3m/s | -57.0°C | 1.4% | 72.7hPa | 2.7V | 00:00:00 | 00:00:00 | 00:00:00 | |
| OM5KV | 2026-08-31 00:14:51 | 47.38761 | 19.68740 | 33° | 15km/h | 18624m | 6.0m/s | -57.0°C | 1.4% | 73.0hPa | 2.7V | 00:00:00 | 00:00:00 | 00:00:00 | |
| OM5KV | 2026-08-31 00:14:49 | 47.38754 | 19.68732 | 38° | 16km/h | 18614m | 5.3m/s | -57.0°C | 1.4% | 73.1hPa | 2.7V | 00:00:00 | 00:00:00 | 00:00:00 | |
| OM5KV | 2026-08-31 00:14:46 | 47.38745 | 19.68722 | 43° | 15km/h | 18597m | 6.2m/s | -56.9°C | 1.4% | 73.3hPa | 2.7V | 00:00:00 | 00:00:00 | 00:00:00 | |
| OM5KV | 2026-08-31 00:14:42 | 47.38730 | 19.68710 | 13° | 20km/h | 18575m | 4.7m/s | -56.7°C | 1.4% | 73.6hPa | 2.7V | 00:00:00 | 00:00:00 | 00:00:00 | |
| OM5KV | 2026-08-31 00:14:40 | 47.38721 | 19.68707 | 18° | 16km/h | 18564m | 5.5m/s | -56.6°C | 1.4% | 73.7hPa | 2.7V | 00:00:00 | 00:00:00 | 00:00:00 | |
| OM5KV | 2026-08-31 00:14:36 | 47.38710 | 19.68703 | 30° | 5km/h | 18541m | 5.4m/s | -56.4°C | 1.4% | 74.0hPa | 2.7V | 00:00:00 | 00:00:00 | 00:00:00 | |
| OM5KV | 2026-08-31 00:14:34 | 47.38708 | 19.68699 | 69° | 7km/h | 18529m | 4.5m/s | -56.4°C | 1.4% | 74.1hPa | 2.7V | 00:00:00 | 00:00:00 | 00:00:00 | |
| OM5KV | 2026-08-31 00:14:30 | 47.38702 | 19.68690 | 37° | 13km/h | 18505m | 6.9m/s | -56.1°C | 1.4% | 74.4hPa | 2.7V | 00:00:00 | 00:00:00 | 00:00:00 | |
| OM5KV | 2026-08-31 00:14:25 | 47.38688 | 19.68679 | 41° | 11km/h | 18478m | 5.8m/s | -55.9°C | 1.3% | 74.7hPa | 2.7V | 00:00:00 | 00:00:00 | 00:00:00 | |
| OM5KV | 2026-08-31 00:14:23 | 47.38685 | 19.68673 | 61° | 11km/h | 18467m | 4.9m/s | -55.9°C | 1.3% | 74.8hPa | 2.7V | 00:00:00 | 00:00:00 | 00:00:00 | |
| OM5KV | 2026-08-31 00:14:19 | 47.38681 | 19.68660 | 85° | 11km/h | 18443m | 6.0m/s | -55.8°C | 1.3% | 75.1hPa | 2.7V | 00:00:00 | 00:00:00 | 00:00:00 | |
| OM5KV | 2026-08-31 00:14:18 | 47.38681 | 19.68656 | 73° | 11km/h | 18438m | 4.5m/s | -55.8°C | 1.3% | 75.2hPa | 2.7V | 00:00:00 | 00:00:00 | 00:00:00 | |
| OM5KV | 2026-08-31 00:14:14 | 47.38674 | 19.68647 | 36° | 13km/h | 18416m | 6.6m/s | -55.8°C | 1.3% | 75.4hPa | 2.7V | 00:00:00 | 00:00:00 | 00:00:00 | |
| OM5KV | 2026-08-31 00:14:11 | 47.38667 | 19.68637 | 47° | 9km/h | 18398m | 5.6m/s | -55.9°C | 1.3% | 75.7hPa | 2.7V | 00:00:00 | 00:00:00 | 00:00:00 | |
| OM5KV | 2026-08-31 00:14:06 | 47.38669 | 19.68612 | 109° | 18km/h | 18370m | 5.9m/s | -56.2°C | 1.4% | 76.0hPa | 2.7V | 00:00:00 | 00:00:00 | 00:00:00 | |
| GYPAP8-17 | 2026-08-31 00:14:05 | 47.38670 | 19.68606 | 109° | 16km/h | 18365m | 4.2m/s | -56.2°C | 1.4% | 76.0hPa | 2.7V | 00:00:00 | 00:00:00 | 00:00:00 | |
| OM5KV | 2026-08-31 00:14:02 | 47.38673 | 19.68586 | 91° | 16km/h | 18350m | 4.1m/s | -56.1°C | 1.4% | 76.2hPa | 2.7V | 00:00:00 | 00:00:00 | 00:00:00 | |
| OM5KV | 2026-08-31 00:14:00 | 47.38672 | 19.68576 | 61° | 13km/h | 18339m | 5.1m/s | -56.1°C | 1.3% | 76.3hPa | 2.7V | 00:00:00 | 00:00:00 | 00:00:00 | |
| OM5KV | 2026-08-31 00:13:56 | 47.38666 | 19.68559 | 75° | 11km/h | 18318m | 5.7m/s | -56.2°C | 1.4% | 76.6hPa | 2.7V | 00:00:00 | 00:00:00 | 00:00:00 | |
| OM5KV | 2026-08-31 00:13:55 | 47.38665 | 19.68555 | 79° | 11km/h | 18312m | 4.9m/s | -56.2°C | 1.4% | 76.7hPa | 2.7V | 00:00:00 | 00:00:00 | 00:00:00 | |
| OM5KV | 2026-08-31 00:13:51 | 47.38666 | 19.68532 | 105° | 20km/h | 18290m | 6.7m/s | -56.2°C | 1.4% | 76.9hPa | 2.7V | 00:00:00 | 00:00:00 | 00:00:00 | |
| OM5KV | 2026-08-31 00:13:50 | 47.38668 | 19.68526 | 109° | 20km/h | 18284m | 5.4m/s | -56.1°C | 1.4% | 77.1hPa | 2.7V | 00:00:00 | 00:00:00 | 00:00:00 | |
| OM5KV | 2026-08-31 00:13:46 | 47.38673 | 19.68495 | 103° | 18km/h | 18262m | 6.2m/s | -56.0°C | 1.4% | 77.3hPa | 2.7V | 00:00:00 | 00:00:00 | 00:00:00 | |
| OM5KV | 2026-08-31 00:13:44 | 47.38675 | 19.68483 | 96° | 16km/h | 18252m | 4.8m/s | -56.0°C | 1.4% | 77.4hPa | 2.7V | 00:00:00 | 00:00:00 | 00:00:00 | |
| OM5KV | 2026-08-31 00:13:40 | 47.38675 | 19.68456 | 97° | 18km/h | 18230m | 5.3m/s | -55.9°C | 1.4% | 77.7hPa | 2.7V | 00:00:00 | 00:00:00 | 00:00:00 | |
| OM5KV | 2026-08-31 00:13:39 | 47.38676 | 19.68449 | 105° | 20km/h | 18226m | 4.8m/s | -55.9°C | 1.4% | 77.7hPa | 2.7V | 00:00:00 | 00:00:00 | 00:00:00 | |
| OM5KV | 2026-08-31 00:13:35 | 47.38679 | 19.68414 | 102° | 24km/h | 18203m | 6.6m/s | -56.0°C | 1.4% | 78.0hPa | 2.7V | 00:00:00 | 00:00:00 | 00:00:00 | |
| OM5KV | 2026-08-31 00:13:34 | 47.38680 | 19.68406 | 102° | 22km/h | 18197m | 5.2m/s | -56.0°C | 1.4% | 78.1hPa | 2.7V | 00:00:00 | 00:00:00 | 00:00:00 | |
| OM5KV | 2026-08-31 00:13:30 | 47.38682 | 19.68375 | 97° | 18km/h | 18175m | 6.2m/s | -56.0°C | 1.4% | 78.4hPa | 2.7V | 00:00:00 | 00:00:00 | 00:00:00 | |
| OM5KV | 2026-08-31 00:13:28 | 47.38684 | 19.68362 | 102° | 18km/h | 18164m | 4.2m/s | -56.0°C | 1.4% | 78.5hPa | 2.7V | 00:00:00 | 00:00:00 | 00:00:00 | |
| OM5KV | 2026-08-31 00:13:24 | 47.38685 | 19.68330 | 94° | 24km/h | 18142m | 5.5m/s | -56.0°C | 1.4% | 78.8hPa | 2.7V | 00:00:00 | 00:00:00 | 00:00:00 | |
| OM5KV | 2026-08-31 00:13:22 | 47.38686 | 19.68311 | 93° | 29km/h | 18131m | 6.4m/s | -56.0°C | 1.4% | 78.9hPa | 2.7V | 00:00:00 | 00:00:00 | 00:00:00 | |
| OM5KV | 2026-08-31 00:13:18 | 47.38692 | 19.68265 | 102° | 29km/h | 18109m | 5.3m/s | -55.9°C | 1.4% | 79.1hPa | 2.7V | 00:00:00 | 00:00:00 | 00:00:00 | |
| OM5KV | 2026-08-31 00:13:11 | 47.38693 | 19.68212 | 72° | 18km/h | 18072m | 5.1m/s | -56.3°C | 1.4% | 79.6hPa | 2.7V | 00:00:00 | 00:00:00 | 00:00:00 | |
| OM5KV | 2026-08-31 00:13:06 | 47.38687 | 19.68172 | 89° | 24km/h | 18045m | 6.3m/s | -56.4°C | 1.4% | 79.9hPa | 2.7V | 00:00:00 | 00:00:00 | 00:00:00 | |
| OM5KV | 2026-08-31 00:13:05 | 47.38687 | 19.68163 | 95° | 22km/h | 18040m | 5.3m/s | -56.4°C | 1.4% | 80.0hPa | 2.7V | 00:00:00 | 00:00:00 | 00:00:00 | |
| OM5KV | 2026-08-31 00:13:00 | 47.38686 | 19.68129 | 67° | 15km/h | 18012m | 4.4m/s | -56.4°C | 1.4% | 80.4hPa | 2.7V | 00:00:00 | 00:00:00 | 00:00:00 | |
| OM5KV | 2026-08-31 00:12:59 | 47.38684 | 19.68124 | 61° | 16km/h | 18007m | 6.3m/s | -56.4°C | 1.4% | 80.5hPa | 2.7V | 00:00:00 | 00:00:00 | 00:00:00 | |
| GYPAP8-17 | 2026-08-31 00:12:58 | 47.38682 | 19.68119 | 54° | 16km/h | 18001m | 4.8m/s | -56.4°C | 1.4% | 80.5hPa | 2.7V | 00:00:00 | 00:00:00 | 00:00:00 | |
| OM5KV | 2026-08-31 00:12:55 | 47.38673 | 19.68098 | 70° | 20km/h | 17980m | 6.1m/s | -56.6°C | 1.4% | 80.8hPa | 2.7V | 00:00:00 | 00:00:00 | 00:00:00 | |
| OM5KV | 2026-08-31 00:12:54 | 47.38673 | 19.68098 | 70° | 20km/h | 17980m | 6.1m/s | -56.6°C | 1.4% | 80.8hPa | 2.7V | 00:00:00 | 00:00:00 | 00:00:00 | |
| OM5KV | 2026-08-31 00:12:49 | 47.38667 | 19.68056 | 81° | 24km/h | 17953m | 6.3m/s | -56.9°C | 1.5% | 81.1hPa | 2.7V | 00:00:00 | 00:00:00 | 00:00:00 | |
| OM5KV | 2026-08-31 00:12:48 | 47.38665 | 19.68048 | 77° | 24km/h | 17947m | 4.8m/s | -56.8°C | 1.5% | 81.2hPa | 2.7V | 00:00:00 | 00:00:00 | 00:00:00 | |
| OM5KV | 2026-08-31 00:12:42 | 47.38658 | 19.68009 | 80° | 16km/h | 17916m | 4.3m/s | -56.8°C | 1.5% | 81.6hPa | 2.7V | 00:00:00 | 00:00:00 | 00:00:00 | |
| OM5KV | 2026-08-31 00:12:37 | 47.38653 | 19.67978 | 70° | 22km/h | 17888m | 4.2m/s | -57.1°C | 1.5% | 82.0hPa | 2.7V | 00:00:00 | 00:00:00 | 00:00:00 | |
| OM5KV | 2026-08-31 00:12:36 | 47.38651 | 19.67971 | 64° | 22km/h | 17883m | 7.0m/s | -57.1°C | 1.5% | 82.0hPa | 2.7V | 00:00:00 | 00:00:00 | 00:00:00 | |
| OM5KV | 2026-08-31 00:12:32 | 47.38633 | 19.67934 | 53° | 24km/h | 17855m | 6.7m/s | -56.9°C | 1.5% | 82.4hPa | 2.7V | 00:00:00 | 00:00:00 | 00:00:00 | |
| OM5KV | 2026-08-31 00:12:30 | 47.38630 | 19.67928 | 56° | 20km/h | 17849m | 5.4m/s | -56.9°C | 1.5% | 82.5hPa | 2.7V | 00:00:00 | 00:00:00 | 00:00:00 | |
| OM5KV | 2026-08-31 00:12:19 | 47.38616 | 19.67871 | 51° | 15km/h | 17788m | 5.3m/s | -57.4°C | 1.6% | 83.2hPa | 2.7V | 00:00:00 | 00:00:00 | 00:00:00 | |
| OM5KV | 2026-08-31 00:12:12 | 47.38602 | 19.67836 | 69° | 15km/h | 17751m | 5.7m/s | -57.4°C | 1.6% | 83.7hPa | 2.7V | 00:00:00 | 00:00:00 | 00:00:00 | |
| OM5KV | 2026-08-31 00:12:08 | 47.38595 | 19.67820 | 57° | 13km/h | 17728m | 5.2m/s | -57.3°C | 1.5% | 84.1hPa | 2.7V | 00:00:00 | 00:00:00 | 00:00:00 | |
| OM5KV | 2026-08-31 00:12:06 | 47.38591 | 19.67813 | 46° | 13km/h | 17717m | 6.4m/s | -57.3°C | 1.5% | 84.2hPa | 2.7V | 00:00:00 | 00:00:00 | 00:00:00 | |
| OM5KV | 2026-08-31 00:12:02 | 47.38585 | 19.67800 | 70° | 11km/h | 17698m | 4.0m/s | -57.3°C | 1.5% | 84.5hPa | 2.7V | 00:00:00 | 00:00:00 | 00:00:00 | |
| OM5KV | 2026-08-31 00:11:55 | 47.38581 | 19.67778 | 84° | 9km/h | 17660m | 5.2m/s | -57.3°C | 1.5% | 85.0hPa | 2.7V | 00:00:00 | 00:00:00 | 00:00:00 | |
| OM5KV | 2026-08-31 00:11:54 | 47.38581 | 19.67775 | 86° | 9km/h | 17655m | 4.6m/s | -57.4°C | 1.5% | 85.0hPa | 2.7V | 00:00:00 | 00:00:00 | 00:00:00 | |
| GYPAP8-17 | 2026-08-31 00:11:51 | 47.38582 | 19.67762 | 109° | 13km/h | 17639m | 6.5m/s | -57.7°C | 1.6% | 85.2hPa | 2.7V | 00:00:00 | 00:00:00 | 00:00:00 | |
| OM5KV | 2026-08-31 00:11:50 | 47.38583 | 19.67758 | 113° | 11km/h | 17633m | 4.1m/s | -57.9°C | 1.6% | 85.3hPa | 2.7V | 00:00:00 | 00:00:00 | 00:00:00 | |
| OM5KV | 2026-08-31 00:11:45 | 47.38586 | 19.67729 | 106° | 16km/h | 17604m | 4.6m/s | -58.1°C | 1.6% | 85.7hPa | 2.7V | 00:00:00 | 00:00:00 | 00:00:00 | |
| OM5KV | 2026-08-31 00:11:43 | 47.38587 | 19.67723 | 104° | 18km/h | 17599m | 5.6m/s | -58.1°C | 1.6% | 85.8hPa | 2.7V | 00:00:00 | 00:00:00 | 00:00:00 | |
| OM5KV | 2026-08-31 00:11:37 | 47.38593 | 19.67671 | 100° | 26km/h | 17565m | 5.4m/s | -58.1°C | 1.6% | 86.3hPa | 2.7V | 00:00:00 | 00:00:00 | 00:00:00 | |
| OM5KV | 2026-08-31 00:11:35 | 47.38595 | 19.67653 | 104° | 20km/h | 17555m | 6.0m/s | -58.1°C | 1.6% | 86.4hPa | 2.7V | 00:00:00 | 00:00:00 | 00:00:00 | |
| OM5KV | 2026-08-31 00:11:32 | 47.38597 | 19.67635 | 96° | 16km/h | 17539m | 5.5m/s | -58.0°C | 1.6% | 86.6hPa | 2.7V | 00:00:00 | 00:00:00 | 00:00:00 | |
| OM5KV | 2026-08-31 00:11:30 | 47.38599 | 19.67624 | 109° | 15km/h | 17528m | 6.4m/s | -58.0°C | 1.6% | 86.8hPa | 2.7V | 00:00:00 | 00:00:00 | 00:00:00 | |
| OM5KV | 2026-08-31 00:11:26 | 47.38605 | 19.67601 | 112° | 20km/h | 17507m | 3.9m/s | -57.9°C | 1.6% | 87.1hPa | 2.7V | 00:00:00 | 00:00:00 | 00:00:00 | |
| LZ4TU-5 | 2026-08-31 00:11:20 | 47.38616 | 19.67569 | 120° | 13km/h | 17477m | 6.0m/s | 0°C | 0% | 0hPa | 2.7V | 00:00:00 | 00:00:00 | 00:00:00 | |
| OM5KV | 2026-08-31 00:11:19 | 47.38618 | 19.67565 | 127° | 13km/h | 17471m | 5.2m/s | -57.8°C | 1.6% | 87.5hPa | 2.7V | 00:00:00 | 00:00:00 | 00:00:00 | |
| LZ4TU-5 | 2026-08-31 00:11:16 | 47.38623 | 19.67551 | 117° | 16km/h | 17456m | 4.2m/s | 0°C | 0% | 0hPa | 2.7V | 00:00:00 | 00:00:00 | 00:00:00 | |
| OM5KV | 2026-08-31 00:11:13 | 47.38631 | 19.67536 | 134° | 16km/h | 17440m | 4.5m/s | -57.6°C | 1.6% | 88.0hPa | 2.7V | 00:00:00 | 00:00:00 | 00:00:00 | |
| OM5KV | 2026-08-31 00:11:12 | 47.38633 | 19.67531 | 130° | 15km/h | 17435m | 5.9m/s | -57.6°C | 1.6% | 88.1hPa | 2.7V | 00:00:00 | 00:00:00 | 00:00:00 | |
| OM5KV | 2026-08-31 00:11:07 | 47.38645 | 19.67511 | 132° | 15km/h | 17408m | 6.5m/s | -57.8°C | 1.6% | 88.4hPa | 2.7V | 00:00:00 | 00:00:00 | 00:00:00 | |
| OM5KV | 2026-08-31 00:11:01 | 47.38660 | 19.67479 | 119° | 16km/h | 17375m | 5.4m/s | -57.8°C | 1.6% | 88.9hPa | 2.7V | 00:00:00 | 00:00:00 | 00:00:00 | |
| OM5KV | 2026-08-31 00:10:56 | 47.38669 | 19.67446 | 105° | 22km/h | 17348m | 4.7m/s | -57.7°C | 1.6% | 89.3hPa | 2.7V | 00:00:00 | 00:00:00 | 00:00:00 | |
| OM5KV | 2026-08-31 00:10:55 | 47.38671 | 19.67437 | 107° | 26km/h | 17344m | 3.2m/s | -57.7°C | 1.6% | 89.3hPa | 2.7V | 00:00:00 | 00:00:00 | 00:00:00 | |
| OM5KV | 2026-08-31 00:10:44 | 47.38684 | 19.67338 | 93° | 24km/h | 17287m | 6.5m/s | -57.7°C | 1.6% | 90.1hPa | 2.7V | 00:00:00 | 00:00:00 | 00:00:00 | |
| OM5KV | 2026-08-31 00:10:40 | 47.38686 | 19.67296 | 96° | 31km/h | 17265m | 5.8m/s | -57.9°C | 1.6% | 90.4hPa | 2.7V | 00:00:00 | 00:00:00 | 00:00:00 | |
| GYPAP8-17 | 2026-08-31 00:10:35 | 47.38689 | 19.67234 | 89° | 31km/h | 17240m | 5.1m/s | -58.0°C | 1.6% | 90.8hPa | 2.7V | 00:00:00 | 00:00:00 | 00:00:00 | |
| OM5KV | 2026-08-31 00:10:32 | 47.38688 | 19.67202 | 80° | 29km/h | 17223m | 6.0m/s | -58.0°C | 1.6% | 91.1hPa | 2.7V | 00:00:00 | 00:00:00 | 00:00:00 | |
| OM5KV | 2026-08-31 00:10:28 | 47.38684 | 19.67156 | 91° | 37km/h | 17204m | 4.0m/s | -58.0°C | 1.7% | 91.3hPa | 2.7V | 00:00:00 | 00:00:00 | 00:00:00 | |
| OM5KV | 2026-08-31 00:10:27 | 47.38684 | 19.67143 | 90° | 38km/h | 17199m | 5.0m/s | -58.0°C | 1.7% | 91.4hPa | 2.7V | 00:00:00 | 00:00:00 | 00:00:00 | |
| OM5KV | 2026-08-31 00:10:22 | 47.38683 | 19.67071 | 89° | 38km/h | 17173m | 5.3m/s | -58.0°C | 1.7% | 91.8hPa | 2.7V | 00:00:00 | 00:00:00 | 00:00:00 | |
| OM5KV | 2026-08-31 00:10:21 | 47.38682 | 19.67057 | 83° | 38km/h | 17167m | 6.0m/s | -58.0°C | 1.7% | 91.9hPa | 2.7V | 00:00:00 | 00:00:00 | 00:00:00 | |
| OM5KV | 2026-08-31 00:10:16 | 47.38669 | 19.66993 | 65° | 37km/h | 17141m | 5.6m/s | -57.9°C | 1.7% | 92.2hPa | 2.7V | 00:00:00 | 00:00:00 | 00:00:00 | |
| OM5KV | 2026-08-31 00:10:10 | 47.38652 | 19.66920 | 79° | 35km/h | 17111m | 5.6m/s | -57.6°C | 1.6% | 92.7hPa | 2.7V | 00:00:00 | 00:00:00 | 00:00:00 | |
| OM5KV | 2026-08-31 00:10:09 | 47.38651 | 19.66906 | 85° | 37km/h | 17105m | 5.8m/s | -57.6°C | 1.7% | 92.8hPa | 2.7V | 00:00:00 | 00:00:00 | 00:00:00 | |
| OM5KV | 2026-08-31 00:10:05 | 47.38644 | 19.66849 | 79° | 40km/h | 17084m | 5.1m/s | -57.4°C | 1.6% | 93.1hPa | 2.7V | 00:00:00 | 00:00:00 | 00:00:00 | |
| OM5KV | 2026-08-31 00:10:03 | 47.38640 | 19.66821 | 82° | 37km/h | 17073m | 3.9m/s | -57.3°C | 1.6% | 93.3hPa | 2.7V | 00:00:00 | 00:00:00 | 00:00:00 | |
| OM5KV | 2026-08-31 00:09:59 | 47.38632 | 19.66772 | 80° | 31km/h | 17052m | 5.5m/s | -57.2°C | 1.6% | 93.6hPa | 2.7V | 00:00:00 | 00:00:00 | 00:00:00 | |
| OM5KV | 2026-08-31 00:09:53 | 47.38630 | 19.66701 | 86° | 35km/h | 17022m | 4.2m/s | -57.1°C | 1.6% | 94.0hPa | 2.7V | 00:00:00 | 00:00:00 | 00:00:00 | |
| OM5KV | 2026-08-31 00:09:52 | 47.38630 | 19.66688 | 88° | 33km/h | 17016m | 6.6m/s | -57.0°C | 1.6% | 94.1hPa | 2.7V | 00:00:00 | 00:00:00 | 00:00:00 | |
| OM5KV | 2026-08-31 00:09:47 | 47.38626 | 19.66627 | 90° | 33km/h | 16990m | 6.9m/s | -56.9°C | 1.6% | 94.5hPa | 2.7V | 00:00:00 | 00:00:00 | 00:00:00 | |
| OM5KV | 2026-08-31 00:09:46 | 47.38626 | 19.66614 | 91° | 33km/h | 16984m | 4.1m/s | -56.9°C | 1.6% | 94.6hPa | 2.7V | 00:00:00 | 00:00:00 | 00:00:00 | |
| OM5KV | 2026-08-31 00:09:41 | 47.38627 | 19.66555 | 100° | 29km/h | 16958m | 4.6m/s | -56.9°C | 1.6% | 95.0hPa | 2.7V | 00:00:00 | 00:00:00 | 00:00:00 | |
| OM5KV | 2026-08-31 00:09:40 | 47.38628 | 19.66544 | 96° | 29km/h | 16953m | 5.4m/s | -56.9°C | 1.6% | 95.0hPa | 2.7V | 00:00:00 | 00:00:00 | 00:00:00 | |
| OM5KV | 2026-08-31 00:09:36 | 47.38629 | 19.66485 | 87° | 33km/h | 16926m | 6.3m/s | -57.1°C | 1.6% | 95.5hPa | 2.7V | 00:00:00 | 00:00:00 | 00:00:00 | |
| LZ4TU-5 | 2026-08-31 00:09:31 | 47.38625 | 19.66441 | 82° | 27km/h | 16906m | 4.6m/s | 0°C | 0% | 0hPa | 2.7V | 00:00:00 | 00:00:00 | 00:00:00 | |
| OM5KV | 2026-08-31 00:09:29 | 47.38623 | 19.66420 | 81° | 27km/h | 16895m | 4.2m/s | -57.4°C | 1.6% | 95.9hPa | 2.7V | 00:00:00 | 00:00:00 | 00:00:00 | |
| GYPAP8-17 | 2026-08-31 00:09:27 | 47.38621 | 19.66401 | 84° | 26km/h | 16884m | 5.2m/s | -57.5°C | 1.7% | 96.1hPa | 2.7V | 00:00:00 | 00:00:00 | 00:00:00 | |
| LZ4TU-5 | 2026-08-31 00:09:26 | 47.38619 | 19.66391 | 80° | 26km/h | 16879m | 5.3m/s | 0°C | 0% | 0hPa | 2.7V | 00:00:00 | 00:00:00 | 00:00:00 | |
| OM5KV | 2026-08-31 00:09:25 | 47.38619 | 19.66381 | 82° | 27km/h | 16874m | 5.6m/s | -57.5°C | 1.7% | 96.3hPa | 2.7V | 00:00:00 | 00:00:00 | 00:00:00 | |
| OM5KV | 2026-08-31 00:09:23 | 47.38617 | 19.66360 | 83° | 27km/h | 16863m | 6.2m/s | -57.4°C | 1.6% | 96.4hPa | 2.7V | 00:00:00 | 00:00:00 | 00:00:00 | |
| LZ4TU-5 | 2026-08-31 00:09:21 | 47.38614 | 19.66342 | 75° | 26km/h | 16852m | 6.2m/s | 0°C | 0% | 0hPa | 2.7V | 00:00:00 | 00:00:00 | 00:00:00 | |
| OM5KV | 2026-08-31 00:09:20 | 47.38612 | 19.66333 | 75° | 24km/h | 16847m | 5.3m/s | -57.5°C | 1.6% | 96.7hPa | 2.7V | 00:00:00 | 00:00:00 | 00:00:00 | |
| OM5KV | 2026-08-31 00:09:16 | 47.38605 | 19.66303 | 74° | 22km/h | 16825m | 6.5m/s | -57.7°C | 1.7% | 97.0hPa | 2.7V | 00:00:00 | 00:00:00 | 00:00:00 | |
| LZ4TU-5 | 2026-08-31 00:09:14 | 47.38604 | 19.66284 | 89° | 27km/h | 16815m | 5.5m/s | 0°C | 0% | 0hPa | 2.7V | 00:00:00 | 00:00:00 | 00:00:00 | |
| OM5KV | 2026-08-31 00:09:10 | 47.38603 | 19.66238 | 85° | 37km/h | 16793m | 4.3m/s | -58.1°C | 1.7% | 97.5hPa | 2.7V | 00:00:00 | 00:00:00 | 00:00:00 | |
| OM5KV | 2026-08-31 00:09:09 | 47.38602 | 19.66225 | 86° | 35km/h | 16788m | 6.2m/s | -58.1°C | 1.7% | 97.5hPa | 2.7V | 00:00:00 | 00:00:00 | 00:00:00 | |
| OM5KV | 2026-08-31 00:09:06 | 47.38597 | 19.66176 | 82° | 33km/h | 16766m | 4.3m/s | -58.0°C | 1.7% | 97.9hPa | 2.7V | 00:00:00 | 00:00:00 | 00:00:00 | |
| OM5KV | 2026-08-31 00:08:59 | 47.38590 | 19.66110 | 82° | 35km/h | 16737m | 4.5m/s | -58.0°C | 1.7% | 98.4hPa | 2.7V | 00:00:00 | 00:00:00 | 00:00:00 | |
| OM5KV | 2026-08-31 00:08:53 | 47.38587 | 19.66031 | 95° | 38km/h | 16705m | 6.3m/s | -58.0°C | 1.7% | 98.9hPa | 2.7V | 00:00:00 | 00:00:00 | 00:00:00 | |
| OM5KV | 2026-08-31 00:08:50 | 47.38590 | 19.65991 | 98° | 37km/h | 16689m | 6.4m/s | -58.1°C | 1.8% | 99.1hPa | 2.7V | 00:00:00 | 00:00:00 | 00:00:00 | |
| OM5KV | 2026-08-31 00:08:44 | 47.38586 | 19.65919 | 79° | 33km/h | 16656m | 4.5m/s | -57.9°C | 1.8% | 99.6hPa | 2.7V | 00:00:00 | 00:00:00 | 00:00:00 | |
| OM5KV | 2026-08-31 00:08:40 | 47.38580 | 19.65871 | 81° | 37km/h | 16635m | 6.0m/s | -57.7°C | 1.8% | 100.0hPa | 2.7V | 00:00:00 | 00:00:00 | 00:00:00 | |
| OM5KV | 2026-08-31 00:08:39 | 47.38578 | 19.65858 | 82° | 37km/h | 16630m | 4.3m/s | -57.7°C | 1.7% | 100.1hPa | 2.7V | 00:00:00 | 00:00:00 | 00:00:00 | |
| OM5KV | 2026-08-31 00:08:35 | 47.38572 | 19.65806 | 79° | 37km/h | 16608m | 5.6m/s | -57.5°C | 1.7% | 100.4hPa | 2.7V | 00:00:00 | 00:00:00 | 00:00:00 | |
| ATIDSZ-14 | 2026-08-31 00:08:33 | 47.38568 | 19.65780 | 79° | 33km/h | 16596m | 6.4m/s | -57.5°C | 1.7% | 100.6hPa | 2.7V | 00:00:00 | 00:00:00 | 00:00:00 | |
| OM5KV | 2026-08-31 00:08:26 | 47.38552 | 19.65695 | 67° | 33km/h | 16558m | 5.7m/s | -57.5°C | 1.7% | 101.2hPa | 2.7V | 00:00:00 | 00:00:00 | 00:00:00 | |
| GYPAP8-17 | 2026-08-31 00:08:25 | 47.38548 | 19.65684 | 64° | 37km/h | 16553m | 5.0m/s | -57.5°C | 1.7% | 101.3hPa | 2.7V | 00:00:00 | 00:00:00 | 00:00:00 | |
| OM5KV | 2026-08-31 00:08:22 | 47.38538 | 19.65647 | 74° | 35km/h | 16537m | 5.0m/s | -57.5°C | 1.8% | 101.5hPa | 2.7V | 00:00:00 | 00:00:00 | 00:00:00 | |
| OM5KV | 2026-08-31 00:08:20 | 47.38532 | 19.65621 | 71° | 38km/h | 16526m | 5.3m/s | -57.5°C | 1.7% | 101.7hPa | 2.7V | 00:00:00 | 00:00:00 | 00:00:00 | |
| OM5KV | 2026-08-31 00:08:16 | 47.38521 | 19.65573 | 72° | 31km/h | 16505m | 5.3m/s | -57.4°C | 1.7% | 102.1hPa | 2.7V | 00:00:00 | 00:00:00 | 00:00:00 | |
| OM5KV | 2026-08-31 00:08:14 | 47.38516 | 19.65550 | 74° | 35km/h | 16494m | 4.3m/s | -57.4°C | 1.8% | 102.2hPa | 2.7V | 00:00:00 | 00:00:00 | 00:00:00 | |
| ATIDSZ-14 | 2026-08-31 00:08:12 | 47.38512 | 19.65524 | 82° | 38km/h | 16483m | 4.5m/s | -57.4°C | 1.8% | 102.4hPa | 2.7V | 00:00:00 | 00:00:00 | 00:00:00 | |
| OM5KV | 2026-08-31 00:08:11 | 47.38510 | 19.65510 | 81° | 38km/h | 16477m | 5.4m/s | -57.4°C | 1.8% | 102.5hPa | 2.7V | 00:00:00 | 00:00:00 | 00:00:00 | |
| OM5KV | 2026-08-31 00:08:08 | 47.38505 | 19.65467 | 81° | 37km/h | 16461m | 6.4m/s | -57.3°C | 1.8% | 102.7hPa | 2.7V | 00:00:00 | 00:00:00 | 00:00:00 | |
| OM5KV | 2026-08-31 00:08:06 | 47.38502 | 19.65443 | 81° | 31km/h | 16451m | 4.6m/s | -57.2°C | 1.8% | 103.0hPa | 2.7V | 00:00:00 | 00:00:00 | 00:00:00 | |
| OM5KV | 2026-08-31 00:08:02 | 47.38493 | 19.65398 | 76° | 31km/h | 16429m | 5.4m/s | -57.1°C | 1.8% | 103.3hPa | 2.7V | 00:00:00 | 00:00:00 | 00:00:00 | |
| OM5KV | 2026-08-31 00:08:01 | 47.38491 | 19.65387 | 72° | 31km/h | 16424m | 5.2m/s | -57.1°C | 1.7% | 103.3hPa | 2.7V | 00:00:00 | 00:00:00 | 00:00:00 | |
| OM5KV | 2026-08-31 00:07:57 | 47.38482 | 19.65343 | 82° | 33km/h | 16403m | 4.8m/s | -57.0°C | 1.8% | 103.7hPa | 2.7V | 00:00:00 | 00:00:00 | 00:00:00 | |
| OM5KV | 2026-08-31 00:07:55 | 47.38479 | 19.65319 | 78° | 33km/h | 16393m | 6.1m/s | -56.9°C | 1.8% | 103.8hPa | 2.7V | 00:00:00 | 00:00:00 | 00:00:00 | |
| ATIDSZ-14 | 2026-08-31 00:07:51 | 47.38471 | 19.65275 | 73° | 31km/h | 16371m | 5.3m/s | -56.8°C | 1.8% | 104.2hPa | 2.7V | 00:00:00 | 00:00:00 | 00:00:00 | |
| OM5KV | 2026-08-31 00:07:45 | 47.38450 | 19.65192 | 74° | 35km/h | 16331m | 7.0m/s | -56.7°C | 1.8% | 104.9hPa | 2.7V | 00:00:00 | 00:00:00 | 00:00:00 | |
| OM5KV | 2026-08-31 00:07:40 | 47.38440 | 19.65145 | 72° | 31km/h | 16309m | 4.6m/s | -56.8°C | 1.7% | 105.2hPa | 2.7V | 00:00:00 | 00:00:00 | 00:00:00 | |
| OM5KV | 2026-08-31 00:07:34 | 47.38426 | 19.65082 | 78° | 33km/h | 16277m | 5.8m/s | -57.1°C | 1.9% | 105.8hPa | 2.7V | 00:00:00 | 00:00:00 | 00:00:00 | |
| OM5KV | 2026-08-31 00:07:33 | 47.38424 | 19.65069 | 79° | 37km/h | 16271m | 5.2m/s | -57.1°C | 1.8% | 105.9hPa | 2.7V | 00:00:00 | 00:00:00 | 00:00:00 | |
| ATIDSZ-14 | 2026-08-31 00:07:31 | 47.38420 | 19.65042 | 81° | 40km/h | 16261m | 4.0m/s | -57.2°C | 1.9% | 106.1hPa | 2.7V | 00:00:00 | 00:00:00 | 00:00:00 | |
| OM5KV | 2026-08-31 00:07:28 | 47.38417 | 19.64998 | 86° | 38km/h | 16245m | 5.3m/s | -57.3°C | 1.9% | 106.3hPa | 2.7V | 00:00:00 | 00:00:00 | 00:00:00 | |
| OM5KV | 2026-08-31 00:07:27 | 47.38416 | 19.64984 | 83° | 37km/h | 16240m | 5.1m/s | -57.3°C | 1.9% | 106.5hPa | 2.7V | 00:00:00 | 00:00:00 | 00:00:00 | |
| OM5KV | 2026-08-31 00:07:21 | 47.38408 | 19.64908 | 80° | 38km/h | 16210m | 4.8m/s | -57.2°C | 2.0% | 106.9hPa | 2.7V | 00:00:00 | 00:00:00 | 00:00:00 | |
| LZ4TU-5 | 2026-08-31 00:07:16 | 47.38405 | 19.64831 | 91° | 42km/h | 16184m | 6.4m/s | 0°C | 0% | 0hPa | 2.7V | 00:00:00 | 00:00:00 | 00:00:00 | |
| GYPAP8-17 | 2026-08-31 00:07:12 | 47.38403 | 19.64771 | 88° | 37km/h | 16163m | 5.2m/s | -57.2°C | 2.0% | 107.7hPa | 2.7V | 00:00:00 | 00:00:00 | 00:00:00 | |
| OM5KV | 2026-08-31 00:07:11 | 47.38403 | 19.64757 | 86° | 38km/h | 16157m | 6.3m/s | -57.2°C | 2.0% | 107.8hPa | 2.7V | 00:00:00 | 00:00:00 | 00:00:00 | |
| ATIDSZ-14 | 2026-08-31 00:07:10 | 47.38401 | 19.64742 | 84° | 40km/h | 16151m | 5.5m/s | -57.2°C | 2.0% | 107.9hPa | 2.7V | 00:00:00 | 00:00:00 | 00:00:00 | |
| OM5KV | 2026-08-31 00:07:05 | 47.38402 | 19.64670 | 98° | 40km/h | 16123m | 4.8m/s | -57.5°C | 2.1% | 108.4hPa | 2.7V | 00:00:00 | 00:00:00 | 00:00:00 | |
| OM5KV | 2026-08-31 00:07:00 | 47.38412 | 19.64595 | 95° | 44km/h | 16097m | 4.4m/s | -57.5°C | 2.1% | 108.9hPa | 2.7V | 00:00:00 | 00:00:00 | 00:00:00 | |
| OM5KV | 2026-08-31 00:06:53 | 47.38416 | 19.64479 | 95° | 44km/h | 16057m | 4.5m/s | -57.4°C | 2.1% | 109.6hPa | 2.7V | 00:00:00 | 00:00:00 | 00:00:00 | |
| ATIDSZ-14 | 2026-08-31 00:06:49 | 47.38419 | 19.64413 | 98° | 46km/h | 16036m | 6.6m/s | -57.6°C | 2.1% | 109.9hPa | 2.7V | 00:00:00 | 00:00:00 | 00:00:00 | |
| OM5KV | 2026-08-31 00:06:47 | 47.38422 | 19.64378 | 97° | 49km/h | 16025m | 6.5m/s | -57.8°C | 2.2% | 110.1hPa | 2.7V | 00:00:00 | 00:00:00 | 00:00:00 | |
| OM5KV | 2026-08-31 00:06:43 | 47.38422 | 19.64304 | 86° | 51km/h | 16003m | 4.9m/s | -57.8°C | 2.2% | 110.5hPa | 2.7V | 00:00:00 | 00:00:00 | 00:00:00 | |
| OM5KV | 2026-08-31 00:06:41 | 47.38419 | 19.64265 | 80° | 53km/h | 15992m | 4.7m/s | -57.7°C | 2.2% | 110.7hPa | 2.7V | 00:00:00 | 00:00:00 | 00:00:00 | |
| OM5KV | 2026-08-31 00:06:37 | 47.38409 | 19.64189 | 83° | 53km/h | 15970m | 4.5m/s | -57.6°C | 2.2% | 111.0hPa | 2.7V | 00:00:00 | 00:00:00 | 00:00:00 | |
| OM5KV | 2026-08-31 00:06:34 | 47.38406 | 19.64132 | 91° | 49km/h | 15955m | 4.4m/s | -57.5°C | 2.2% | 111.3hPa | 2.7V | 00:00:00 | 00:00:00 | 00:00:00 | |
| OM5KV | 2026-08-31 00:06:32 | 47.38404 | 19.64075 | 85° | 51km/h | 15940m | 3.4m/s | -57.6°C | 2.2% | 111.6hPa | 2.7V | 00:00:00 | 00:00:00 | 00:00:00 | |
| OM5KV | 2026-08-31 00:06:29 | 47.38402 | 19.64038 | 85° | 47km/h | 15929m | 5.1m/s | -57.6°C | 2.3% | 111.8hPa | 2.7V | 00:00:00 | 00:00:00 | 00:00:00 | |
| OM5KV | 2026-08-31 00:06:24 | 47.38393 | 19.63949 | 85° | 49km/h | 15903m | 5.3m/s | -57.8°C | 2.3% | 112.3hPa | 2.7V | 00:00:00 | 00:00:00 | 00:00:00 | |
| OM5KV | 2026-08-31 00:06:19 | 47.38384 | 19.63857 | 80° | 46km/h | 15876m | 3.1m/s | -57.6°C | 2.3% | 112.7hPa | 2.7V | 00:00:00 | 00:00:00 | 00:00:00 | |
| OM5KV | 2026-08-31 00:06:18 | 47.38381 | 19.63841 | 77° | 44km/h | 15872m | 5.9m/s | -57.6°C | 2.3% | 112.8hPa | 2.7V | 00:00:00 | 00:00:00 | 00:00:00 | |
| OM5KV | 2026-08-31 00:06:14 | 47.38371 | 19.63782 | 76° | 38km/h | 15849m | 4.1m/s | -57.7°C | 2.3% | 113.2hPa | 2.7V | 00:00:00 | 00:00:00 | 00:00:00 | |
| OM5KV | 2026-08-31 00:06:12 | 47.38366 | 19.63754 | 78° | 40km/h | 15839m | 4.0m/s | -57.6°C | 2.3% | 113.4hPa | 2.7V | 00:00:00 | 00:00:00 | 00:00:00 | |
| OM5KV | 2026-08-31 00:06:08 | 47.38359 | 19.63693 | 80° | 44km/h | 15819m | 5.8m/s | -57.5°C | 2.3% | 113.7hPa | 2.7V | 00:00:00 | 00:00:00 | 00:00:00 | |
| OM5KV | 2026-08-31 00:06:07 | 47.38357 | 19.63677 | 79° | 44km/h | 15814m | 4.0m/s | -57.5°C | 2.3% | 113.9hPa | 2.7V | 00:00:00 | 00:00:00 | 00:00:00 | |
| ATIDSZ-14 | 2026-08-31 00:06:03 | 47.38349 | 19.63616 | 82° | 38km/h | 15793m | 5.6m/s | -57.5°C | 2.4% | 114.2hPa | 2.7V | 00:00:00 | 00:00:00 | 00:00:00 | |
| OM5KV | 2026-08-31 00:06:02 | 47.38348 | 19.63603 | 83° | 35km/h | 15788m | 4.7m/s | -57.6°C | 2.4% | 114.3hPa | 2.7V | 00:00:00 | 00:00:00 | 00:00:00 | |
| OM5KV | 2026-08-31 00:05:57 | 47.38345 | 19.63548 | 86° | 29km/h | 15762m | 4.1m/s | -57.7°C | 2.4% | 114.8hPa | 2.7V | 00:00:00 | 00:00:00 | 00:00:00 | |
| GYPAP8-17 | 2026-08-31 00:05:53 | 47.38342 | 19.63503 | 80° | 33km/h | 15740m | 4.9m/s | -57.6°C | 2.4% | 115.2hPa | 2.7V | 00:00:00 | 00:00:00 | 00:00:00 | |
| OM5KV | 2026-08-31 00:05:51 | 47.38340 | 19.63480 | 86° | 33km/h | 15729m | 5.3m/s | -57.5°C | 2.4% | 115.4hPa | 2.7V | 00:00:00 | 00:00:00 | 00:00:00 | |
| OM5KV | 2026-08-31 00:05:46 | 47.38337 | 19.63408 | 93° | 31km/h | 15698m | 5.4m/s | -57.6°C | 2.4% | 115.9hPa | 2.7V | 00:00:00 | 00:00:00 | 00:00:00 | |
| OM5KV | 2026-08-31 00:05:45 | 47.38337 | 19.63408 | 93° | 31km/h | 15698m | 5.4m/s | -57.6°C | 2.4% | 115.9hPa | 2.7V | 00:00:00 | 00:00:00 | 00:00:00 | |
| ATIDSZ-14 | 2026-08-31 00:05:42 | 47.38337 | 19.63371 | 94° | 33km/h | 15682m | 6.9m/s | -57.5°C | 2.5% | 116.2hPa | 2.7V | 00:00:00 | 00:00:00 | 00:00:00 | |
| OM5KV | 2026-08-31 00:05:39 | 47.38339 | 19.63331 | 96° | 38km/h | 15666m | 4.1m/s | -57.5°C | 2.5% | 116.5hPa | 2.7V | 00:00:00 | 00:00:00 | 00:00:00 | |
| OM5KV | 2026-08-31 00:05:34 | 47.38344 | 19.63259 | 95° | 38km/h | 15640m | 4.9m/s | -57.7°C | 2.5% | 117.0hPa | 2.7V | 00:00:00 | 00:00:00 | 00:00:00 | |
| OM5KV | 2026-08-31 00:05:33 | 47.38345 | 19.63245 | 98° | 38km/h | 15635m | 6.0m/s | -57.8°C | 2.6% | 117.1hPa | 2.7V | 00:00:00 | 00:00:00 | 00:00:00 | |
| OM5KV | 2026-08-31 00:05:29 | 47.38350 | 19.63192 | 96° | 35km/h | 15615m | 4.6m/s | -57.7°C | 2.6% | 117.5hPa | 2.7V | 00:00:00 | 00:00:00 | 00:00:00 | |
| OM5KV | 2026-08-31 00:05:27 | 47.38351 | 19.63168 | 100° | 35km/h | 15605m | 3.7m/s | -57.6°C | 2.6% | 117.7hPa | 2.7V | 00:00:00 | 00:00:00 | 00:00:00 | |
| OM5KV | 2026-08-31 00:05:23 | 47.38354 | 19.63104 | 95° | 51km/h | 15586m | 5.1m/s | -57.6°C | 2.6% | 118.1hPa | 2.7V | 00:00:00 | 00:00:00 | 00:00:00 | |
| ATIDSZ-14 | 2026-08-31 00:05:22 | 47.38357 | 19.63068 | 99° | 47km/h | 15576m | 3.9m/s | -57.7°C | 2.7% | 118.2hPa | 2.7V | 00:00:00 | 00:00:00 | 00:00:00 | |
| OM5KV | 2026-08-31 00:05:18 | 47.38362 | 19.63018 | 103° | 46km/h | 15561m | 4.7m/s | -57.7°C | 2.7% | 118.5hPa | 2.7V | 00:00:00 | 00:00:00 | 00:00:00 | |
| OM5KV | 2026-08-31 00:05:16 | 47.38368 | 19.62982 | 108° | 51km/h | 15551m | 4.7m/s | -57.7°C | 2.7% | 118.7hPa | 2.7V | 00:00:00 | 00:00:00 | 00:00:00 | |
| OM5KV | 2026-08-31 00:05:13 | 47.38378 | 19.62926 | 104° | 51km/h | 15535m | 4.5m/s | -57.7°C | 2.8% | 119.0hPa | 2.7V | 00:00:00 | 00:00:00 | 00:00:00 | |
| OM5KV | 2026-08-31 00:05:11 | 47.38384 | 19.62889 | 106° | 53km/h | 15524m | 4.6m/s | -57.7°C | 2.8% | 119.2hPa | 2.7V | 00:00:00 | 00:00:00 | 00:00:00 | |
| OM5KV | 2026-08-31 00:05:07 | 47.38402 | 19.62777 | 102° | 51km/h | 15495m | 4.6m/s | -57.6°C | 2.9% | 119.8hPa | 2.7V | 00:00:00 | 00:00:00 | 00:00:00 | |
| OM5KV | 2026-08-31 00:05:01 | 47.38411 | 19.62703 | 103° | 49km/h | 15474m | 4.6m/s | -57.7°C | 3.1% | 120.2hPa | 2.7V | 00:00:00 | 00:00:00 | 00:00:00 | |
| OM5KV | 2026-08-31 00:05:00 | 47.38414 | 19.62686 | 102° | 47km/h | 15469m | 5.2m/s | -57.8°C | 3.0% | 120.3hPa | 2.7V | 00:00:00 | 00:00:00 | 00:00:00 | |
| OM5KV | 2026-08-31 00:04:56 | 47.38420 | 19.62615 | 98° | 49km/h | 15448m | 4.6m/s | -57.7°C | 3.1% | 120.7hPa | 2.7V | 00:00:00 | 00:00:00 | 00:00:00 | |
| OM5KV | 2026-08-31 00:04:55 | 47.38423 | 19.62579 | 96° | 49km/h | 15437m | 4.7m/s | -57.7°C | 3.1% | 120.9hPa | 2.7V | 00:00:00 | 00:00:00 | 00:00:00 | |
| OM5KV | 2026-08-31 00:04:51 | 47.38429 | 19.62503 | 97° | 49km/h | 15416m | 5.6m/s | -57.7°C | 3.2% | 121.3hPa | 2.7V | 00:00:00 | 00:00:00 | 00:00:00 | |
| GYPAP8-17 | 2026-08-31 00:04:47 | 47.38434 | 19.62434 | 96° | 42km/h | 15395m | 6.5m/s | -57.7°C | 3.3% | 121.7hPa | 2.7V | 00:00:00 | 00:00:00 | 00:00:00 | |
| OM5KV | 2026-08-31 00:04:45 | 47.38435 | 19.62404 | 92° | 38km/h | 15385m | 4.4m/s | -57.7°C | 3.3% | 121.9hPa | 2.7V | 00:00:00 | 00:00:00 | 00:00:00 | |
| OM5KV | 2026-08-31 00:04:44 | 47.38436 | 19.62390 | 95° | 38km/h | 15380m | 5.6m/s | -57.7°C | 3.3% | 122.0hPa | 2.7V | 00:00:00 | 00:00:00 | 00:00:00 | |
| ATIDSZ-14 | 2026-08-31 00:04:40 | 47.38437 | 19.62345 | 88° | 42km/h | 15366m | 6.0m/s | -57.6°C | 3.3% | 122.3hPa | 2.7V | 00:00:00 | 00:00:00 | 00:00:00 | |
| OM5KV | 2026-08-31 00:04:39 | 47.38435 | 19.62294 | 89° | 47km/h | 15351m | 5.7m/s | -57.5°C | 3.3% | 122.5hPa | 2.7V | 00:00:00 | 00:00:00 | 00:00:00 | |
| OM5KV | 2026-08-31 00:04:35 | 47.38432 | 19.62227 | 87° | 40km/h | 15331m | 5.1m/s | -57.5°C | 3.3% | 122.9hPa | 2.7V | 00:00:00 | 00:00:00 | 00:00:00 | |
| OM5KV | 2026-08-31 00:04:33 | 47.38431 | 19.62213 | 91° | 38km/h | 15326m | 5.3m/s | -57.5°C | 3.4% | 123.1hPa | 2.7V | 00:00:00 | 00:00:00 | 00:00:00 | |
| OM5KV | 2026-08-31 00:04:27 | 47.38430 | 19.62149 | 88° | 35km/h | 15300m | 6.3m/s | -57.5°C | 3.4% | 123.5hPa | 2.7V | 00:00:00 | 00:00:00 | 00:00:00 | |
| OM5KV | 2026-08-31 00:04:26 | 47.38429 | 19.62136 | 88° | 37km/h | 15295m | 4.5m/s | -57.5°C | 3.4% | 123.6hPa | 2.7V | 00:00:00 | 00:00:00 | 00:00:00 | |
| OM5KV | 2026-08-31 00:04:21 | 47.38422 | 19.62050 | 85° | 35km/h | 15266m | 4.1m/s | -57.4°C | 3.5% | 124.2hPa | 2.7V | 00:00:00 | 00:00:00 | 00:00:00 | |
| ATIDSZ-14 | 2026-08-31 00:04:20 | 47.38422 | 19.62050 | 85° | 35km/h | 15266m | 4.1m/s | -57.4°C | 3.5% | 124.2hPa | 2.7V | 00:00:00 | 00:00:00 | 00:00:00 | |
| OM5KV | 2026-08-31 00:04:16 | 47.38417 | 19.61993 | 87° | 29km/h | 15241m | 4.1m/s | -57.4°C | 3.5% | 124.7hPa | 2.7V | 00:00:00 | 00:00:00 | 00:00:00 | |
| OM5KV | 2026-08-31 00:04:14 | 47.38416 | 19.61982 | 84° | 29km/h | 15236m | 6.2m/s | -57.4°C | 3.5% | 124.8hPa | 2.7V | 00:00:00 | 00:00:00 | 00:00:00 | |
| OM5KV | 2026-08-31 00:04:09 | 47.38413 | 19.61915 | 92° | 33km/h | 15205m | 4.0m/s | -57.3°C | 3.7% | 125.4hPa | 2.7V | 00:00:00 | 00:00:00 | 00:00:00 | |
| OM5KV | 2026-08-31 00:04:03 | 47.38421 | 19.61832 | 101° | 37km/h | 15172m | 6.1m/s | -57.3°C | 3.7% | 126.0hPa | 2.7V | 00:00:00 | 00:00:00 | 00:00:00 | |
| ATIDSZ-14 | 2026-08-31 00:04:00 | 47.38424 | 19.61794 | 93° | 31km/h | 15156m | 4.5m/s | -57.4°C | 3.7% | 126.3hPa | 2.7V | 00:00:00 | 00:00:00 | 00:00:00 | |
| OM5KV | 2026-08-31 00:03:58 | 47.38425 | 19.61772 | 99° | 29km/h | 15148m | 5.3m/s | -57.4°C | 3.7% | 126.5hPa | 2.7V | 00:00:00 | 00:00:00 | 00:00:00 | |
| OM5KV | 2026-08-31 00:03:53 | 47.38434 | 19.61721 | 106° | 40km/h | 15128m | 4.6m/s | -57.3°C | 3.8% | 126.9hPa | 2.7V | 00:00:00 | 00:00:00 | 00:00:00 | |
| OM5KV | 2026-08-31 00:03:44 | 47.38463 | 19.61599 | 107° | 40km/h | 15082m | 5.0m/s | -57.4°C | 3.9% | 127.8hPa | 2.7V | 00:00:00 | 00:00:00 | 00:00:00 | |
| GYPAP8-17 | 2026-08-31 00:03:43 | 47.38470 | 19.61569 | 112° | 46km/h | 15071m | 5.1m/s | -57.4°C | 4.0% | 128.1hPa | 2.7V | 00:00:00 | 00:00:00 | 00:00:00 | |
| OM5KV | 2026-08-31 00:03:39 | 47.38485 | 19.61523 | 120° | 47km/h | 15055m | 4.9m/s | -57.4°C | 4.0% | 128.4hPa | 2.7V | 00:00:00 | 00:00:00 | 00:00:00 | |
| ATIDSZ-14 | 2026-08-31 00:03:38 | 47.38491 | 19.61507 | 119° | 49km/h | 15050m | 6.7m/s | -57.4°C | 4.1% | 128.5hPa | 2.7V | 00:00:00 | 00:00:00 | 00:00:00 | |
| OM5KV | 2026-08-31 00:03:36 | 47.38508 | 19.61459 | 118° | 46km/h | 15035m | 4.4m/s | -57.4°C | 4.1% | 128.8hPa | 2.7V | 00:00:00 | 00:00:00 | 00:00:00 | |
| OM5KV | 2026-08-31 00:03:32 | 47.38528 | 19.61380 | 114° | 47km/h | 15010m | 5.8m/s | -57.5°C | 4.1% | 129.3hPa | 2.7V | 00:00:00 | 00:00:00 | 00:00:00 | |
| OM5KV | 2026-08-31 00:03:30 | 47.38545 | 19.61328 | 117° | 57km/h | 14995m | 5.7m/s | -57.6°C | 4.3% | 129.6hPa | 2.7V | 00:00:00 | 00:00:00 | 00:00:00 | |
| OM5KV | 2026-08-31 00:03:25 | 47.38558 | 19.61288 | 117° | 60km/h | 14985m | 6.1m/s | -57.5°C | 4.2% | 129.8hPa | 2.7V | 00:00:00 | 00:00:00 | 00:00:00 | |
| OM5KV | 2026-08-31 00:03:21 | 47.38581 | 19.61208 | 111° | 58km/h | 14962m | 4.5m/s | -57.6°C | 4.3% | 130.3hPa | 2.7V | 00:00:00 | 00:00:00 | 00:00:00 | |
| ATIDSZ-14 | 2026-08-31 00:03:20 | 47.38596 | 19.61131 | 104° | 49km/h | 14942m | 5.3m/s | -57.5°C | 4.2% | 130.7hPa | 2.7V | 00:00:00 | 00:00:00 | 00:00:00 | |
| OM5KV | 2026-08-31 00:03:18 | 47.38603 | 19.61095 | 106° | 51km/h | 14932m | 3.3m/s | -57.5°C | 4.3% | 130.9hPa | 2.7V | 00:00:00 | 00:00:00 | 00:00:00 | |
| OM5KV | 2026-08-31 00:03:16 | 47.38610 | 19.61054 | 107° | 64km/h | 14921m | 6.4m/s | -57.6°C | 4.3% | 131.1hPa | 2.7V | 00:00:00 | 00:00:00 | 00:00:00 | |
| OM5KV | 2026-08-31 00:03:11 | 47.38632 | 19.60947 | 109° | 73km/h | 14898m | 5.9m/s | -57.6°C | 4.3% | 131.6hPa | 2.7V | 00:00:00 | 00:00:00 | 00:00:00 | |
| OM5KV | 2026-08-31 00:03:03 | 47.38660 | 19.60802 | 104° | 66km/h | 14865m | 6.2m/s | -57.6°C | 4.3% | 132.3hPa | 2.7V | 00:00:00 | 00:00:00 | 00:00:00 | |
| ATIDSZ-14 | 2026-08-31 00:02:56 | 47.38753 | 19.59489 | 97° | 75km/h | 14624m | 4.1m/s | -57.4°C | 4.0% | 137.5hPa | 2.7V | 00:00:00 | 00:00:00 | 00:00:00 | |
| OM5KV | 2026-08-31 00:02:45 | 47.38760 | 19.59327 | 89° | 69km/h | 14594m | 6.6m/s | -57.8°C | 4.1% | 138.1hPa | 2.7V | 00:00:00 | 00:00:00 | 00:00:00 | |
| OM5KV | 2026-08-31 00:02:44 | 47.38760 | 19.59302 | 90° | 64km/h | 14588m | 4.4m/s | -57.8°C | 4.1% | 138.2hPa | 2.7V | 00:00:00 | 00:00:00 | 00:00:00 | |
| OM5KV | 2026-08-31 00:02:35 | 47.38766 | 19.59166 | 101° | 64km/h | 14557m | 5.6m/s | -58.0°C | 4.2% | 138.9hPa | 2.7V | 00:00:00 | 00:00:00 | 00:00:00 | |
| OM5KV | 2026-08-31 00:02:24 | 47.38784 | 19.59009 | 99° | 75km/h | 14526m | 5.2m/s | -58.2°C | 4.4% | 139.6hPa | 2.7V | 00:00:00 | 00:00:00 | 00:00:00 | |
| ATIDSZ-14 | 2026-08-31 00:02:22 | 47.38788 | 19.58956 | 96° | 69km/h | 14516m | 6.3m/s | -58.3°C | 4.3% | 139.8hPa | 2.7V | 00:00:00 | 00:00:00 | 00:00:00 | |
| OM5KV | 2026-08-31 00:02:06 | 47.38823 | 19.58633 | 102° | 66km/h | 14451m | 5.5m/s | -59.0°C | 4.4% | 141.3hPa | 2.7V | 00:00:00 | 00:00:00 | 00:00:00 | |
| OM5KV | 2026-08-31 00:02:03 | 47.38829 | 19.58583 | 101° | 71km/h | 14442m | 5.8m/s | -59.0°C | 4.4% | 141.5hPa | 2.7V | 00:00:00 | 00:00:00 | 00:00:00 | |
| GYPAP8-17 | 2026-08-31 00:01:55 | 47.38840 | 19.58474 | 98° | 75km/h | 14421m | 4.1m/s | -59.2°C | 4.3% | 141.9hPa | 2.7V | 00:00:00 | 00:00:00 | 00:00:00 | |
| OM5KV | 2026-08-31 00:01:53 | 47.38842 | 19.58446 | 98° | 77km/h | 14416m | 6.5m/s | -59.2°C | 4.4% | 142.1hPa | 2.7V | 00:00:00 | 00:00:00 | 00:00:00 | |
| ATIDSZ-14 | 2026-08-31 00:01:52 | 47.38844 | 19.58417 | 99° | 77km/h | 14410m | 4.4m/s | -59.3°C | 4.4% | 142.2hPa | 2.7V | 00:00:00 | 00:00:00 | 00:00:00 | |
| OE3JTB-15 | 2026-08-31 00:01:46 | 47.38863 | 19.58231 | 96° | 68km/h | 14375m | 5.5m/s | -59.3°C | 8.7% | 143.0hPa | 2.7V | 00:00:00 | 00:00:00 | 08:30:00 | |
| OM5KV | 2026-08-31 00:01:45 | 47.38858 | 19.58283 | 101° | 71km/h | 14384m | 4.6m/s | -59.3°C | 4.4% | 142.8hPa | 2.7V | 00:00:00 | 00:00:00 | 00:00:00 | |
| OM5KV | 2026-08-31 00:01:37 | 47.38865 | 19.58179 | 95° | 69km/h | 14364m | 5.6m/s | -59.2°C | 4.4% | 143.2hPa | 2.7V | 00:00:00 | 00:00:00 | 00:00:00 | |
| OM5KV | 2026-08-31 00:01:36 | 47.38866 | 19.58153 | 93° | 68km/h | 14359m | 4.0m/s | -59.2°C | 4.3% | 143.4hPa | 2.7V | 00:00:00 | 00:00:00 | 00:00:00 | |
| OM5KV | 2026-08-31 00:01:29 | 47.38870 | 19.58006 | 94° | 66km/h | 14330m | 4.5m/s | -59.1°C | 4.4% | 144.0hPa | 2.7V | 00:00:00 | 00:00:00 | 00:00:00 | |
| OM5KV | 2026-08-31 00:01:28 | 47.38870 | 19.58006 | 94° | 66km/h | 14330m | 4.5m/s | -59.1°C | 4.4% | 144.0hPa | 2.7V | 00:00:00 | 00:00:00 | 00:00:00 | |
| ATIDSZ-14 | 2026-08-31 00:01:24 | 47.38878 | 19.57908 | 100° | 66km/h | 14310m | 6.0m/s | -59.2°C | 4.5% | 144.5hPa | 2.7V | 00:00:00 | 00:00:00 | 00:00:00 | |
| OM5KV | 2026-08-31 00:01:23 | 47.38880 | 19.57884 | 98° | 66km/h | 14305m | 4.2m/s | -59.2°C | 4.4% | 144.6hPa | 2.7V | 00:00:00 | 00:00:00 | 00:00:00 | |
| OM5KV | 2026-08-31 00:01:19 | 47.38887 | 19.57810 | 98° | 68km/h | 14290m | 3.6m/s | -59.2°C | 4.5% | 145.0hPa | 2.7V | 00:00:00 | 00:00:00 | 00:00:00 | |
| OM5KV | 2026-08-31 00:01:13 | 47.38893 | 19.57712 | 96° | 66km/h | 14270m | 5.6m/s | -59.1°C | 4.5% | 145.4hPa | 2.7V | 00:00:00 | 00:00:00 | 00:00:00 | |
| OM5KV | 2026-08-31 00:01:12 | 47.38894 | 19.57688 | 96° | 68km/h | 14265m | 4.4m/s | -59.1°C | 4.5% | 145.6hPa | 2.7V | 00:00:00 | 00:00:00 | 00:00:00 | |
| OM5KV | 2026-08-31 00:01:10 | 47.38899 | 19.57588 | 97° | 68km/h | 14244m | 4.3m/s | -59.0°C | 4.6% | 146.0hPa | 2.7V | 00:00:00 | 00:00:00 | 00:00:00 | |
| OM5KV | 2026-08-31 00:01:07 | 47.38902 | 19.57540 | 96° | 66km/h | 14234m | 4.0m/s | -59.0°C | 4.6% | 146.3hPa | 2.7V | 00:00:00 | 00:00:00 | 00:00:00 | |
| OM5KV | 2026-08-31 00:00:59 | 47.38911 | 19.57442 | 100° | 66km/h | 14215m | 4.6m/s | -59.0°C | 4.6% | 146.7hPa | 2.7V | 00:00:00 | 00:00:00 | 00:00:00 | |
| OM5KV | 2026-08-31 00:00:58 | 47.38914 | 19.57417 | 98° | 66km/h | 14209m | 6.6m/s | -59.0°C | 4.6% | 146.8hPa | 2.7V | 00:00:00 | 00:00:00 | 00:00:00 | |
| ATIDSZ-14 | 2026-08-31 00:00:57 | 47.38914 | 19.57417 | 98° | 66km/h | 14209m | 6.6m/s | -59.0°C | 4.6% | 146.8hPa | 2.7V | 00:00:00 | 00:00:00 | 00:00:00 | |
| OE3JTB-15 | 2026-08-31 00:00:53 | 47.38919 | 19.57247 | 93° | 69km/h | 14172m | 5.9m/s | -58.7°C | 8.8% | 147.7hPa | 2.7V | 00:00:00 | 00:00:00 | 00:00:00 | |
| OM5KV | 2026-08-31 00:00:52 | 47.38919 | 19.57297 | 90° | 66km/h | 14182m | 4.8m/s | -58.8°C | 4.5% | 147.5hPa | 2.7V | 00:00:00 | 00:00:00 | 00:00:00 | |
| OM5KV | 2026-08-31 00:00:45 | 47.38927 | 19.57142 | 99° | 75km/h | 14152m | 6.5m/s | -58.6°C | 4.6% | 148.2hPa | 2.7V | 00:00:00 | 00:00:00 | 00:00:00 | |
| OM5KV | 2026-08-31 00:00:40 | 47.38943 | 19.56965 | 99° | 64km/h | 14117m | 4.0m/s | -58.7°C | 4.8% | 149.0hPa | 2.7V | 00:00:00 | 00:00:00 | 00:00:00 | |
| OM5KV | 2026-08-31 00:00:38 | 47.38946 | 19.56942 | 100° | 62km/h | 14111m | 6.4m/s | -58.7°C | 4.8% | 149.2hPa | 2.7V | 00:00:00 | 00:00:00 | 00:00:00 | |
| ATIDSZ-14 | 2026-08-31 00:00:35 | 47.38956 | 19.56869 | 105° | 71km/h | 14095m | 4.6m/s | -58.6°C | 4.9% | 149.6hPa | 2.7V | 00:00:00 | 00:00:00 | 00:00:00 | |
| OM5KV | 2026-08-31 00:00:33 | 47.38971 | 19.56790 | 107° | 73km/h | 14081m | 3.3m/s | -58.7°C | 5.0% | 149.9hPa | 2.7V | 00:00:00 | 00:00:00 | 00:00:00 | |
| OM5KV | 2026-08-31 00:00:28 | 47.38989 | 19.56663 | 98° | 57km/h | 14054m | 6.0m/s | -58.6°C | 5.0% | 150.6hPa | 2.7V | 00:00:00 | 00:00:00 | 00:00:00 | |
| OE3JTB-15 | 2026-08-31 00:00:25 | 47.39002 | 19.56517 | 107° | 69km/h | 14012m | 7.0m/s | -58.6°C | 9.4% | 151.5hPa | 2.7V | 00:00:00 | 01:05:52 | 00:00:00 | |
| OM5KV | 2026-08-31 00:00:22 | 47.38998 | 19.56540 | 105° | 64km/h | 14021m | 10.3m/s | -58.6°C | 5.1% | 151.3hPa | 2.7V | 00:00:00 | 00:00:00 | 00:00:00 | |
| OM5KV | 2026-08-31 00:00:14 | 47.39027 | 19.56397 | 105° | 66km/h | 13977m | 4.4m/s | -58.8°C | 5.5% | 152.4hPa | 2.7V | 00:00:00 | 00:00:00 | 00:00:00 | |
| ATIDSZ-14 | 2026-08-31 00:00:13 | 47.39027 | 19.56397 | 105° | 66km/h | 13977m | 4.4m/s | -58.8°C | 5.5% | 152.4hPa | 2.7V | 00:00:00 | 00:00:00 | 00:00:00 | |
| OM5KV | 2026-08-31 00:00:10 | 47.39046 | 19.56269 | 104° | 71km/h | 13944m | 9.4m/s | -58.9°C | 5.6% | 153.2hPa | 2.7V | 00:00:00 | 00:00:00 | 00:00:00 | |
| OM5KV | 2026-08-31 00:00:02 | 47.39079 | 19.56114 | 111° | 73km/h | 13904m | 4.2m/s | -58.7°C | 5.6% | 154.2hPa | 2.7V | 00:00:00 | 00:00:00 | 00:00:00 | |
| OM5KV | 2026-08-30 23:59:56 | 47.39115 | 19.55981 | 111° | 80km/h | 13871m | 7.8m/s | -58.8°C | 5.9% | 154.9hPa | 2.7V | 00:00:00 | 00:00:00 | 00:00:00 | |
| ATIDSZ-14 | 2026-08-30 23:59:51 | 47.39132 | 19.55838 | 98° | 73km/h | 13839m | 5.5m/s | -59.0°C | 6.1% | 155.7hPa | 2.7V | 00:00:00 | 00:00:00 | 00:00:00 | |
| OM5KV | 2026-08-30 23:59:50 | 47.39134 | 19.55812 | 98° | 71km/h | 13832m | 7.3m/s | -59.0°C | 6.0% | 155.9hPa | 2.7V | 00:00:00 | 00:00:00 | 00:00:00 | |
| OE3JTB-15 | 2026-08-30 23:59:47 | 47.39160 | 19.55647 | 107° | 77km/h | 13790m | 7.0m/s | -59.2°C | 11.0% | 156.9hPa | 2.7V | 00:00:00 | 00:00:00 | 00:00:00 | |
| OM5KV | 2026-08-30 23:59:46 | 47.39153 | 19.55679 | 107° | 86km/h | 13796m | 6.2m/s | -59.2°C | 6.3% | 156.8hPa | 0V | 00:00:00 | 00:00:00 | 00:00:00 | |
| OM5KV | 2026-08-30 23:59:39 | 47.39182 | 19.55494 | 101° | 73km/h | 13756m | 6.8m/s | -59.3°C | 6.6% | 157.8hPa | 0V | 00:00:00 | 00:00:00 | 00:00:00 | |
| OM5KV | 2026-08-30 23:59:33 | 47.39199 | 19.55337 | 100° | 78km/h | 13717m | 5.2m/s | -59.3°C | 6.6% | 158.8hPa | 0V | 00:00:00 | 00:00:00 | 00:00:00 | |
| ATIDSZ-14 | 2026-08-30 23:59:30 | 47.39209 | 19.55247 | 101° | 84km/h | 13699m | 4.8m/s | -59.3°C | 6.5% | 159.3hPa | 0V | 00:00:00 | 00:00:00 | 00:00:00 | |
| OM5KV | 2026-08-30 23:59:28 | 47.39216 | 19.55186 | 97° | 78km/h | 13686m | 5.1m/s | -59.2°C | 6.4% | 159.6hPa | 0V | 00:00:00 | 00:00:00 | 00:00:00 | |
| OM5KV | 2026-08-30 23:59:27 | 47.39218 | 19.55158 | 96° | 77km/h | 13680m | 7.4m/s | -59.3°C | 6.5% | 159.8hPa | 0V | 00:00:00 | 00:00:00 | 00:00:00 | |
| OM5KV | 2026-08-30 23:59:23 | 47.39221 | 19.55047 | 92° | 73km/h | 13653m | 4.3m/s | -59.2°C | 6.6% | 160.5hPa | 0V | 00:00:00 | 00:00:00 | 00:00:00 | |
| OM5KV | 2026-08-30 23:59:22 | 47.39221 | 19.55020 | 91° | 73km/h | 13647m | 8.1m/s | -59.1°C | 6.6% | 160.6hPa | 0V | 00:00:00 | 00:00:00 | 00:00:00 | |
| OE3JTB-15 | 2026-08-30 23:59:18 | 47.39229 | 19.54858 | 100° | 69km/h | 13614m | 4.0m/s | -59.0°C | 11.2% | 161.4hPa | 0V | 00:00:00 | 00:00:00 | 00:00:00 | |
| OM5KV | 2026-08-30 23:59:17 | 47.39226 | 19.54885 | 100° | 71km/h | 13619m | 6.8m/s | -59.0°C | 6.7% | 161.3hPa | 0V | 00:00:00 | 00:00:00 | 00:00:00 | |
| OM5KV | 2026-08-30 23:59:11 | 47.39231 | 19.54719 | 87° | 77km/h | 13587m | 6.6m/s | -59.2°C | 6.4% | 162.1hPa | 0V | 00:00:00 | 00:00:00 | 00:00:00 | |
| ATIDSZ-14 | 2026-08-30 23:59:09 | 47.39230 | 19.54666 | 92° | 68km/h | 13576m | 3.4m/s | -59.3°C | 6.5% | 162.4hPa | 0V | 00:00:00 | 00:00:00 | 00:00:00 | |
| OM5KV | 2026-08-30 23:59:06 | 47.39234 | 19.54589 | 97° | 69km/h | 13559m | 6.3m/s | -59.2°C | 6.4% | 162.8hPa | 0V | 00:00:00 | 00:00:00 | 00:00:00 | |
| OM5KV | 2026-08-30 23:59:00 | 47.39253 | 19.54432 | 102° | 71km/h | 13523m | 4.1m/s | -59.3°C | 6.6% | 163.8hPa | 0V | 00:00:00 | 00:00:00 | 00:00:00 | |
| OM5KV | 2026-08-30 23:58:59 | 47.39256 | 19.54406 | 102° | 69km/h | 13520m | 3.5m/s | -59.3°C | 6.6% | 163.9hPa | 0V | 00:00:00 | 00:00:00 | 00:00:00 | |
| OM5KV | 2026-08-30 23:58:54 | 47.39276 | 19.54286 | 103° | 64km/h | 13492m | 4.8m/s | -59.0°C | 6.5% | 164.6hPa | 0V | 00:00:00 | 00:00:00 | 00:00:00 | |
| OM5KV | 2026-08-30 23:58:53 | 47.39279 | 19.54263 | 103° | 62km/h | 13488m | 4.6m/s | -59.0°C | 6.5% | 164.7hPa | 0V | 00:00:00 | 00:00:00 | 00:00:00 | |
| OE3JTB-15 | 2026-08-30 23:58:49 | 47.39301 | 19.54120 | 99° | 68km/h | 13457m | 4.7m/s | -58.8°C | 11.1% | 165.5hPa | 0V | 00:00:00 | 01:04:22 | 00:00:00 | |
| OM5KV | 2026-08-30 23:58:47 | 47.39301 | 19.54120 | 99° | 71km/h | 13457m | 4.8m/s | -58.9°C | 6.4% | 165.5hPa | 0V | 00:00:00 | 00:00:00 | 00:00:00 | |
| OM5KV | 2026-08-30 23:58:43 | 47.39315 | 19.54014 | 105° | 68km/h | 13434m | 6.7m/s | -58.9°C | 6.6% | 166.1hPa | 0V | 00:00:00 | 00:00:00 | 00:00:00 | |
| OM5KV | 2026-08-30 23:58:36 | 47.39345 | 19.53851 | 101° | 69km/h | 13396m | 6.8m/s | -58.6°C | 6.5% | 167.1hPa | 0V | 00:00:00 | 00:00:00 | 00:00:00 | |
| OM5KV | 2026-08-30 23:58:35 | 47.39347 | 19.53825 | 98° | 68km/h | 13390m | 4.8m/s | -58.6°C | 6.6% | 167.3hPa | 0V | 00:00:00 | 00:00:00 | 00:00:00 | |
| OM5KV | 2026-08-30 23:58:31 | 47.39358 | 19.53724 | 102° | 68km/h | 13369m | 6.4m/s | -58.4°C | 6.6% | 167.8hPa | 0V | 00:00:00 | 00:00:00 | 00:00:00 | |
| OM5KV | 2026-08-30 23:58:29 | 47.39367 | 19.53677 | 113° | 64km/h | 13357m | 4.7m/s | -58.4°C | 6.7% | 168.2hPa | 0V | 00:00:00 | 00:00:00 | 00:00:00 | |
| ATIDSZ-14 | 2026-08-30 23:58:28 | 47.39373 | 19.53655 | 115° | 66km/h | 13351m | 5.9m/s | -58.4°C | 6.7% | 168.3hPa | 0V | 00:00:00 | 00:00:00 | 00:00:00 | |
| OM5KV | 2026-08-30 23:58:25 | 47.39394 | 19.53587 | 113° | 68km/h | 13334m | 4.2m/s | -58.3°C | 6.9% | 168.8hPa | 0V | 00:00:00 | 00:00:00 | 00:00:00 | |
| OM5KV | 2026-08-30 23:58:23 | 47.39406 | 19.53539 | 107° | 71km/h | 13323m | 4.6m/s | -58.2°C | 6.9% | 169.1hPa | 0V | 00:00:00 | 00:00:00 | 00:00:00 | |
| OE3JTB-15 | 2026-08-30 23:58:19 | 47.39422 | 19.53417 | 105° | 64km/h | 13296m | 6.1m/s | 0°C | 0% | 0hPa | 0V | 00:00:00 | 00:00:00 | 00:00:00 | |
| OM5KV | 2026-08-30 23:58:17 | 47.39426 | 19.53394 | 111° | 62km/h | 13291m | 4.0m/s | -58.3°C | 7.2% | 169.9hPa | 0V | 00:00:00 | 00:00:00 | 00:00:00 | |
| OM5KV | 2026-08-30 23:58:13 | 47.39449 | 19.53308 | 109° | 60km/h | 13267m | 4.5m/s | -58.2°C | 7.2% | 170.6hPa | 0V | 00:00:00 | 00:00:00 | 00:00:00 | |
| OM5KV | 2026-08-30 23:58:11 | 47.39463 | 19.53243 | 110° | 64km/h | 13248m | 8.9m/s | -58.2°C | 7.2% | 171.1hPa | 0V | 00:00:00 | 00:00:00 | 00:00:00 | |
| OM5KV | 2026-08-30 23:58:07 | 47.39482 | 19.53171 | 113° | 71km/h | 13228m | 6.6m/s | -58.3°C | 7.5% | 171.6hPa | 0V | 00:00:00 | 00:00:00 | 00:00:00 | |
| GYPAP8-17 | 2026-08-30 23:58:06 | 47.39488 | 19.53146 | 111° | 68km/h | 13222m | 5.9m/s | -58.3°C | 7.5% | 171.8hPa | 0V | 00:00:00 | 00:00:00 | 00:00:00 | |
| OM5KV | 2026-08-30 23:58:05 | 47.39493 | 19.53123 | 109° | 64km/h | 13216m | 6.0m/s | -58.4°C | 7.6% | 172.0hPa | 0V | 00:00:00 | 00:00:00 | 00:00:00 | |
| OM5KV | 2026-08-30 23:58:01 | 47.39510 | 19.53032 | 106° | 64km/h | 13192m | 4.4m/s | -58.4°C | 8.1% | 172.6hPa | 0V | 00:00:00 | 00:00:00 | 00:00:00 | |
| OM5KV | 2026-08-30 23:57:59 | 47.39519 | 19.52986 | 111° | 66km/h | 13183m | 4.8m/s | -58.5°C | 8.2% | 172.8hPa | 0V | 00:00:00 | 00:00:00 | 00:00:00 | |
| OM5KV | 2026-08-30 23:57:55 | 47.39542 | 19.52890 | 110° | 68km/h | 13162m | 6.5m/s | -58.5°C | 8.3% | 173.4hPa | 0V | 00:00:00 | 00:00:00 | 00:00:00 | |
| OE3JTB-15 | 2026-08-30 23:57:50 | 47.39569 | 19.52756 | 106° | 66km/h | 13131m | 3.5m/s | 0°C | 0% | 0hPa | 0V | 00:00:00 | 00:00:00 | 00:00:00 | |
| OM5KV | 2026-08-30 23:57:48 | 47.39573 | 19.52735 | 107° | 60km/h | 13127m | 5.3m/s | -58.6°C | 8.6% | 174.4hPa | 0V | 00:00:00 | 00:00:00 | 00:00:00 | |
| ATIDSZ-14 | 2026-08-30 23:57:47 | 47.39577 | 19.52712 | 108° | 64km/h | 13122m | 5.1m/s | -58.6°C | 8.8% | 174.6hPa | 0V | 00:00:00 | 00:00:00 | 00:00:00 | |
| OM5KV | 2026-08-30 23:57:42 | 47.39606 | 19.52599 | 114° | 66km/h | 13096m | 4.9m/s | -58.7°C | 9.2% | 175.2hPa | 0V | 00:00:00 | 00:00:00 | 00:00:00 | |
| OM5KV | 2026-08-30 23:57:41 | 47.39613 | 19.52577 | 114° | 64km/h | 13091m | 5.5m/s | -58.7°C | 9.3% | 175.4hPa | 0V | 00:00:00 | 00:00:00 | 00:00:00 | |
| OM5KV | 2026-08-30 23:57:37 | 47.39638 | 19.52492 | 115° | 64km/h | 13071m | 4.2m/s | -58.5°C | 9.6% | 176.0hPa | 0V | 00:00:00 | 00:00:00 | 00:00:00 | |
| OM5KV | 2026-08-30 23:57:35 | 47.39652 | 19.52448 | 116° | 66km/h | 13061m | 4.3m/s | -58.4°C | 9.7% | 176.3hPa | 0V | 00:00:00 | 00:00:00 | 00:00:00 | |
| OM5KV | 2026-08-30 23:57:31 | 47.39683 | 19.52356 | 120° | 68km/h | 13040m | 5.7m/s | -58.2°C | 10.0% | 176.9hPa | 0V | 00:00:00 | 00:00:00 | 00:00:00 | |
| OM5KV | 2026-08-30 23:57:29 | 47.39698 | 19.52312 | 118° | 66km/h | 13031m | 5.4m/s | -58.1°C | 10.1% | 177.1hPa | 0V | 00:00:00 | 00:00:00 | 00:00:00 | |
| ATIDSZ-14 | 2026-08-30 23:57:26 | 47.39721 | 19.52246 | 120° | 66km/h | 13016m | 6.9m/s | -58.0°C | 10.4% | 177.5hPa | 0V | 00:00:00 | 00:00:00 | 00:00:00 | |
| OM5KV | 2026-08-30 23:57:23 | 47.39747 | 19.52184 | 120° | 66km/h | 12999m | 6.0m/s | -57.9°C | 10.7% | 178.0hPa | 0V | 00:00:00 | 00:00:00 | 00:00:00 | |
| OM5KV | 2026-08-30 23:57:21 | 47.39770 | 19.52120 | 120° | 64km/h | 12983m | 5.8m/s | -57.7°C | 11.1% | 178.5hPa | 0V | 00:00:00 | 00:00:00 | 00:00:00 | |
| OM5KV | 2026-08-30 23:57:11 | 47.39839 | 19.51924 | 119° | 73km/h | 12934m | 6.7m/s | -57.6°C | 12.2% | 179.8hPa | 0V | 00:00:00 | 00:00:00 | 00:00:00 | |
| OM5KV | 2026-08-30 23:57:09 | 47.39857 | 19.51877 | 120° | 71km/h | 12923m | 6.9m/s | -57.7°C | 12.5% | 180.2hPa | 0V | 00:00:00 | 00:00:00 | 00:00:00 | |
| ATIDSZ-14 | 2026-08-30 23:57:05 | 47.39892 | 19.51787 | 122° | 69km/h | 12901m | 4.4m/s | -57.8°C | 13.7% | 180.8hPa | 0V | 00:00:00 | 00:00:00 | 00:00:00 | |
| OM5KV | 2026-08-30 23:57:04 | 47.39901 | 19.51765 | 121° | 68km/h | 12896m | 6.4m/s | -57.8°C | 13.9% | 181.0hPa | 0V | 00:00:00 | 00:00:00 | 00:00:00 | |
| OM5KV | 2026-08-30 23:56:59 | 47.39947 | 19.51654 | 122° | 77km/h | 12872m | 6.5m/s | -57.6°C | 15.0% | 181.6hPa | 0V | 00:00:00 | 00:00:00 | 00:00:00 | |
| OM5KV | 2026-08-30 23:56:58 | 47.39957 | 19.51629 | 121° | 78km/h | 12867m | 4.5m/s | -57.6°C | 15.4% | 181.8hPa | 0V | 00:00:00 | 00:00:00 | 00:00:00 | |
| OM5KV | 2026-08-30 23:56:54 | 47.39999 | 19.51529 | 122° | 75km/h | 12848m | 5.8m/s | -57.8°C | 16.8% | 182.4hPa | 0V | 00:00:00 | 00:00:00 | 00:00:00 | |
| OM5KV | 2026-08-30 23:56:53 | 47.40008 | 19.51505 | 121° | 73km/h | 12843m | 3.9m/s | -57.8°C | 17.2% | 182.5hPa | 0V | 00:00:00 | 00:00:00 | 00:00:00 | |
| OE3JTB-15 | 2026-08-30 23:56:52 | 47.40026 | 19.51460 | 123° | 75km/h | 12834m | 4.7m/s | 0°C | 0% | 0hPa | 0V | 00:00:00 | 00:00:00 | 00:00:00 | |
| OM5KV | 2026-08-30 23:56:49 | 47.40053 | 19.51393 | 120° | 71km/h | 12818m | 5.1m/s | -57.8°C | 19.0% | 183.2hPa | 0V | 00:00:00 | 00:00:00 | 00:00:00 | |
| OM5KV | 2026-08-30 23:56:47 | 47.40062 | 19.51369 | 121° | 71km/h | 12813m | 6.1m/s | -57.8°C | 19.6% | 183.4hPa | 0V | 00:00:00 | 00:00:00 | 00:00:00 | |
| ATIDSZ-14 | 2026-08-30 23:56:44 | 47.40090 | 19.51295 | 120° | 80km/h | 12797m | 4.4m/s | -57.8°C | 20.7% | 183.8hPa | 0V | 00:00:00 | 00:00:00 | 00:00:00 | |
| OM5KV | 2026-08-30 23:56:43 | 47.40100 | 19.51269 | 122° | 80km/h | 12792m | 6.4m/s | -57.8°C | 21.0% | 184.0hPa | 0V | 00:00:00 | 00:00:00 | 00:00:00 | |
| OM5KV | 2026-08-30 23:56:32 | 47.40201 | 19.50983 | 121° | 86km/h | 12736m | 4.8m/s | -57.7°C | 22.5% | 185.6hPa | 0V | 00:00:00 | 00:00:00 | 00:00:00 | |
| OM5KV | 2026-08-30 23:56:28 | 47.40249 | 19.50870 | 126° | 91km/h | 12716m | 5.4m/s | -57.6°C | 23.3% | 186.2hPa | 0V | 00:00:00 | 00:00:00 | 00:00:00 | |
| OM5KV | 2026-08-30 23:56:26 | 47.40274 | 19.50814 | 121° | 88km/h | 12706m | 5.0m/s | -57.5°C | 23.9% | 186.5hPa | 0V | 00:00:00 | 00:00:00 | 00:00:00 | |
| OM5KV | 2026-08-30 23:56:23 | 47.40303 | 19.50727 | 116° | 86km/h | 12689m | 5.4m/s | -57.5°C | 24.5% | 187.0hPa | 0V | 00:00:00 | 00:00:00 | 00:00:00 | |
| OM5KV | 2026-08-30 23:56:06 | 47.40467 | 19.50253 | 116° | 82km/h | 12580m | 7.1m/s | -57.8°C | 29.6% | 190.3hPa | 0V | 00:00:00 | 00:00:00 | 00:00:00 | |
| ATIDSZ-14 | 2026-08-30 23:56:03 | 47.40495 | 19.50169 | 119° | 84km/h | 12564m | 6.1m/s | -57.8°C | 30.0% | 190.7hPa | 0V | 00:00:00 | 00:00:00 | 00:00:00 | |
| OM5KV | 2026-08-30 23:55:58 | 47.40544 | 19.50034 | 117° | 86km/h | 12534m | 6.3m/s | -57.7°C | 30.8% | 191.6hPa | 0V | 00:00:00 | 00:00:00 | 00:00:00 | |
| OM5KV | 2026-08-30 23:55:55 | 47.40572 | 19.49947 | 116° | 86km/h | 12517m | 4.4m/s | -57.6°C | 31.6% | 192.1hPa | 0V | 00:00:00 | 00:00:00 | 00:00:00 | |
| OM5KV | 2026-08-30 23:55:53 | 47.40591 | 19.49889 | 117° | 88km/h | 12506m | 5.1m/s | -57.5°C | 31.7% | 192.5hPa | 0V | 00:00:00 | 00:00:00 | 00:00:00 | |
| OM5KV | 2026-08-30 23:55:49 | 47.40628 | 19.49776 | 117° | 86km/h | 12486m | 6.2m/s | -57.4°C | 32.4% | 193.1hPa | 0V | 00:00:00 | 00:00:00 | 00:00:00 | |
| OM5KV | 2026-08-30 23:55:48 | 47.40638 | 19.49747 | 116° | 88km/h | 12481m | 4.0m/s | -57.5°C | 32.9% | 193.2hPa | 0V | 00:00:00 | 00:00:00 | 00:00:00 | |
| ATIDSZ-14 | 2026-08-30 23:55:42 | 47.40690 | 19.49562 | 114° | 89km/h | 12450m | 5.3m/s | -57.5°C | 34.7% | 194.2hPa | 0V | 00:00:00 | 00:00:00 | 00:00:00 | |
| OM5KV | 2026-08-30 23:55:37 | 47.40737 | 19.49414 | 120° | 86km/h | 12425m | 5.5m/s | -57.8°C | 35.6% | 195.0hPa | 0V | 00:00:00 | 00:00:00 | 00:00:00 | |
| OM5KV | 2026-08-30 23:55:31 | 47.40799 | 19.49237 | 111° | 95km/h | 12394m | 5.7m/s | -57.8°C | 38.0% | 195.9hPa | 0V | 00:00:00 | 00:00:00 | 00:00:00 | |
| ATIDSZ-14 | 2026-08-30 23:55:21 | 47.40884 | 19.48937 | 115° | 80km/h | 12344m | 4.3m/s | -58.0°C | 43.1% | 197.5hPa | 0V | 00:00:00 | 00:00:00 | 00:00:00 | |
| OM5KV | 2026-08-30 23:55:20 | 47.40892 | 19.48909 | 114° | 82km/h | 12339m | 5.5m/s | -57.9°C | 42.7% | 197.6hPa | 0V | 00:00:00 | 00:00:00 | 00:00:00 | |
| OM5KV | 2026-08-30 23:55:19 | 47.40900 | 19.48880 | 112° | 86km/h | 12333m | 5.3m/s | -57.9°C | 43.0% | 197.8hPa | 0V | 00:00:00 | 00:00:00 | 00:00:00 | |
| OM5KV | 2026-08-30 23:55:15 | 47.40931 | 19.48759 | 115° | 84km/h | 12314m | 5.0m/s | -57.9°C | 43.6% | 198.4hPa | 0V | 00:00:00 | 00:00:00 | 00:00:00 | |
| OM5KV | 2026-08-30 23:55:10 | 47.40980 | 19.48619 | 118° | 86km/h | 12287m | 5.1m/s | -58.2°C | 45.5% | 199.3hPa | 0V | 00:00:00 | 00:00:00 | 00:00:00 | |
| OM5KV | 2026-08-30 23:55:08 | 47.40999 | 19.48563 | 117° | 84km/h | 12276m | 6.7m/s | -58.2°C | 46.3% | 199.6hPa | 0V | 00:00:00 | 00:00:00 | 00:00:00 | |
| OM5KV | 2026-08-30 23:55:04 | 47.41032 | 19.48445 | 111° | 89km/h | 12256m | 5.3m/s | -58.1°C | 47.5% | 200.3hPa | 0V | 00:00:00 | 00:00:00 | 00:00:00 | |
| OM5KV | 2026-08-30 23:55:03 | 47.41040 | 19.48413 | 113° | 89km/h | 12250m | 6.9m/s | -58.1°C | 48.3% | 200.4hPa | 0V | 00:00:00 | 00:00:00 | 00:00:00 | |
| ATIDSZ-14 | 2026-08-30 23:55:00 | 47.41066 | 19.48323 | 116° | 84km/h | 12234m | 5.1m/s | -58.0°C | 49.3% | 201.0hPa | 0V | 00:00:00 | 00:00:00 | 00:00:00 | |
| OM5KV | 2026-08-30 23:54:59 | 47.41075 | 19.48295 | 116° | 84km/h | 12229m | 4.1m/s | -58.0°C | 49.2% | 201.1hPa | 0V | 00:00:00 | 00:00:00 | 00:00:00 | |
| OM5KV | 2026-08-30 23:54:53 | 47.41133 | 19.48134 | 116° | 82km/h | 12200m | 5.3m/s | -58.1°C | 50.9% | 202.1hPa | 0V | 00:00:00 | 00:00:00 | 00:00:00 | |
| OM5KV | 2026-08-30 23:54:52 | 47.41142 | 19.48106 | 116° | 82km/h | 12194m | 5.7m/s | -58.2°C | 51.2% | 202.2hPa | 0V | 00:00:00 | 00:00:00 | 00:00:00 | |
| ATIDSZ-14 | 2026-08-30 23:54:39 | 47.41270 | 19.47729 | 120° | 91km/h | 12127m | 5.3m/s | -57.9°C | 55.4% | 204.4hPa | 0V | 00:00:00 | 00:00:00 | 00:00:00 | |
| OM5KV | 2026-08-30 23:54:30 | 47.41351 | 19.47451 | 116° | 88km/h | 12076m | 7.4m/s | -57.5°C | 53.0% | 206.0hPa | 0V | 00:00:00 | 00:00:00 | 00:00:00 | |
| OM5KV | 2026-08-30 23:54:28 | 47.41370 | 19.47391 | 115° | 91km/h | 12062m | 7.0m/s | -57.3°C | 53.0% | 206.5hPa | 0V | 00:00:00 | 00:00:00 | 00:00:00 | |
| GYPAP8-17 | 2026-08-30 23:54:22 | 47.41425 | 19.47203 | 112° | 91km/h | 12029m | 5.5m/s | -57.2°C | 52.9% | 207.6hPa | 0V | 00:00:00 | 00:00:00 | 00:00:00 | |
| ATIDSZ-14 | 2026-08-30 23:54:19 | 47.41449 | 19.47111 | 113° | 89km/h | 12014m | 5.3m/s | -57.0°C | 52.6% | 208.0hPa | 0V | 00:00:00 | 00:00:00 | 00:00:00 | |
| OM5KV | 2026-08-30 23:54:17 | 47.41467 | 19.47050 | 117° | 89km/h | 12003m | 6.1m/s | -57.0°C | 52.2% | 208.4hPa | 0V | 00:00:00 | 00:00:00 | 00:00:00 | |
| OM5KV | 2026-08-30 23:54:12 | 47.41517 | 19.46901 | 115° | 86km/h | 11979m | 4.8m/s | -56.9°C | 53.4% | 209.2hPa | 0V | 00:00:00 | 00:00:00 | 00:00:00 | |
| OM5KV | 2026-08-30 23:54:06 | 47.41562 | 19.46717 | 112° | 84km/h | 11950m | 4.7m/s | -56.8°C | 53.4% | 210.2hPa | 0V | 00:00:00 | 00:00:00 | 00:00:00 | |
| OM5KV | 2026-08-30 23:54:00 | 47.41614 | 19.46551 | 119° | 84km/h | 11919m | 4.9m/s | -56.7°C | 53.1% | 211.2hPa | 0V | 00:00:00 | 00:00:00 | 00:00:00 | |
| ATIDSZ-14 | 2026-08-30 23:53:59 | 47.41624 | 19.46523 | 117° | 86km/h | 11914m | 5.2m/s | -56.6°C | 53.3% | 211.4hPa | 0V | 00:00:00 | 00:00:00 | 00:00:00 | |
| OM5KV | 2026-08-30 23:53:55 | 47.41658 | 19.46404 | 114° | 88km/h | 11894m | 6.1m/s | -56.5°C | 52.9% | 212.0hPa | 0V | 00:00:00 | 00:00:00 | 00:00:00 | |
| OM5KV | 2026-08-30 23:53:54 | 47.41667 | 19.46374 | 113° | 86km/h | 11889m | 4.7m/s | -56.5°C | 53.3% | 212.2hPa | 0V | 00:00:00 | 00:00:00 | 00:00:00 | |
| OM5KV | 2026-08-30 23:53:49 | 47.41709 | 19.46237 | 120° | 78km/h | 11863m | 4.3m/s | -56.4°C | 54.5% | 213.0hPa | 0V | 00:00:00 | 00:00:00 | 00:00:00 | |
| OM5KV | 2026-08-30 23:53:48 | 47.41718 | 19.46211 | 119° | 78km/h | 11858m | 6.1m/s | -56.4°C | 55.2% | 213.2hPa | 0V | 00:00:00 | 00:00:00 | 00:00:00 | |
| OM5KV | 2026-08-30 23:53:43 | 47.41765 | 19.46074 | 116° | 82km/h | 11834m | 5.3m/s | -56.2°C | 55.8% | 214.0hPa | 0V | 00:00:00 | 00:00:00 | 00:00:00 | |
| ATIDSZ-14 | 2026-08-30 23:53:38 | 47.41811 | 19.45930 | 114° | 86km/h | 11807m | 4.3m/s | -56.0°C | 57.4% | 214.9hPa | 0V | 00:00:00 | 00:00:00 | 00:00:00 | |
| OM5KV | 2026-08-30 23:53:27 | 47.41895 | 19.45615 | 110° | 84km/h | 11747m | 7.4m/s | -55.7°C | 57.6% | 216.9hPa | 0V | 00:00:00 | 00:00:00 | 00:00:00 | |
| OM5KV | 2026-08-30 23:53:25 | 47.41910 | 19.45553 | 113° | 89km/h | 11732m | 5.5m/s | -55.6°C | 59.8% | 217.4hPa | 0V | 00:00:00 | 00:00:00 | 00:00:00 | |
| OM5KV | 2026-08-30 23:53:21 | 47.41944 | 19.45437 | 114° | 82km/h | 11712m | 5.1m/s | -55.5°C | 61.3% | 218.2hPa | 0V | 00:00:00 | 00:00:00 | 00:00:00 | |
| ATIDSZ-14 | 2026-08-30 23:53:17 | 47.41975 | 19.45330 | 119° | 78km/h | 11691m | 4.8m/s | -55.4°C | 61.6% | 218.9hPa | 0V | 00:00:00 | 00:00:00 | 00:00:00 | |
| GYPAP8-17 | 2026-08-30 23:53:06 | 47.42059 | 19.45018 | 115° | 89km/h | 11631m | 4.3m/s | -55.0°C | 60.1% | 221.0hPa | 0V | 00:00:00 | 00:00:00 | 00:00:00 | |
| OM5KV | 2026-08-30 23:53:04 | 47.42078 | 19.44955 | 114° | 95km/h | 11620m | 6.7m/s | -54.9°C | 59.0% | 221.3hPa | 0V | 00:00:00 | 00:00:00 | 00:00:00 | |
| OM5KV | 2026-08-30 23:53:02 | 47.42095 | 19.44889 | 110° | 93km/h | 11608m | 5.6m/s | -54.8°C | 60.4% | 221.8hPa | 0V | 00:00:00 | 00:00:00 | 00:00:00 | |
| OM5KV | 2026-08-30 23:52:58 | 47.42123 | 19.44766 | 110° | 84km/h | 11587m | 6.2m/s | -54.6°C | 60.4% | 222.5hPa | 0V | 00:00:00 | 00:00:00 | 00:00:00 | |
| OM5KV | 2026-08-30 23:52:57 | 47.42130 | 19.44737 | 110° | 82km/h | 11582m | 4.0m/s | -54.6°C | 60.3% | 222.7hPa | 0V | 00:00:00 | 00:00:00 | 00:00:00 | |
| ATIDSZ-14 | 2026-08-30 23:52:56 | 47.42136 | 19.44708 | 109° | 80km/h | 11577m | 6.0m/s | -54.6°C | 59.8% | 222.8hPa | 0V | 00:00:00 | 00:00:00 | 00:00:00 | |
| OM5KV | 2026-08-30 23:52:52 | 47.42167 | 19.44557 | 112° | 88km/h | 11553m | 3.9m/s | -54.4°C | 58.5% | 223.7hPa | 0V | 00:00:00 | 00:00:00 | 00:00:00 | |
| OM5KV | 2026-08-30 23:52:51 | 47.42167 | 19.44557 | 112° | 88km/h | 11553m | 3.9m/s | -54.4°C | 58.5% | 223.7hPa | 0V | 00:00:00 | 00:00:00 | 00:00:00 | |
| OM5KV | 2026-08-30 23:52:46 | 47.42201 | 19.44408 | 106° | 80km/h | 11528m | 5.7m/s | -54.3°C | 59.4% | 224.6hPa | 0V | 00:00:00 | 00:00:00 | 00:00:00 | |
| OM5KV | 2026-08-30 23:52:45 | 47.42206 | 19.44380 | 109° | 80km/h | 11523m | 5.8m/s | -54.3°C | 59.2% | 224.7hPa | 0V | 00:00:00 | 00:00:00 | 00:00:00 | |
| OM5KV | 2026-08-30 23:52:40 | 47.42238 | 19.44236 | 108° | 82km/h | 11498m | 4.8m/s | -54.1°C | 58.2% | 225.7hPa | 0V | 00:00:00 | 00:00:00 | 00:00:00 | |
| OM5KV | 2026-08-30 23:52:39 | 47.42245 | 19.44206 | 109° | 84km/h | 11492m | 5.6m/s | -54.0°C | 57.9% | 225.8hPa | 0V | 00:00:00 | 00:00:00 | 00:00:00 | |
| ATIDSZ-14 | 2026-08-30 23:52:35 | 47.42270 | 19.44089 | 109° | 78km/h | 11471m | 4.5m/s | -53.9°C | 57.6% | 226.6hPa | 0V | 00:00:00 | 00:00:00 | 00:00:00 | |
| OM5KV | 2026-08-30 23:52:34 | 47.42276 | 19.44060 | 108° | 80km/h | 11465m | 6.1m/s | -53.8°C | 57.3% | 226.8hPa | 0V | 00:00:00 | 00:00:00 | 00:00:00 | |
| OM5KV | 2026-08-30 23:52:28 | 47.42305 | 19.43884 | 104° | 84km/h | 11435m | 5.5m/s | -53.6°C | 57.7% | 227.9hPa | 0V | 00:00:00 | 00:00:00 | 00:00:00 | |
| OM5KV | 2026-08-30 23:52:23 | 47.42330 | 19.43741 | 107° | 75km/h | 11409m | 7.1m/s | -53.4°C | 58.1% | 228.8hPa | 0V | 00:00:00 | 00:00:00 | 00:00:00 | |
| OM5KV | 2026-08-30 23:52:22 | 47.42336 | 19.43715 | 109° | 77km/h | 11404m | 3.9m/s | -53.3°C | 58.7% | 229.0hPa | 0V | 00:00:00 | 00:00:00 | 00:00:00 | |
| OM5KV | 2026-08-30 23:52:16 | 47.42368 | 19.43550 | 105° | 80km/h | 11372m | 3.2m/s | -53.1°C | 59.2% | 230.1hPa | 0V | 00:00:00 | 00:00:00 | 00:00:00 | |
| ATIDSZ-14 | 2026-08-30 23:52:15 | 47.42373 | 19.43520 | 102° | 82km/h | 11366m | 7.6m/s | -53.1°C | 58.4% | 230.3hPa | 0V | 00:00:00 | 00:00:00 | 00:00:00 | |
| OM5KV | 2026-08-30 23:52:11 | 47.42386 | 19.43407 | 102° | 77km/h | 11342m | 7.9m/s | -52.8°C | 57.9% | 231.2hPa | 0V | 00:00:00 | 00:00:00 | 00:00:00 | |
| OM5KV | 2026-08-30 23:52:10 | 47.42390 | 19.43378 | 104° | 80km/h | 11335m | 6.6m/s | -52.8°C | 58.2% | 231.4hPa | 0V | 00:00:00 | 00:00:00 | 00:00:00 | |
| OM5KV | 2026-08-30 23:52:06 | 47.42411 | 19.43265 | 109° | 73km/h | 11307m | 4.5m/s | -52.5°C | 58.2% | 232.4hPa | 0V | 00:00:00 | 00:00:00 | 00:00:00 | |
| OM5KV | 2026-08-30 23:52:05 | 47.42417 | 19.43240 | 111° | 69km/h | 11302m | 6.9m/s | -52.5°C | 57.8% | 232.6hPa | 0V | 00:00:00 | 00:00:00 | 00:00:00 | |
| GYPAP8-17 | 2026-08-30 23:52:01 | 47.42441 | 19.43143 | 106° | 77km/h | 11277m | 6.0m/s | -52.3°C | 58.2% | 233.6hPa | 0V | 00:00:00 | 00:00:00 | 00:00:00 | |
| OM5KV | 2026-08-30 23:51:59 | 47.42449 | 19.43087 | 100° | 80km/h | 11263m | 5.7m/s | -52.1°C | 57.6% | 234.0hPa | 0V | 00:00:00 | 00:00:00 | 00:00:00 | |
| ATIDSZ-14 | 2026-08-30 23:51:55 | 47.42461 | 19.42970 | 106° | 73km/h | 11237m | 5.5m/s | -51.9°C | 57.2% | 234.9hPa | 0V | 00:00:00 | 00:00:00 | 00:00:00 | |
| OM5KV | 2026-08-30 23:51:54 | 47.42467 | 19.42944 | 110° | 73km/h | 11232m | 5.0m/s | -51.9°C | 56.0% | 235.2hPa | 0V | 00:00:00 | 00:00:00 | 00:00:00 | |
| OM5KV | 2026-08-30 23:51:48 | 47.42501 | 19.42792 | 107° | 77km/h | 11189m | 6.7m/s | -51.5°C | 55.2% | 236.7hPa | 0V | 00:00:00 | 00:00:00 | 00:00:00 | |
| OM5KV | 2026-08-30 23:51:42 | 47.42523 | 19.42615 | 103° | 78km/h | 11154m | 7.8m/s | -51.1°C | 53.0% | 237.9hPa | 0V | 00:00:00 | 00:00:00 | 00:00:00 | |
| OM5KV | 2026-08-30 23:51:35 | 47.42559 | 19.42430 | 102° | 66km/h | 11111m | 5.5m/s | -50.8°C | 53.5% | 239.5hPa | 0V | 00:00:00 | 00:00:00 | 00:00:00 | |
| ATIDSZ-14 | 2026-08-30 23:51:34 | 47.42562 | 19.42406 | 104° | 68km/h | 11104m | 6.6m/s | -50.7°C | 53.9% | 239.7hPa | 0V | 00:00:00 | 00:00:00 | 00:00:00 | |
| OM5KV | 2026-08-30 23:51:31 | 47.42574 | 19.42326 | 103° | 77km/h | 11090m | 5.3m/s | -50.6°C | 53.8% | 240.3hPa | 0V | 00:00:00 | 00:00:00 | 00:00:00 | |
| OM5KV | 2026-08-30 23:51:30 | 47.42578 | 19.42299 | 100° | 73km/h | 11086m | 5.3m/s | -50.5°C | 53.5% | 240.5hPa | 0V | 00:00:00 | 00:00:00 | 00:00:00 | |
| OM5KV | 2026-08-30 23:51:25 | 47.42590 | 19.42168 | 105° | 75km/h | 11059m | 4.6m/s | -50.3°C | 55.5% | 241.4hPa | 0V | 00:00:00 | 00:00:00 | 00:00:00 | |
| OM5KV | 2026-08-30 23:51:24 | 47.42595 | 19.42142 | 108° | 75km/h | 11055m | 4.4m/s | -50.3°C | 54.9% | 241.6hPa | 0V | 00:00:00 | 00:00:00 | 00:00:00 | |
| OM5KV | 2026-08-30 23:51:18 | 47.42639 | 19.41984 | 110° | 73km/h | 11027m | 3.3m/s | -50.0°C | 55.9% | 242.7hPa | 0V | 00:00:00 | 00:00:00 | 00:00:00 | |
| ATIDSZ-14 | 2026-08-30 23:51:14 | 47.42654 | 19.41873 | 101° | 78km/h | 10997m | 10.0m/s | -49.7°C | 53.0% | 243.8hPa | 0V | 00:00:00 | 00:00:00 | 00:00:00 | |
| OM5KV | 2026-08-30 23:51:12 | 47.42662 | 19.41815 | 103° | 80km/h | 10980m | 6.6m/s | -49.6°C | 53.2% | 244.4hPa | 0V | 00:00:00 | 00:00:00 | 00:00:00 | |
| GYPAP8-17 | 2026-08-30 23:51:09 | 47.42677 | 19.41730 | 107° | 80km/h | 10960m | 7.4m/s | -49.5°C | 53.4% | 245.1hPa | 0V | 00:00:00 | 00:00:00 | 00:00:00 | |
| OM5KV | 2026-08-30 23:51:06 | 47.42697 | 19.41641 | 109° | 82km/h | 10942m | 6.0m/s | -49.4°C | 54.9% | 245.8hPa | 0V | 00:00:00 | 00:00:00 | 00:00:00 | |
| OM5KV | 2026-08-30 23:51:03 | 47.42712 | 19.41558 | 101° | 75km/h | 10925m | 7.5m/s | -49.2°C | 54.8% | 246.4hPa | 0V | 00:00:00 | 00:00:00 | 00:00:00 | |
| OM5KV | 2026-08-30 23:51:01 | 47.42717 | 19.41504 | 98° | 71km/h | 10910m | 8.4m/s | -49.1°C | 54.9% | 247.0hPa | 0V | 00:00:00 | 00:00:00 | 00:00:00 | |
| OM5KV | 2026-08-30 23:50:55 | 47.42745 | 19.41348 | 112° | 75km/h | 10873m | 6.9m/s | -48.8°C | 54.7% | 248.4hPa | 0V | 00:00:00 | 00:00:00 | 00:00:00 | |
| ATIDSZ-14 | 2026-08-30 23:50:53 | 47.42758 | 19.41299 | 108° | 62km/h | 10861m | 4.0m/s | -48.7°C | 56.1% | 248.9hPa | 0V | 00:00:00 | 00:00:00 | 00:00:00 | |
| OM5KV | 2026-08-30 23:50:49 | 47.42769 | 19.41211 | 99° | 58km/h | 10836m | 7.5m/s | -48.5°C | 55.8% | 249.9hPa | 0V | 00:00:00 | 00:00:00 | 00:00:00 | |
| OM5KV | 2026-08-30 23:50:44 | 47.42797 | 19.41087 | 114° | 77km/h | 10804m | 6.1m/s | -48.3°C | 55.9% | 251.0hPa | 0V | 00:00:00 | 00:00:00 | 00:00:00 | |
| OM5KV | 2026-08-30 23:50:39 | 47.42813 | 19.40966 | 91° | 64km/h | 10770m | 8.5m/s | -48.0°C | 53.9% | 252.3hPa | 0V | 00:00:00 | 00:00:00 | 00:00:00 | |
| OM5KV | 2026-08-30 23:50:38 | 47.42813 | 19.40942 | 93° | 64km/h | 10763m | 6.2m/s | -48.0°C | 53.9% | 252.5hPa | 0V | 00:00:00 | 00:00:00 | 00:00:00 | |
| OM5KV | 2026-08-30 23:50:33 | 47.42825 | 19.40829 | 103° | 62km/h | 10730m | 7.5m/s | -47.7°C | 52.8% | 253.8hPa | 0V | 00:00:00 | 00:00:00 | 00:00:00 | |
| OM5KV | 2026-08-30 23:50:29 | 47.42837 | 19.40707 | 98° | 64km/h | 10700m | 4.0m/s | -47.4°C | 55.0% | 255.0hPa | 0V | 00:00:00 | 00:00:00 | 00:00:00 | |
| OM5KV | 2026-08-30 23:50:27 | 47.42838 | 19.40685 | 97° | 60km/h | 10696m | 4.5m/s | -47.4°C | 54.5% | 255.2hPa | 0V | 00:00:00 | 00:00:00 | 00:00:00 | |
| OM5KV | 2026-08-30 23:50:23 | 47.42845 | 19.40606 | 104° | 55km/h | 10677m | 4.5m/s | -47.2°C | 54.5% | 255.9hPa | 0V | 00:00:00 | 00:00:00 | 00:00:00 | |
| OM5KV | 2026-08-30 23:50:17 | 47.42862 | 19.40464 | 99° | 66km/h | 10635m | 5.7m/s | -46.8°C | 55.9% | 257.5hPa | 0V | 00:00:00 | 00:00:00 | 00:00:00 | |
| OM5KV | 2026-08-30 23:50:16 | 47.42867 | 19.40417 | 102° | 62km/h | 10625m | 3.3m/s | -46.7°C | 56.5% | 257.9hPa | 0V | 00:00:00 | 00:00:00 | 00:00:00 | |
| ATIDSZ-14 | 2026-08-30 23:50:12 | 47.42875 | 19.40358 | 100° | 46km/h | 10609m | 4.7m/s | -46.6°C | 56.4% | 258.5hPa | 0V | 00:00:00 | 00:00:00 | 00:00:00 | |
| GYPAP8-17 | 2026-08-30 23:50:06 | 47.42896 | 19.40239 | 106° | 62km/h | 10574m | 7.2m/s | -46.3°C | 59.1% | 259.8hPa | 0V | 00:00:00 | 00:00:00 | 00:00:00 | |
| OM5KV | 2026-08-30 23:50:05 | 47.42900 | 19.40216 | 104° | 64km/h | 10568m | 4.0m/s | -46.3°C | 60.4% | 260.1hPa | 0V | 00:00:00 | 00:00:00 | 00:00:00 | |
| OM5KV | 2026-08-30 23:50:04 | 47.42903 | 19.40192 | 102° | 68km/h | 10564m | 4.4m/s | -46.2°C | 60.2% | 260.3hPa | 0V | 00:00:00 | 00:00:00 | 00:00:00 | |
| OM5KV | 2026-08-30 23:50:00 | 47.42921 | 19.40085 | 106° | 49km/h | 10532m | 5.6m/s | -46.0°C | 59.5% | 261.5hPa | 0V | 00:00:00 | 00:00:00 | 00:00:00 | |
| OM5KV | 2026-08-30 23:49:58 | 47.42923 | 19.40068 | 103° | 46km/h | 10527m | 5.4m/s | -45.9°C | 60.0% | 261.7hPa | 0V | 00:00:00 | 00:00:00 | 00:00:00 | |
| OM5KV | 2026-08-30 23:49:53 | 47.42935 | 19.39964 | 104° | 69km/h | 10498m | 6.6m/s | -45.7°C | 60.4% | 262.8hPa | 0V | 00:00:00 | 00:00:00 | 00:00:00 | |
| OM5KV | 2026-08-30 23:49:52 | 47.42939 | 19.39938 | 105° | 73km/h | 10492m | 6.2m/s | -45.6°C | 60.6% | 263.1hPa | 0V | 00:00:00 | 00:00:00 | 00:00:00 | |
| ATIDSZ-14 | 2026-08-30 23:49:51 | 47.42943 | 19.39912 | 103° | 71km/h | 10485m | 6.6m/s | -45.6°C | 61.2% | 263.3hPa | 0V | 00:00:00 | 00:00:00 | 00:00:00 | |
| OM5KV | 2026-08-30 23:49:47 | 47.42954 | 19.39823 | 103° | 53km/h | 10459m | 5.4m/s | -45.3°C | 61.7% | 264.4hPa | 0V | 00:00:00 | 00:00:00 | 00:00:00 | |
| OM5KV | 2026-08-30 23:49:42 | 47.42965 | 19.39718 | 94° | 64km/h | 10432m | 5.0m/s | -45.1°C | 62.5% | 265.5hPa | 0V | 00:00:00 | 00:00:00 | 00:00:00 | |
| OM5KV | 2026-08-30 23:49:41 | 47.42966 | 19.39694 | 96° | 64km/h | 10427m | 5.6m/s | -45.0°C | 63.1% | 265.7hPa | 0V | 00:00:00 | 00:00:00 | 00:00:00 | |
| OM5KV | 2026-08-30 23:49:36 | 47.42986 | 19.39584 | 116° | 58km/h | 10398m | 5.9m/s | -44.8°C | 62.1% | 266.9hPa | 0V | 00:00:00 | 00:00:00 | 00:00:00 | |
| ATIDSZ-14 | 2026-08-30 23:49:31 | 47.43018 | 19.39469 | 106° | 62km/h | 10361m | 7.2m/s | -44.5°C | 61.2% | 268.3hPa | 0V | 00:00:00 | 00:00:00 | 00:00:00 | |
| OM5KV | 2026-08-30 23:49:25 | 47.43034 | 19.39361 | 103° | 58km/h | 10330m | 4.2m/s | -44.2°C | 60.8% | 269.5hPa | 0V | 00:00:00 | 00:00:00 | 00:00:00 | |
| OM5KV | 2026-08-30 23:49:20 | 47.43047 | 19.39224 | 108° | 68km/h | 10296m | 5.2m/s | -43.9°C | 59.3% | 270.9hPa | 0V | 00:00:00 | 00:00:00 | 00:00:00 | |
| OM5KV | 2026-08-30 23:49:13 | 47.43074 | 19.39085 | 103° | 62km/h | 10261m | 4.9m/s | -43.6°C | 58.9% | 272.4hPa | 0V | 00:00:00 | 00:00:00 | 00:00:00 | |
| ATIDSZ-14 | 2026-08-30 23:49:09 | 47.43075 | 19.38992 | 88° | 62km/h | 10241m | 4.2m/s | -43.4°C | 59.9% | 273.2hPa | 0V | 00:00:00 | 00:00:00 | 00:00:00 | |
| OM5KV | 2026-08-30 23:49:07 | 47.43077 | 19.38947 | 99° | 62km/h | 10231m | 7.8m/s | -43.3°C | 59.7% | 273.6hPa | 0V | 00:00:00 | 00:00:00 | 00:00:00 | |
| OM5KV | 2026-08-30 23:49:06 | 47.43081 | 19.38923 | 109° | 64km/h | 10225m | 5.7m/s | -43.3°C | 59.5% | 273.9hPa | 0V | 00:00:00 | 00:00:00 | 00:00:00 | |
| OM5KV | 2026-08-30 23:49:02 | 47.43105 | 19.38831 | 107° | 62km/h | 10195m | 6.8m/s | -43.1°C | 59.5% | 275.1hPa | 0V | 00:00:00 | 00:00:00 | 00:00:00 | |
| GYPAP8-17 | 2026-08-30 23:49:01 | 47.43109 | 19.38810 | 104° | 58km/h | 10188m | 8.5m/s | -43.0°C | 59.3% | 275.4hPa | 0V | 00:00:00 | 00:00:00 | 00:00:00 | |
| OM5KV | 2026-08-30 23:48:57 | 47.43112 | 19.38721 | 91° | 60km/h | 10161m | 5.9m/s | -42.9°C | 59.0% | 276.4hPa | 0V | 00:00:00 | 00:00:00 | 00:00:00 | |
| OM5KV | 2026-08-30 23:48:55 | 47.43113 | 19.38677 | 95° | 57km/h | 10148m | 7.3m/s | -42.8°C | 59.4% | 277.0hPa | 0V | 00:00:00 | 00:00:00 | 00:00:00 | |
| OM5KV | 2026-08-30 23:48:51 | 47.43123 | 19.38601 | 107° | 62km/h | 10122m | 7.9m/s | -42.5°C | 60.2% | 278.0hPa | 0V | 00:00:00 | 00:00:00 | 00:00:00 | |
| OM5KV | 2026-08-30 23:48:49 | 47.43134 | 19.38553 | 112° | 77km/h | 10108m | 6.9m/s | -42.4°C | 59.8% | 278.5hPa | 0V | 00:00:00 | 00:00:00 | 00:00:00 | |
| ATIDSZ-14 | 2026-08-30 23:48:48 | 47.43141 | 19.38525 | 112° | 80km/h | 10103m | 4.8m/s | -42.3°C | 59.9% | 278.8hPa | 0V | 00:00:00 | 00:00:00 | 00:00:00 | |
| OM5KV | 2026-08-30 23:48:44 | 47.43173 | 19.38416 | 114° | 77km/h | 10084m | 5.8m/s | -42.2°C | 59.5% | 279.6hPa | 0V | 00:00:00 | 00:00:00 | 00:00:00 | |
| OM5KV | 2026-08-30 23:48:38 | 47.43212 | 19.38263 | 105° | 69km/h | 10037m | 6.1m/s | -41.8°C | 60.7% | 281.5hPa | 0V | 00:00:00 | 00:00:00 | 00:00:00 | |
| OM5KV | 2026-08-30 23:48:32 | 47.43241 | 19.38125 | 113° | 68km/h | 10004m | 5.1m/s | -41.5°C | 61.6% | 283.0hPa | 0V | 00:00:00 | 00:00:00 | 00:00:00 | |
| ATIDSZ-14 | 2026-08-30 23:48:28 | 47.43271 | 19.38034 | 119° | 62km/h | 9975m | 7.2m/s | -41.3°C | 59.2% | 284.2hPa | 0V | 00:00:00 | 00:00:00 | 00:00:00 | |
| OM5KV | 2026-08-30 23:48:26 | 47.43284 | 19.37993 | 114° | 60km/h | 9962m | 6.6m/s | -41.2°C | 58.9% | 284.7hPa | 0V | 00:00:00 | 00:00:00 | 00:00:00 | |
| OM5KV | 2026-08-30 23:48:21 | 47.43313 | 19.37888 | 112° | 66km/h | 9934m | 5.2m/s | -40.9°C | 61.3% | 285.9hPa | 0V | 00:00:00 | 00:00:00 | 00:00:00 | |
| OM5KV | 2026-08-30 23:48:16 | 47.43336 | 19.37765 | 102° | 77km/h | 9904m | 7.4m/s | -40.7°C | 59.9% | 287.0hPa | 0V | 00:00:00 | 00:00:00 | 00:00:00 | |
| OM5KV | 2026-08-30 23:48:15 | 47.43340 | 19.37736 | 102° | 84km/h | 9899m | 3.4m/s | -40.6°C | 60.8% | 287.4hPa | 0V | 00:00:00 | 00:00:00 | 00:00:00 | |
| OM5KV | 2026-08-30 23:48:12 | 47.43364 | 19.37623 | 117° | 71km/h | 9878m | 8.3m/s | -40.5°C | 60.2% | 288.2hPa | 0V | 00:00:00 | 00:00:00 | 00:00:00 | |
| OM5KV | 2026-08-30 23:48:09 | 47.43381 | 19.37579 | 121° | 66km/h | 9860m | 9.1m/s | -40.4°C | 60.4% | 288.9hPa | 0V | 00:00:00 | 00:00:00 | 00:00:00 | |
| ATIDSZ-14 | 2026-08-30 23:48:07 | 47.43394 | 19.37533 | 108° | 69km/h | 9844m | 7.1m/s | -40.2°C | 60.1% | 289.6hPa | 0V | 00:00:00 | 00:00:00 | 00:00:00 | |
| OM5KV | 2026-08-30 23:48:05 | 47.43401 | 19.37483 | 98° | 68km/h | 9833m | 6.5m/s | -40.2°C | 59.0% | 290.0hPa | 0V | 00:00:00 | 00:00:00 | 00:00:00 | |
| OM5KV | 2026-08-30 23:48:02 | 47.43412 | 19.37414 | 113° | 60km/h | 9814m | 5.6m/s | -40.0°C | 59.4% | 290.9hPa | 0V | 00:00:00 | 00:00:00 | 00:00:00 | |
| OM5KV | 2026-08-30 23:47:58 | 47.43440 | 19.37318 | 111° | 77km/h | 9787m | 7.4m/s | -39.8°C | 59.7% | 292.0hPa | 0V | 00:00:00 | 00:00:00 | 00:00:00 | |
| GYPAP8-17 | 2026-08-30 23:47:57 | 47.43447 | 19.37291 | 109° | 77km/h | 9780m | 6.0m/s | 0°C | 0% | 292.3hPa | 0V | 00:00:00 | 00:00:00 | 00:00:00 | |
| OM5KV | 2026-08-30 23:47:52 | 47.43482 | 19.37174 | 119° | 57km/h | 9751m | 6.1m/s | -39.5°C | 59.5% | 293.5hPa | 0V | 00:00:00 | 00:00:00 | 00:00:00 | |
| OM5KV | 2026-08-30 23:47:47 | 47.43516 | 19.37062 | 114° | 73km/h | 9726m | 6.9m/s | -39.2°C | 59.4% | 294.6hPa | 0V | 00:00:00 | 00:00:00 | 00:00:00 | |
| OM5KV | 2026-08-30 23:47:40 | 47.43575 | 19.36896 | 113° | 73km/h | 9683m | 7.4m/s | -38.8°C | 59.0% | 296.5hPa | 0V | 00:00:00 | 00:00:00 | 00:00:00 | |
| OM5KV | 2026-08-30 23:47:35 | 47.43593 | 19.36764 | 105° | 73km/h | 9655m | 4.1m/s | -38.6°C | 58.9% | 297.7hPa | 0V | 00:00:00 | 00:00:00 | 00:00:00 | |
| OM5KV | 2026-08-30 23:47:34 | 47.43598 | 19.36737 | 105° | 75km/h | 9648m | 8.8m/s | -38.5°C | 58.4% | 297.9hPa | 0V | 00:00:00 | 00:00:00 | 00:00:00 | |
| OM5KV | 2026-08-30 23:47:30 | 47.43625 | 19.36632 | 114° | 75km/h | 9617m | 6.4m/s | -38.3°C | 58.8% | 299.3hPa | 0V | 00:00:00 | 00:00:00 | 00:00:00 | |
| OM5KV | 2026-08-30 23:47:29 | 47.43632 | 19.36607 | 112° | 71km/h | 9611m | 6.1m/s | -38.2°C | 59.1% | 299.6hPa | 0V | 00:00:00 | 00:00:00 | 00:00:00 | |
| ATIDSZ-14 | 2026-08-30 23:47:25 | 47.43665 | 19.36514 | 127° | 71km/h | 9588m | 4.4m/s | -38.1°C | 58.5% | 300.6hPa | 0V | 00:00:00 | 00:00:00 | 00:00:00 | |
| OM5KV | 2026-08-30 23:47:24 | 47.43686 | 19.36470 | 125° | 71km/h | 9579m | 4.2m/s | -38.0°C | 60.5% | 301.0hPa | 0V | 00:00:00 | 00:00:00 | 00:00:00 | |
| OM5KV | 2026-08-30 23:47:19 | 47.43723 | 19.36350 | 111° | 71km/h | 9551m | 5.9m/s | -37.8°C | 60.0% | 302.3hPa | 0V | 00:00:00 | 00:00:00 | 00:00:00 | |
| OM5KV | 2026-08-30 23:47:17 | 47.43729 | 19.36326 | 115° | 68km/h | 9544m | 7.9m/s | -37.7°C | 59.5% | 302.6hPa | 0V | 00:00:00 | 00:00:00 | 00:00:00 | |
| OM5KV | 2026-08-30 23:47:13 | 47.43766 | 19.36230 | 120° | 78km/h | 9520m | 5.3m/s | -37.5°C | 61.1% | 303.6hPa | 0V | 00:00:00 | 00:00:00 | 00:00:00 | |
| OM5KV | 2026-08-30 23:47:11 | 47.43781 | 19.36177 | 108° | 75km/h | 9509m | 5.0m/s | -37.4°C | 61.5% | 304.1hPa | 0V | 00:00:00 | 00:00:00 | 00:00:00 | |
| OM5KV | 2026-08-30 23:47:05 | 47.43806 | 19.36025 | 113° | 73km/h | 9480m | 5.6m/s | -37.2°C | 63.9% | 305.4hPa | 0V | 00:00:00 | 00:00:00 | 00:00:00 | |
| ATIDSZ-14 | 2026-08-30 23:47:04 | 47.43814 | 19.35999 | 117° | 77km/h | 9474m | 4.8m/s | -37.2°C | 63.0% | 305.6hPa | 0V | 00:00:00 | 00:00:00 | 00:00:00 | |
| OM5KV | 2026-08-30 23:46:57 | 47.43892 | 19.35815 | 125° | 80km/h | 9442m | 6.4m/s | -36.8°C | 61.7% | 307.0hPa | 0V | 00:00:00 | 00:00:00 | 00:00:00 | |
| GYPAP8-17 | 2026-08-30 23:46:54 | 47.43916 | 19.35740 | 108° | 71km/h | 9416m | 9.4m/s | 0°C | 0% | 308.1hPa | 0V | 00:00:00 | 00:00:00 | 00:00:00 | |
| OM5KV | 2026-08-30 23:46:48 | 47.43940 | 19.35579 | 112° | 66km/h | 9372m | 7.0m/s | -36.2°C | 60.3% | 310.0hPa | 0V | 00:00:00 | 00:00:00 | 00:00:00 | |
| ATIDSZ-14 | 2026-08-30 23:46:44 | 47.43962 | 19.35494 | 103° | 68km/h | 9349m | 4.2m/s | -36.0°C | 62.1% | 311.1hPa | 0V | 00:00:00 | 00:00:00 | 00:00:00 | |
| OM5KV | 2026-08-30 23:46:43 | 47.43966 | 19.35468 | 103° | 75km/h | 9344m | 6.1m/s | -35.9°C | 61.1% | 311.4hPa | 0V | 00:00:00 | 00:00:00 | 00:00:00 | |
| OM5KV | 2026-08-30 23:46:40 | 47.43980 | 19.35377 | 107° | 86km/h | 9325m | 6.7m/s | -35.8°C | 60.9% | 312.2hPa | 0V | 00:00:00 | 00:00:00 | 00:00:00 | |
| OM5KV | 2026-08-30 23:46:38 | 47.43992 | 19.35319 | 112° | 78km/h | 9313m | 5.3m/s | -35.7°C | 62.0% | 312.7hPa | 0V | 00:00:00 | 00:00:00 | 00:00:00 | |
| OM5KV | 2026-08-30 23:46:34 | 47.44010 | 19.35217 | 96° | 66km/h | 9289m | 4.6m/s | -35.4°C | 62.2% | 313.8hPa | 0V | 00:00:00 | 00:00:00 | 00:00:00 | |
| OM5KV | 2026-08-30 23:46:32 | 47.44013 | 19.35169 | 101° | 68km/h | 9278m | 4.9m/s | -35.4°C | 63.4% | 314.3hPa | 0V | 00:00:00 | 00:00:00 | 00:00:00 | |
| OM5KV | 2026-08-30 23:46:29 | 47.44028 | 19.35094 | 113° | 71km/h | 9260m | 9.0m/s | -35.2°C | 61.2% | 315.1hPa | 0V | 00:00:00 | 00:00:00 | 00:00:00 | |
| OM5KV | 2026-08-30 23:46:25 | 47.44057 | 19.34993 | 111° | 77km/h | 9231m | 6.5m/s | -35.0°C | 62.4% | 316.4hPa | 0V | 00:00:00 | 00:00:00 | 00:00:00 | |
| ATIDSZ-14 | 2026-08-30 23:46:24 | 47.44069 | 19.34938 | 108° | 78km/h | 9219m | 7.4m/s | -34.9°C | 62.8% | 317.0hPa | 0V | 00:00:00 | 00:00:00 | 00:00:00 | |
| OM5KV | 2026-08-30 23:46:23 | 47.44069 | 19.34938 | 108° | 78km/h | 9219m | 7.4m/s | -34.9°C | 62.8% | 317.0hPa | 0V | 00:00:00 | 00:00:00 | 00:00:00 | |
| OM5KV | 2026-08-30 23:46:19 | 47.44083 | 19.34842 | 97° | 62km/h | 9194m | 5.3m/s | -34.7°C | 63.2% | 318.1hPa | 0V | 00:00:00 | 00:00:00 | 00:00:00 | |
| OM5KV | 2026-08-30 23:46:18 | 47.44086 | 19.34818 | 102° | 68km/h | 9189m | 5.7m/s | -34.6°C | 63.4% | 318.3hPa | 0V | 00:00:00 | 00:00:00 | 00:00:00 | |
| OM5KV | 2026-08-30 23:46:13 | 47.44115 | 19.34675 | 113° | 82km/h | 9156m | 6.9m/s | -34.3°C | 61.4% | 319.8hPa | 0V | 00:00:00 | 00:00:00 | 00:00:00 | |
| OM5KV | 2026-08-30 23:46:07 | 47.44151 | 19.34536 | 109° | 57km/h | 9119m | 4.5m/s | -34.0°C | 62.1% | 321.5hPa | 0V | 00:00:00 | 00:00:00 | 00:00:00 | |
| OM5KV | 2026-08-30 23:46:06 | 47.44156 | 19.34515 | 109° | 62km/h | 9115m | 4.6m/s | -34.0°C | 62.9% | 321.7hPa | 0V | 00:00:00 | 00:00:00 | 00:00:00 | |
| OM5KV | 2026-08-30 23:46:01 | 47.44179 | 19.34382 | 105° | 77km/h | 9086m | 5.3m/s | -33.7°C | 62.0% | 323.2hPa | 0V | 00:00:00 | 00:00:00 | 00:00:00 | |
| OM5KV | 2026-08-30 23:46:00 | 47.44184 | 19.34356 | 107° | 69km/h | 9081m | 5.6m/s | -33.7°C | 62.1% | 323.4hPa | 0V | 00:00:00 | 00:00:00 | 00:00:00 | |
| OM5KV | 2026-08-30 23:45:54 | 47.44210 | 19.34203 | 103° | 78km/h | 9039m | 8.3m/s | -33.3°C | 59.5% | 325.3hPa | 0V | 00:00:00 | 00:00:00 | 00:00:00 | |
| GYPAP8-17 | 2026-08-30 23:45:51 | 47.44223 | 19.34116 | 102° | 73km/h | 9022m | 5.6m/s | 0°C | 0% | 326.1hPa | 0V | 00:00:00 | 00:00:00 | 00:00:00 | |
| OM5KV | 2026-08-30 23:45:50 | 47.44226 | 19.34091 | 103° | 64km/h | 9017m | 4.4m/s | -33.1°C | 59.8% | 326.3hPa | 0V | 00:00:00 | 00:00:00 | 00:00:00 | |
| OM5KV | 2026-08-30 23:45:49 | 47.44230 | 19.34068 | 105° | 60km/h | 9012m | 6.5m/s | -33.1°C | 59.3% | 326.5hPa | 0V | 00:00:00 | 00:00:00 | 00:00:00 | |
| OM5KV | 2026-08-30 23:45:44 | 47.44249 | 19.33942 | 98° | 82km/h | 8985m | 4.5m/s | -32.9°C | 56.1% | 327.8hPa | 0V | 00:00:00 | 00:00:00 | 00:00:00 | |
| ATIDSZ-14 | 2026-08-30 23:45:43 | 47.44251 | 19.33912 | 99° | 84km/h | 8981m | 5.3m/s | -32.9°C | 53.4% | 328.0hPa | 0V | 00:00:00 | 00:00:00 | 00:00:00 | |
| OM5KV | 2026-08-30 23:45:38 | 47.44275 | 19.33768 | 106° | 73km/h | 8955m | 7.5m/s | -32.6°C | 50.7% | 329.2hPa | 0V | 00:00:00 | 00:00:00 | 00:00:00 | |
| OM5KV | 2026-08-30 23:45:33 | 47.44286 | 19.33628 | 99° | 78km/h | 8927m | 2.7m/s | -32.4°C | 50.9% | 330.5hPa | 0V | 00:00:00 | 00:00:00 | 00:00:00 | |
| ATIDSZ-14 | 2026-08-30 23:45:22 | 47.44341 | 19.33341 | 96° | 53km/h | 8866m | 5.6m/s | -31.7°C | 43.0% | 333.4hPa | 0V | 00:00:00 | 00:00:00 | 00:00:00 | |
| OM5KV | 2026-08-30 23:45:11 | 47.44371 | 19.33043 | 109° | 73km/h | 8807m | 8.8m/s | -31.2°C | 39.9% | 336.1hPa | 0V | 00:00:00 | 00:00:00 | 00:00:00 | |
| OM5KV | 2026-08-30 23:45:10 | 47.44377 | 19.33016 | 108° | 78km/h | 8798m | 8.8m/s | -31.1°C | 39.8% | 336.5hPa | 0V | 00:00:00 | 00:00:00 | 00:00:00 | |
| OM5KV | 2026-08-30 23:45:06 | 47.44387 | 19.32904 | 92° | 73km/h | 8770m | 6.0m/s | -30.9°C | 40.6% | 337.9hPa | 0V | 00:00:00 | 00:00:00 | 00:00:00 | |
| OM5KV | 2026-08-30 23:45:05 | 47.44388 | 19.32877 | 93° | 71km/h | 8763m | 7.5m/s | -30.8°C | 40.9% | 338.2hPa | 0V | 00:00:00 | 00:00:00 | 00:00:00 | |
| ATIDSZ-14 | 2026-08-30 23:45:02 | 47.44400 | 19.32789 | 106° | 57km/h | 8738m | 7.3m/s | -30.6°C | 39.2% | 339.4hPa | 0V | 00:00:00 | 00:00:00 | 00:00:00 | |
| OM5KV | 2026-08-30 23:45:01 | 47.44400 | 19.32789 | 106° | 57km/h | 8738m | 7.3m/s | -30.6°C | 39.2% | 339.4hPa | 0V | 00:00:00 | 00:00:00 | 00:00:00 | |
| OM5KV | 2026-08-30 23:44:55 | 47.44409 | 19.32643 | 95° | 75km/h | 8709m | 2.8m/s | -30.3°C | 35.2% | 340.9hPa | 0V | 00:00:00 | 00:00:00 | 00:00:00 | |
| OM5KV | 2026-08-30 23:44:54 | 47.44410 | 19.32614 | 97° | 78km/h | 8705m | 5.4m/s | -30.3°C | 32.4% | 341.0hPa | 0V | 00:00:00 | 00:00:00 | 00:00:00 | |
| OM5KV | 2026-08-30 23:44:49 | 47.44426 | 19.32469 | 102° | 75km/h | 8676m | 6.0m/s | -30.2°C | 24.4% | 342.4hPa | 0V | 00:00:00 | 00:00:00 | 00:00:00 | |
| GYPAP8-17 | 2026-08-30 23:44:47 | 47.44434 | 19.32416 | 103° | 71km/h | 8664m | 8.4m/s | 0°C | 0% | 343.0hPa | 0V | 00:00:00 | 00:00:00 | 00:00:00 | |
| OM5KV | 2026-08-30 23:44:44 | 47.44445 | 19.32341 | 101° | 64km/h | 8640m | 7.4m/s | -29.9°C | 23.3% | 344.1hPa | 0V | 00:00:00 | 00:00:00 | 00:00:00 | |
| ATIDSZ-14 | 2026-08-30 23:44:40 | 47.44448 | 19.32257 | 94° | 55km/h | 8616m | 3.4m/s | -29.7°C | 23.9% | 345.3hPa | 0V | 00:00:00 | 00:00:00 | 00:00:00 | |
| OM5KV | 2026-08-30 23:44:38 | 47.44453 | 19.32219 | 110° | 53km/h | 8606m | 4.7m/s | -29.6°C | 23.1% | 345.7hPa | 0V | 00:00:00 | 00:00:00 | 00:00:00 | |
| OM5KV | 2026-08-30 23:44:32 | 47.44484 | 19.32106 | 110° | 60km/h | 8566m | 7.3m/s | -29.3°C | 18.5% | 347.7hPa | 0V | 00:00:00 | 00:00:00 | 00:00:00 | |
| OM5KV | 2026-08-30 23:44:27 | 47.44509 | 19.31989 | 103° | 53km/h | 8539m | 4.5m/s | -29.1°C | 15.9% | 349.1hPa | 0V | 00:00:00 | 00:00:00 | 00:00:00 | |
| OM5KV | 2026-08-30 23:44:21 | 47.44520 | 19.31879 | 104° | 60km/h | 8509m | 6.7m/s | -28.9°C | 15.4% | 350.6hPa | 0V | 00:00:00 | 00:00:00 | 00:00:00 | |
| ATIDSZ-14 | 2026-08-30 23:44:19 | 47.44526 | 19.31833 | 99° | 64km/h | 8494m | 8.3m/s | -28.8°C | 15.4% | 351.4hPa | 0V | 00:00:00 | 00:00:00 | 00:00:00 | |
| OM5KV | 2026-08-30 23:44:16 | 47.44533 | 19.31763 | 103° | 62km/h | 8474m | 4.5m/s | -28.6°C | 16.9% | 352.3hPa | 0V | 00:00:00 | 00:00:00 | 00:00:00 | |
| OM5KV | 2026-08-30 23:44:15 | 47.44537 | 19.31739 | 107° | 69km/h | 8468m | 7.2m/s | -28.6°C | 17.7% | 352.5hPa | 0V | 00:00:00 | 00:00:00 | 00:00:00 | |
| OM5KV | 2026-08-30 23:44:11 | 47.44563 | 19.31623 | 98° | 57km/h | 8443m | 6.2m/s | -28.5°C | 23.1% | 353.8hPa | 0V | 00:00:00 | 00:00:00 | 00:00:00 | |
| OM5KV | 2026-08-30 23:44:09 | 47.44564 | 19.31602 | 89° | 53km/h | 8437m | 7.3m/s | -28.4°C | 22.8% | 354.0hPa | 0V | 00:00:00 | 00:00:00 | 00:00:00 | |
| OM5KV | 2026-08-30 23:44:04 | 47.44563 | 19.31504 | 105° | 62km/h | 8411m | 4.3m/s | -28.3°C | 20.2% | 355.3hPa | 0V | 00:00:00 | 00:00:00 | 00:00:00 | |
| ATIDSZ-14 | 2026-08-30 23:43:59 | 47.44592 | 19.31403 | 125° | 57km/h | 8374m | 4.8m/s | -28.0°C | 16.7% | 357.1hPa | 0V | 00:00:00 | 00:00:00 | 00:00:00 | |
| OM5KV | 2026-08-30 23:43:58 | 47.44600 | 19.31385 | 126° | 60km/h | 8369m | 5.4m/s | -27.9°C | 16.2% | 357.4hPa | 0V | 00:00:00 | 00:00:00 | 00:00:00 | |
| OM5KV | 2026-08-30 23:43:54 | 47.44632 | 19.31311 | 114° | 51km/h | 8349m | 6.5m/s | -27.8°C | 15.3% | 358.3hPa | 0V | 00:00:00 | 00:00:00 | 00:00:00 | |
| OM5KV | 2026-08-30 23:43:53 | 47.44636 | 19.31294 | 108° | 46km/h | 8343m | 5.7m/s | -27.7°C | 15.0% | 358.6hPa | 0V | 00:00:00 | 00:00:00 | 00:00:00 | |
| OM5KV | 2026-08-30 23:43:48 | 47.44648 | 19.31207 | 110° | 57km/h | 8313m | 6.2m/s | -27.5°C | 14.8% | 360.1hPa | 0V | 00:00:00 | 00:00:00 | 00:00:00 | |
| OM5KV | 2026-08-30 23:43:47 | 47.44653 | 19.31187 | 113° | 60km/h | 8307m | 5.1m/s | -27.4°C | 14.7% | 360.4hPa | 0V | 00:00:00 | 00:00:00 | 00:00:00 | |
| OM5KV | 2026-08-30 23:43:43 | 47.44669 | 19.31100 | 99° | 57km/h | 8281m | 7.0m/s | -27.2°C | 14.2% | 361.8hPa | 0V | 00:00:00 | 00:00:00 | 00:00:00 | |
| OM5KV | 2026-08-30 23:43:41 | 47.44674 | 19.31060 | 105° | 55km/h | 8268m | 7.8m/s | -27.0°C | 13.9% | 362.4hPa | 0V | 00:00:00 | 00:00:00 | 00:00:00 | |
| ATIDSZ-14 | 2026-08-30 23:43:38 | 47.44688 | 19.31006 | 113° | 47km/h | 8248m | 8.3m/s | -26.9°C | 13.0% | 363.4hPa | 0V | 00:00:00 | 00:00:00 | 00:00:00 | |
| OM5KV | 2026-08-30 23:43:37 | 47.44691 | 19.30990 | 103° | 46km/h | 8240m | 8.0m/s | -26.9°C | 13.2% | 363.8hPa | 0V | 00:00:00 | 00:00:00 | 00:00:00 | |
| GYPAP8-17 | 2026-08-30 23:43:36 | 47.44694 | 19.30956 | 93° | 42km/h | 8227m | 6.0m/s | 0°C | 0% | 364.6hPa | 0V | 00:00:00 | 00:00:00 | 00:00:00 | |
| OM5KV | 2026-08-30 23:43:32 | 47.44694 | 19.30912 | 91° | 38km/h | 8210m | 3.1m/s | -26.6°C | 13.9% | 365.4hPa | 0V | 00:00:00 | 00:00:00 | 00:00:00 | |
| OM5KV | 2026-08-30 23:43:30 | 47.44693 | 19.30861 | 93° | 55km/h | 8197m | 4.3m/s | -26.5°C | 13.5% | 366.1hPa | 0V | 00:00:00 | 00:00:00 | 00:00:00 | |
| OM5KV | 2026-08-30 23:43:25 | 47.44693 | 19.30773 | 90° | 58km/h | 8171m | 5.4m/s | -26.3°C | 12.2% | 367.5hPa | 0V | 00:00:00 | 00:00:00 | 00:00:00 | |
| OM5KV | 2026-08-30 23:43:19 | 47.44695 | 19.30655 | 99° | 38km/h | 8130m | 7.7m/s | -25.9°C | 11.6% | 369.4hPa | 0V | 00:00:00 | 00:00:00 | 00:00:00 | |
| ATIDSZ-14 | 2026-08-30 23:43:17 | 47.44700 | 19.30625 | 104° | 42km/h | 8117m | 7.1m/s | -25.8°C | 11.7% | 370.1hPa | 0V | 00:00:00 | 00:00:00 | 00:00:00 | |
| OM5KV | 2026-08-30 23:43:13 | 47.44715 | 19.30547 | 108° | 60km/h | 8092m | 8.4m/s | -25.6°C | 10.9% | 371.2hPa | 0V | 00:00:00 | 00:00:00 | 00:00:00 | |
| OM5KV | 2026-08-30 23:43:08 | 47.44745 | 19.30439 | 112° | 60km/h | 8057m | 4.8m/s | -25.3°C | 10.1% | 373.0hPa | 0V | 00:00:00 | 00:00:00 | 00:00:00 | |
| OM5KV | 2026-08-30 23:43:07 | 47.44750 | 19.30420 | 112° | 51km/h | 8053m | 5.4m/s | -25.3°C | 9.9% | 373.3hPa | 0V | 00:00:00 | 00:00:00 | 00:00:00 | |
| OM5KV | 2026-08-30 23:43:02 | 47.44760 | 19.30332 | 96° | 35km/h | 8018m | 6.7m/s | -25.0°C | 9.6% | 375.0hPa | 0V | 00:00:00 | 00:00:00 | 00:00:00 | |
| OM5KV | 2026-08-30 23:42:57 | 47.44768 | 19.30274 | 105° | 49km/h | 7994m | 4.1m/s | -24.8°C | 9.4% | 376.3hPa | 0V | 00:00:00 | 00:00:00 | 00:00:00 | |
| ATIDSZ-14 | 2026-08-30 23:42:56 | 47.44771 | 19.30256 | 105° | 51km/h | 7989m | 6.0m/s | -24.7°C | 8.9% | 376.6hPa | 0V | 00:00:00 | 00:00:00 | 00:00:00 | |
| OM5KV | 2026-08-30 23:42:55 | 47.44774 | 19.30237 | 106° | 51km/h | 7983m | 7.1m/s | -24.7°C | 8.8% | 376.9hPa | 0V | 00:00:00 | 00:00:00 | 00:00:00 | |
| OM5KV | 2026-08-30 23:42:50 | 47.44782 | 19.30148 | 88° | 55km/h | 7956m | 4.9m/s | -24.5°C | 8.5% | 378.4hPa | 0V | 00:00:00 | 00:00:00 | 00:00:00 | |
| OM5KV | 2026-08-30 23:42:46 | 47.44784 | 19.30062 | 102° | 55km/h | 7936m | 6.2m/s | -24.4°C | 8.5% | 379.3hPa | 0V | 00:00:00 | 00:00:00 | 00:00:00 | |
| OM5KV | 2026-08-30 23:42:45 | 47.44787 | 19.30042 | 107° | 53km/h | 7930m | 5.0m/s | -24.4°C | 8.4% | 379.6hPa | 0V | 00:00:00 | 00:00:00 | 00:00:00 | |
| OM5KV | 2026-08-30 23:42:39 | 47.44806 | 19.29927 | 91° | 40km/h | 7890m | 5.7m/s | -24.1°C | 8.4% | 381.7hPa | 0V | 00:00:00 | 00:00:00 | 00:00:00 | |
| ATIDSZ-14 | 2026-08-30 23:42:36 | 47.44807 | 19.29889 | 95° | 29km/h | 7874m | 5.5m/s | -24.0°C | 8.3% | 382.6hPa | 0V | 00:00:00 | 00:00:00 | 00:00:00 | |
| OM5KV | 2026-08-30 23:42:34 | 47.44808 | 19.29865 | 89° | 33km/h | 7865m | 6.0m/s | -23.9°C | 8.2% | 383.1hPa | 0V | 00:00:00 | 00:00:00 | 00:00:00 | |
| GYPAP8-17 | 2026-08-30 23:42:33 | 47.44807 | 19.29853 | 88° | 31km/h | 7859m | 6.4m/s | 0°C | 0% | 0hPa | 0V | 00:00:00 | 00:00:00 | 00:00:00 | |
| OM5KV | 2026-08-30 23:42:29 | 47.44812 | 19.29801 | 110° | 42km/h | 7832m | 6.2m/s | -23.7°C | 7.9% | 384.8hPa | 0V | 00:00:00 | 00:00:00 | 00:00:00 | |
| OM5KV | 2026-08-30 23:42:28 | 47.44819 | 19.29770 | 109° | 46km/h | 7819m | 7.4m/s | -23.6°C | 7.2% | 385.5hPa | 0V | 00:00:00 | 00:00:00 | 00:00:00 | |
| OM5KV | 2026-08-30 23:42:24 | 47.44834 | 19.29710 | 115° | 42km/h | 7794m | 5.1m/s | -23.4°C | 6.5% | 386.9hPa | 0V | 00:00:00 | 00:00:00 | 00:00:00 | |
| OM5KV | 2026-08-30 23:42:22 | 47.44839 | 19.29695 | 116° | 47km/h | 7789m | 6.5m/s | -23.4°C | 6.4% | 387.2hPa | 0V | 00:00:00 | 00:00:00 | 00:00:00 | |
| OM5KV | 2026-08-30 23:42:17 | 47.44851 | 19.29607 | 99° | 44km/h | 7757m | 10.4m/s | -23.2°C | 6.5% | 388.7hPa | 0V | 00:00:00 | 00:00:00 | 00:00:00 | |
| ATIDSZ-14 | 2026-08-30 23:42:15 | 47.44855 | 19.29577 | 109° | 40km/h | 7739m | 7.3m/s | -23.1°C | 6.6% | 389.8hPa | 0V | 00:00:00 | 00:00:00 | 00:00:00 | |
| OM5KV | 2026-08-30 23:42:10 | 47.44873 | 19.29493 | 102° | 49km/h | 7703m | 6.6m/s | -23.1°C | 7.8% | 391.5hPa | 0V | 00:00:00 | 00:00:00 | 00:00:00 | |
| OM5KV | 2026-08-30 23:42:06 | 47.44878 | 19.29417 | 89° | 47km/h | 7677m | 3.7m/s | -22.9°C | 8.1% | 393.0hPa | 0V | 00:00:00 | 00:00:00 | 00:00:00 | |
| OM5KV | 2026-08-30 23:42:04 | 47.44877 | 19.29382 | 90° | 46km/h | 7666m | 6.2m/s | -22.8°C | 8.0% | 393.7hPa | 0V | 00:00:00 | 00:00:00 | 00:00:00 | |
| OM5KV | 2026-08-30 23:42:00 | 47.44879 | 19.29315 | 93° | 47km/h | 7639m | 8.4m/s | -22.6°C | 8.1% | 395.1hPa | 0V | 00:00:00 | 00:00:00 | 00:00:00 | |
| OM5KV | 2026-08-30 23:41:58 | 47.44881 | 19.29280 | 96° | 47km/h | 7625m | 9.6m/s | -22.5°C | 8.2% | 395.9hPa | 0V | 00:00:00 | 00:00:00 | 00:00:00 | |
| ATIDSZ-14 | 2026-08-30 23:41:55 | 47.44886 | 19.29235 | 100° | 40km/h | 7603m | 7.7m/s | -22.3°C | 8.2% | 397.1hPa | 0V | 00:00:00 | 00:00:00 | 00:00:00 | |
| OM5KV | 2026-08-30 23:41:54 | 47.44887 | 19.29221 | 100° | 35km/h | 7597m | 6.3m/s | -22.3°C | 8.1% | 397.4hPa | 0V | 00:00:00 | 00:00:00 | 00:00:00 | |
| OM5KV | 2026-08-30 23:41:52 | 47.44887 | 19.29197 | 80° | 33km/h | 7583m | 6.5m/s | -22.2°C | 7.9% | 398.0hPa | 0V | 00:00:00 | 00:00:00 | 00:00:00 | |
| OM5KV | 2026-08-30 23:41:41 | 47.44894 | 19.29006 | 92° | 49km/h | 7520m | 4.7m/s | -21.7°C | 7.8% | 401.5hPa | 0V | 00:00:00 | 00:00:00 | 00:00:00 | |
| OM5KV | 2026-08-30 23:41:36 | 47.44900 | 19.28921 | 103° | 53km/h | 7486m | 7.1m/s | -21.5°C | 7.6% | 403.4hPa | 0V | 00:00:00 | 00:00:00 | 00:00:00 | |
| ATIDSZ-14 | 2026-08-30 23:41:34 | 47.44905 | 19.28880 | 96° | 58km/h | 7473m | 3.9m/s | -21.4°C | 7.4% | 404.1hPa | 0V | 00:00:00 | 00:00:00 | 00:00:00 | |
| OM5KV | 2026-08-30 23:41:30 | 47.44902 | 19.28785 | 79° | 40km/h | 7447m | 5.1m/s | -21.3°C | 7.6% | 405.4hPa | 0V | 00:00:00 | 00:00:00 | 00:00:00 | |
| GYPAP8-17 | 2026-08-30 23:41:29 | 47.44902 | 19.28785 | 79° | 40km/h | 7447m | 5.1m/s | 0°C | 0% | 0hPa | 0V | 00:00:00 | 00:00:00 | 00:00:00 | |
| OM5KV | 2026-08-30 23:41:25 | 47.44898 | 19.28724 | 87° | 47km/h | 7423m | 9.0m/s | -21.1°C | 7.9% | 406.6hPa | 0V | 00:00:00 | 00:00:00 | 00:00:00 | |
| OM5KV | 2026-08-30 23:41:23 | 47.44898 | 19.28685 | 93° | 60km/h | 7407m | 7.9m/s | -21.0°C | 8.2% | 407.6hPa | 0V | 00:00:00 | 00:00:00 | 00:00:00 | |
| OM5KV | 2026-08-30 23:41:19 | 47.44905 | 19.28598 | 100° | 51km/h | 7386m | 4.6m/s | -20.8°C | 8.6% | 408.7hPa | 0V | 00:00:00 | 00:00:00 | 00:00:00 | |
| ATIDSZ-14 | 2026-08-30 23:41:14 | 47.44921 | 19.28522 | 118° | 40km/h | 7358m | 2.7m/s | -20.7°C | 8.7% | 410.3hPa | 0V | 00:00:00 | 00:00:00 | 00:00:00 | |
| OM5KV | 2026-08-30 23:41:08 | 47.44927 | 19.28448 | 80° | 38km/h | 7322m | 5.1m/s | -20.5°C | 9.2% | 412.3hPa | 0V | 00:00:00 | 00:00:00 | 00:00:00 | |
| OM5KV | 2026-08-30 23:41:03 | 47.44918 | 19.28363 | 80° | 55km/h | 7293m | 5.7m/s | -20.3°C | 9.1% | 414.0hPa | 0V | 00:00:00 | 00:00:00 | 00:00:00 | |
| OM5KV | 2026-08-30 23:40:57 | 47.44905 | 19.28260 | 91° | 40km/h | 7261m | 5.6m/s | -20.0°C | 8.7% | 415.7hPa | 0V | 00:00:00 | 00:00:00 | 00:00:00 | |
| OM5KV | 2026-08-30 23:40:55 | 47.44905 | 19.28208 | 89° | 57km/h | 7238m | 7.3m/s | -19.9°C | 8.9% | 417.0hPa | 0V | 00:00:00 | 00:00:00 | 00:00:00 | |
| ATIDSZ-14 | 2026-08-30 23:40:53 | 47.44904 | 19.28186 | 90° | 64km/h | 7232m | 4.2m/s | -19.8°C | 8.6% | 417.4hPa | 0V | 00:00:00 | 00:00:00 | 00:00:00 | |
| OM5KV | 2026-08-30 23:40:50 | 47.44908 | 19.28116 | 103° | 57km/h | 7215m | 5.1m/s | -19.7°C | 8.5% | 418.4hPa | 0V | 00:00:00 | 00:00:00 | 00:00:00 | |
| OM5KV | 2026-08-30 23:40:48 | 47.44914 | 19.28079 | 105° | 44km/h | 7204m | 4.7m/s | -19.6°C | 8.4% | 419.0hPa | 0V | 00:00:00 | 00:00:00 | 00:00:00 | |
| OM5KV | 2026-08-30 23:40:45 | 47.44916 | 19.28036 | 80° | 40km/h | 7186m | 6.1m/s | -19.4°C | 7.8% | 419.9hPa | 0V | 00:00:00 | 00:00:00 | 00:00:00 | |
| OM5KV | 2026-08-30 23:40:43 | 47.44912 | 19.28003 | 86° | 51km/h | 7171m | 7.4m/s | -19.3°C | 7.5% | 420.8hPa | 0V | 00:00:00 | 00:00:00 | 00:00:00 | |
| OM5KV | 2026-08-30 23:40:39 | 47.44918 | 19.27931 | 112° | 46km/h | 7143m | 5.8m/s | -19.1°C | 7.5% | 422.2hPa | 0V | 00:00:00 | 00:00:00 | 00:00:00 | |
| OM5KV | 2026-08-30 23:40:36 | 47.44927 | 19.27882 | 96° | 44km/h | 7124m | 6.2m/s | -19.0°C | 8.6% | 423.4hPa | 0V | 00:00:00 | 00:00:00 | 00:00:00 | |
| ATIDSZ-14 | 2026-08-30 23:40:33 | 47.44923 | 19.27838 | 78° | 40km/h | 7102m | 6.3m/s | -18.8°C | 8.7% | 424.6hPa | 0V | 00:00:00 | 00:00:00 | 00:00:00 | |
| OM5KV | 2026-08-30 23:40:27 | 47.44926 | 19.27738 | 101° | 55km/h | 7066m | 6.0m/s | -18.5°C | 8.6% | 426.8hPa | 0V | 00:00:00 | 00:00:00 | 00:00:00 | |
| GYPAP8-17 | 2026-08-30 23:40:26 | 47.44928 | 19.27718 | 104° | 51km/h | 7060m | 6.8m/s | 0°C | 0% | 0hPa | 0V | 00:00:00 | 00:00:00 | 00:00:00 | |
| OM5KV | 2026-08-30 23:40:25 | 47.44931 | 19.27701 | 106° | 46km/h | 7054m | 4.8m/s | -18.4°C | 8.7% | 427.6hPa | 0V | 00:00:00 | 00:00:00 | 00:00:00 | |
| OM5KV | 2026-08-30 23:40:20 | 47.44937 | 19.27612 | 88° | 57km/h | 7030m | 4.7m/s | -18.2°C | 8.6% | 429.0hPa | 0V | 00:00:00 | 00:00:00 | 00:00:00 | |
| OM5KV | 2026-08-30 23:40:19 | 47.44936 | 19.27591 | 87° | 57km/h | 7025m | 5.4m/s | -18.2°C | 8.6% | 429.3hPa | 0V | 00:00:00 | 00:00:00 | 00:00:00 | |
| OM5KV | 2026-08-30 23:40:15 | 47.44934 | 19.27525 | 89° | 31km/h | 7001m | 7.5m/s | -17.9°C | 8.3% | 430.7hPa | 0V | 00:00:00 | 00:00:00 | 00:00:00 | |
| ATIDSZ-14 | 2026-08-30 23:40:11 | 47.44936 | 19.27472 | 103° | 46km/h | 6980m | 5.2m/s | -17.8°C | 8.2% | 431.9hPa | 0V | 00:00:00 | 00:00:00 | 00:00:00 | |
| OM5KV | 2026-08-30 23:40:10 | 47.44938 | 19.27454 | 106° | 49km/h | 6974m | 6.1m/s | -17.7°C | 8.1% | 432.2hPa | 0V | 00:00:00 | 00:00:00 | 00:00:00 | |
| OM5KV | 2026-08-30 23:40:05 | 47.44948 | 19.27370 | 81° | 38km/h | 6937m | 4.8m/s | -17.5°C | 7.2% | 434.4hPa | 0V | 00:00:00 | 00:00:00 | 00:00:00 | |
| OM5KV | 2026-08-30 23:40:02 | 47.44943 | 19.27327 | 89° | 42km/h | 6921m | 5.3m/s | -17.4°C | 7.5% | 435.4hPa | 0V | 00:00:00 | 00:00:00 | 00:00:00 | |
| OM5KV | 2026-08-30 23:39:58 | 47.44942 | 19.27254 | 84° | 49km/h | 6897m | 9.3m/s | -17.2°C | 8.0% | 436.7hPa | 0V | 00:00:00 | 00:00:00 | 00:00:00 | |
| OM5KV | 2026-08-30 23:39:56 | 47.44938 | 19.27219 | 83° | 46km/h | 6881m | 5.9m/s | -17.1°C | 7.6% | 437.6hPa | 0V | 00:00:00 | 00:00:00 | 00:00:00 | |
| OM5KV | 2026-08-30 23:39:53 | 47.44940 | 19.27162 | 99° | 58km/h | 6861m | 7.6m/s | -16.9°C | 6.4% | 438.8hPa | 0V | 00:00:00 | 00:00:00 | 00:00:00 | |
| OM5KV | 2026-08-30 23:39:50 | 47.44947 | 19.27098 | 98° | 53km/h | 6839m | 7.3m/s | -16.8°C | 6.7% | 440.0hPa | 0V | 00:00:00 | 00:00:00 | 00:00:00 | |
| OM5KV | 2026-08-30 23:39:48 | 47.44947 | 19.27062 | 85° | 46km/h | 6828m | 7.0m/s | -16.8°C | 7.1% | 440.6hPa | 0V | 00:00:00 | 00:00:00 | 00:00:00 | |
| OM5KV | 2026-08-30 23:39:46 | 47.44938 | 19.27014 | 71° | 47km/h | 6806m | 5.6m/s | -16.6°C | 6.1% | 441.9hPa | 0V | 00:00:00 | 00:00:00 | 00:00:00 | |
| OM5KV | 2026-08-30 23:39:41 | 47.44931 | 19.26949 | 93° | 46km/h | 6783m | 9.1m/s | -16.5°C | 6.2% | 443.2hPa | 0V | 00:00:00 | 00:00:00 | 00:00:00 | |
| OM5KV | 2026-08-30 23:39:39 | 47.44932 | 19.26913 | 93° | 49km/h | 6768m | 6.4m/s | -16.4°C | 7.9% | 444.2hPa | 0V | 00:00:00 | 00:00:00 | 00:00:00 | |
| OM5KV | 2026-08-30 23:39:35 | 47.44928 | 19.26847 | 79° | 40km/h | 6746m | 3.9m/s | -16.4°C | 11.2% | 445.5hPa | 0V | 00:00:00 | 00:00:00 | 00:00:00 | |
| OM5KV | 2026-08-30 23:39:34 | 47.44926 | 19.26832 | 74° | 44km/h | 6741m | 6.7m/s | -16.4°C | 12.0% | 445.7hPa | 0V | 00:00:00 | 00:00:00 | 00:00:00 | |
| ATIDSZ-14 | 2026-08-30 23:39:29 | 47.44917 | 19.26733 | 84° | 55km/h | 6713m | 5.8m/s | -16.3°C | 13.9% | 447.3hPa | 0V | 00:00:00 | 00:00:00 | 00:00:00 | |
| OM5KV | 2026-08-30 23:39:28 | 47.44915 | 19.26714 | 86° | 51km/h | 6709m | 2.9m/s | -16.2°C | 14.2% | 447.6hPa | 0V | 00:00:00 | 00:00:00 | 00:00:00 | |
| OM5KV | 2026-08-30 23:39:25 | 47.44912 | 19.26629 | 87° | 60km/h | 6682m | 5.6m/s | -16.0°C | 14.6% | 449.2hPa | 0V | 00:00:00 | 00:00:00 | 00:00:00 | |
| OM5KV | 2026-08-30 23:39:23 | 47.44910 | 19.26606 | 85° | 58km/h | 6678m | 3.9m/s | -16.0°C | 14.6% | 449.5hPa | 0V | 00:00:00 | 00:00:00 | 00:00:00 | |
| GYPAP8-17 | 2026-08-30 23:39:22 | 47.44908 | 19.26584 | 85° | 60km/h | 6674m | 5.4m/s | 0°C | 0% | 0hPa | 0V | 00:00:00 | 00:00:00 | 00:00:00 | |
| OM5KV | 2026-08-30 23:39:19 | 47.44905 | 19.26517 | 89° | 57km/h | 6659m | 4.6m/s | -15.8°C | 14.8% | 450.7hPa | 0V | 00:00:00 | 00:00:00 | 00:00:00 | |
| OM5KV | 2026-08-30 23:39:17 | 47.44903 | 19.26474 | 88° | 57km/h | 6647m | 8.6m/s | -15.7°C | 14.7% | 451.4hPa | 0V | 00:00:00 | 00:00:00 | 00:00:00 | |
| OM5KV | 2026-08-30 23:39:13 | 47.44901 | 19.26402 | 85° | 38km/h | 6618m | 4.7m/s | -15.5°C | 15.5% | 453.2hPa | 0V | 00:00:00 | 00:00:00 | 00:00:00 | |
| OM5KV | 2026-08-30 23:39:11 | 47.44899 | 19.26376 | 87° | 37km/h | 6606m | 5.8m/s | -15.4°C | 15.0% | 453.9hPa | 0V | 00:00:00 | 00:00:00 | 00:00:00 | |
| OM5KV | 2026-08-30 23:39:09 | 47.44903 | 19.26333 | 107° | 42km/h | 6593m | 5.8m/s | -15.3°C | 14.7% | 454.7hPa | 0V | 00:00:00 | 00:00:00 | 00:00:00 | |
| OM5KV | 2026-08-30 23:39:06 | 47.44908 | 19.26302 | 97° | 47km/h | 6581m | 4.5m/s | -15.2°C | 14.7% | 455.5hPa | 0V | 00:00:00 | 00:00:00 | 00:00:00 | |
| OM5KV | 2026-08-30 23:39:02 | 47.44914 | 19.26218 | 97° | 62km/h | 6555m | 7.4m/s | -14.9°C | 14.1% | 456.9hPa | 0V | 00:00:00 | 00:00:00 | 00:00:00 | |
| OM5KV | 2026-08-30 23:39:01 | 47.44917 | 19.26195 | 99° | 62km/h | 6549m | 5.4m/s | -14.9°C | 14.1% | 457.3hPa | 0V | 00:00:00 | 00:00:00 | 00:00:00 | |
| OM5KV | 2026-08-30 23:38:57 | 47.44918 | 19.26114 | 80° | 40km/h | 6530m | 5.8m/s | -14.7°C | 13.6% | 458.5hPa | 0V | 00:00:00 | 00:00:00 | 00:00:00 | |
| OM5KV | 2026-08-30 23:38:54 | 47.44913 | 19.26079 | 86° | 29km/h | 6511m | 6.3m/s | -14.6°C | 13.5% | 459.6hPa | 0V | 00:00:00 | 00:00:00 | 00:00:00 | |
| OM5KV | 2026-08-30 23:38:50 | 47.44915 | 19.26017 | 91° | 55km/h | 6489m | 6.7m/s | -14.4°C | 13.5% | 460.8hPa | 0V | 00:00:00 | 00:00:00 | 00:00:00 | |
| ATIDSZ-14 | 2026-08-30 23:38:49 | 47.44915 | 19.25995 | 87° | 58km/h | 6483m | 7.4m/s | -14.4°C | 13.3% | 461.2hPa | 0V | 00:00:00 | 00:00:00 | 00:00:00 | |
| OM5KV | 2026-08-30 23:38:48 | 47.44913 | 19.25973 | 83° | 60km/h | 6476m | 6.4m/s | -14.3°C | 13.2% | 461.6hPa | 0V | 00:00:00 | 00:00:00 | 00:00:00 | |
| OM5KV | 2026-08-30 23:38:44 | 47.44898 | 19.25897 | 77° | 44km/h | 6454m | 5.3m/s | -14.2°C | 12.5% | 462.9hPa | 0V | 00:00:00 | 00:00:00 | 00:00:00 | |
| OM5KV | 2026-08-30 23:38:43 | 47.44897 | 19.25866 | 101° | 42km/h | 6440m | 7.1m/s | -14.1°C | 12.5% | 463.6hPa | 0V | 00:00:00 | 00:00:00 | 00:00:00 | |
| OM5KV | 2026-08-30 23:38:40 | 47.44906 | 19.25822 | 103° | 38km/h | 6420m | 5.7m/s | -13.9°C | 12.5% | 464.9hPa | 0V | 00:00:00 | 00:00:00 | 00:00:00 | |
| OM5KV | 2026-08-30 23:38:37 | 47.44908 | 19.25795 | 96° | 37km/h | 6410m | 6.8m/s | -13.8°C | 12.3% | 465.5hPa | 0V | 00:00:00 | 00:00:00 | 00:00:00 | |
| OM5KV | 2026-08-30 23:38:30 | 47.44905 | 19.25693 | 104° | 46km/h | 6370m | 5.6m/s | -13.5°C | 13.2% | 468.1hPa | 0V | 00:00:00 | 00:00:00 | 00:00:00 | |
| ATIDSZ-14 | 2026-08-30 23:38:28 | 47.44910 | 19.25663 | 100° | 38km/h | 6359m | 7.7m/s | -13.5°C | 13.5% | 468.8hPa | 0V | 00:00:00 | 00:00:00 | 00:00:00 | |
| OM5KV | 2026-08-30 23:38:25 | 47.44899 | 19.25607 | 68° | 47km/h | 6333m | 8.0m/s | -13.2°C | 13.3% | 470.3hPa | 0V | 00:00:00 | 00:00:00 | 00:00:00 | |
| OM5KV | 2026-08-30 23:38:23 | 47.44894 | 19.25589 | 75° | 53km/h | 6327m | 5.2m/s | -13.2°C | 13.5% | 470.8hPa | 0V | 00:00:00 | 00:00:00 | 00:00:00 | |
| OM5KV | 2026-08-30 23:38:19 | 47.44886 | 19.25512 | 90° | 47km/h | 6300m | 7.3m/s | -13.0°C | 13.8% | 472.4hPa | 0V | 00:00:00 | 00:00:00 | 00:00:00 | |
| OM5KV | 2026-08-30 23:38:13 | 47.44880 | 19.25419 | 81° | 40km/h | 6264m | 3.2m/s | -12.7°C | 13.1% | 474.7hPa | 0V | 00:00:00 | 00:00:00 | 00:00:00 | |
| ATIDSZ-14 | 2026-08-30 23:38:08 | 47.44873 | 19.25363 | 83° | 37km/h | 6233m | 9.4m/s | -12.4°C | 12.7% | 476.6hPa | 0V | 00:00:00 | 00:00:00 | 00:00:00 | |
| OM5KV | 2026-08-30 23:38:07 | 47.44872 | 19.25348 | 88° | 42km/h | 6225m | 7.7m/s | -12.3°C | 12.1% | 477.2hPa | 0V | 00:00:00 | 00:00:00 | 00:00:00 | |
| OM5KV | 2026-08-30 23:38:01 | 47.44861 | 19.25251 | 86° | 53km/h | 6182m | 5.9m/s | -11.9°C | 9.1% | 479.8hPa | 0V | 00:00:00 | 00:00:00 | 00:00:00 | |
| OM5KV | 2026-08-30 23:37:55 | 47.44857 | 19.25127 | 89° | 57km/h | 6146m | 6.5m/s | -11.5°C | 7.3% | 482.2hPa | 0V | 00:00:00 | 00:00:00 | 00:00:00 | |
| OM5KV | 2026-08-30 23:37:49 | 47.44855 | 19.25019 | 66° | 38km/h | 6111m | 5.5m/s | -11.3°C | 6.2% | 484.4hPa | 0V | 00:00:00 | 00:00:00 | 00:00:00 | |
| ATIDSZ-14 | 2026-08-30 23:37:48 | 47.44851 | 19.25006 | 64° | 37km/h | 6105m | 6.7m/s | -11.2°C | 5.9% | 484.7hPa | 0V | 00:00:00 | 00:00:00 | 00:00:00 | |
| OM5KV | 2026-08-30 23:37:43 | 47.44845 | 19.24936 | 95° | 49km/h | 6072m | 6.8m/s | -11.0°C | 5.7% | 486.8hPa | 0V | 00:00:00 | 00:00:00 | 00:00:00 | |
| GYPAP8-17 | 2026-08-30 23:37:42 | 47.44846 | 19.24917 | 97° | 51km/h | 6066m | 6.9m/s | 0°C | 0% | 0hPa | 0V | 00:00:00 | 00:00:00 | 00:00:00 | |
| OM5KV | 2026-08-30 23:37:37 | 47.44841 | 19.24834 | 70° | 46km/h | 6038m | 6.9m/s | -10.7°C | 5.4% | 489.0hPa | 0V | 00:00:00 | 00:00:00 | 00:00:00 | |
| OM5KV | 2026-08-30 23:37:31 | 47.44822 | 19.24723 | 83° | 42km/h | 6008m | 6.1m/s | -10.5°C | 5.5% | 490.9hPa | 0V | 00:00:00 | 00:00:00 | 00:00:00 | |
| ATIDSZ-14 | 2026-08-30 23:37:28 | 47.44818 | 19.24682 | 76° | 37km/h | 5988m | 7.3m/s | -10.4°C | 5.6% | 492.1hPa | 0V | 00:00:00 | 00:00:00 | 00:00:00 | |
| OM5KV | 2026-08-30 23:37:25 | 47.44806 | 19.24644 | 62° | 40km/h | 5969m | 4.3m/s | -10.2°C | 5.4% | 493.4hPa | 0V | 00:00:00 | 00:00:00 | 00:00:00 | |
| OM5KV | 2026-08-30 23:37:10 | 47.44780 | 19.24430 | 65° | 37km/h | 5881m | 5.9m/s | -9.7°C | 5.5% | 499.0hPa | 0V | 00:00:00 | 00:00:00 | 00:00:00 | |
| ATIDSZ-14 | 2026-08-30 23:37:07 | 47.44773 | 19.24384 | 86° | 51km/h | 5863m | 6.8m/s | -9.6°C | 5.7% | 500.1hPa | 0V | 00:00:00 | 00:00:00 | 00:00:00 | |
| OM5KV | 2026-08-30 23:36:59 | 47.44782 | 19.24227 | 87° | 55km/h | 5814m | 4.7m/s | -9.2°C | 5.7% | 503.4hPa | 0V | 00:00:00 | 00:00:00 | 00:00:00 | |
| OM5KV | 2026-08-30 23:36:56 | 47.44778 | 19.24185 | 80° | 60km/h | 5800m | 8.1m/s | -9.1°C | 5.7% | 504.2hPa | 0V | 00:00:00 | 00:00:00 | 00:00:00 | |
| OM5KV | 2026-08-30 23:36:53 | 47.44765 | 19.24114 | 67° | 37km/h | 5775m | 7.5m/s | -8.9°C | 5.5% | 505.9hPa | 0V | 00:00:00 | 00:00:00 | 00:00:00 | |
| OM5KV | 2026-08-30 23:36:50 | 47.44757 | 19.24093 | 63° | 31km/h | 5763m | 5.2m/s | -8.8°C | 5.4% | 506.7hPa | 0V | 00:00:00 | 00:00:00 | 00:00:00 | |
| GYPAP8-17 | 2026-08-30 23:36:47 | 47.44751 | 19.24059 | 95° | 33km/h | 5749m | 6.3m/s | 0°C | 0% | 0hPa | 0V | 00:00:00 | 00:00:00 | 00:00:00 | |
| ATIDSZ-14 | 2026-08-30 23:36:46 | 47.44752 | 19.24047 | 100° | 37km/h | 5743m | 5.3m/s | -8.6°C | 5.1% | 507.9hPa | 0V | 00:00:00 | 00:00:00 | 00:00:00 | |
| OM5KV | 2026-08-30 23:36:41 | 47.44756 | 19.23964 | 87° | 53km/h | 5713m | 7.7m/s | -8.4°C | 5.3% | 509.9hPa | 0V | 00:00:00 | 00:00:00 | 00:00:00 | |
| OM5KV | 2026-08-30 23:36:35 | 47.44749 | 19.23841 | 88° | 46km/h | 5681m | 6.6m/s | -8.2°C | 5.3% | 512.0hPa | 0V | 00:00:00 | 00:00:00 | 00:00:00 | |
| OM5KV | 2026-08-30 23:36:30 | 47.44747 | 19.23741 | 98° | 53km/h | 5642m | 7.4m/s | -8.0°C | 7.2% | 514.6hPa | 0V | 00:00:00 | 00:00:00 | 00:00:00 | |
| ATIDSZ-14 | 2026-08-30 23:36:26 | 47.44751 | 19.23677 | 96° | 58km/h | 5627m | 4.8m/s | -7.9°C | 8.4% | 515.7hPa | 0V | 00:00:00 | 00:00:00 | 00:00:00 | |
| OM5KV | 2026-08-30 23:36:22 | 47.44757 | 19.23595 | 104° | 55km/h | 5606m | 6.8m/s | -7.7°C | 9.8% | 516.9hPa | 0V | 00:00:00 | 00:00:00 | 00:00:00 | |
| OM5KV | 2026-08-30 23:36:15 | 47.44753 | 19.23476 | 65° | 42km/h | 5561m | 4.7m/s | -7.3°C | 10.5% | 520.0hPa | 0V | 00:00:00 | 00:00:00 | 00:00:00 | |
| OM5KV | 2026-08-30 23:36:12 | 47.44741 | 19.23420 | 90° | 35km/h | 5542m | 6.3m/s | -7.2°C | 9.8% | 521.3hPa | 0V | 00:00:00 | 00:00:00 | 00:00:00 | |
| OM5KV | 2026-08-30 23:36:10 | 47.44743 | 19.23394 | 99° | 33km/h | 5528m | 7.5m/s | -7.0°C | 8.8% | 522.2hPa | 0V | 00:00:00 | 00:00:00 | 00:00:00 | |
| OM5KV | 2026-08-30 23:36:06 | 47.44737 | 19.23303 | 83° | 58km/h | 5496m | 6.4m/s | -6.7°C | 7.0% | 524.4hPa | 0V | 00:00:00 | 00:00:00 | 00:00:00 | |
| OM5KV | 2026-08-30 23:36:00 | 47.44732 | 19.23195 | 88° | 60km/h | 5470m | 5.6m/s | -6.5°C | 6.5% | 526.1hPa | 0V | 00:00:00 | 00:00:00 | 00:00:00 | |
| OM5KV | 2026-08-30 23:35:58 | 47.44730 | 19.23173 | 85° | 62km/h | 5465m | 4.4m/s | -6.4°C | 6.4% | 526.4hPa | 0V | 00:00:00 | 00:00:00 | 00:00:00 | |
| OM5KV | 2026-08-30 23:35:54 | 47.44720 | 19.23095 | 71° | 42km/h | 5446m | 5.2m/s | -6.3°C | 5.3% | 527.6hPa | 0V | 00:00:00 | 00:00:00 | 00:00:00 | |
| OM5KV | 2026-08-30 23:35:53 | 47.44716 | 19.23080 | 66° | 40km/h | 5440m | 6.7m/s | -6.3°C | 5.2% | 528.0hPa | 0V | 00:00:00 | 00:00:00 | 00:00:00 | |
| OM5KV | 2026-08-30 23:35:48 | 47.44699 | 19.22999 | 88° | 51km/h | 5413m | 3.9m/s | -6.1°C | 4.2% | 529.8hPa | 0V | 00:00:00 | 00:00:00 | 00:00:00 | |
| ATIDSZ-14 | 2026-08-30 23:35:45 | 47.44703 | 19.22947 | 98° | 37km/h | 5395m | 5.6m/s | -6.0°C | 4.1% | 531.2hPa | 0V | 00:00:00 | 00:00:00 | 00:00:00 | |
| OM5KV | 2026-08-30 23:35:43 | 47.44698 | 19.22905 | 73° | 44km/h | 5376m | 5.2m/s | -6.0°C | 4.2% | 532.4hPa | 0V | 00:00:00 | 00:00:00 | 00:00:00 | |
| OM5KV | 2026-08-30 23:35:37 | 47.44688 | 19.22816 | 88° | 38km/h | 5345m | 5.1m/s | -5.7°C | 4.5% | 534.4hPa | 0V | 00:00:00 | 00:00:00 | 00:00:00 | |
| OM5KV | 2026-08-30 23:35:36 | 47.44687 | 19.22803 | 84° | 33km/h | 5339m | 5.8m/s | -5.7°C | 4.6% | 534.8hPa | 0V | 00:00:00 | 00:00:00 | 00:00:00 | |
| OM5KV | 2026-08-30 23:35:32 | 47.44676 | 19.22759 | 67° | 38km/h | 5316m | 4.8m/s | -5.5°C | 4.9% | 536.5hPa | 0V | 00:00:00 | 00:00:00 | 00:00:00 | |
| OM5KV | 2026-08-30 23:35:30 | 47.44666 | 19.22732 | 59° | 44km/h | 5301m | 7.9m/s | -5.4°C | 5.5% | 537.4hPa | 0V | 00:00:00 | 00:00:00 | 00:00:00 | |
| OM5KV | 2026-08-30 23:35:26 | 47.44654 | 19.22671 | 93° | 40km/h | 5279m | 5.5m/s | -5.3°C | 5.1% | 539.0hPa | 0V | 00:00:00 | 00:00:00 | 00:00:00 | |
| ATIDSZ-14 | 2026-08-30 23:35:24 | 47.44658 | 19.22641 | 105° | 38km/h | 5268m | 5.2m/s | -5.2°C | 4.9% | 539.8hPa | 0V | 00:00:00 | 00:00:00 | 00:00:00 | |
| OM5KV | 2026-08-30 23:35:21 | 47.44656 | 19.22590 | 69° | 35km/h | 5248m | 5.1m/s | -5.1°C | 4.7% | 541.1hPa | 0V | 00:00:00 | 00:00:00 | 00:00:00 | |
| OM5KV | 2026-08-30 23:35:17 | 47.44646 | 19.22559 | 71° | 26km/h | 5229m | 7.0m/s | -4.9°C | 4.8% | 542.5hPa | 0V | 00:00:00 | 00:00:00 | 00:00:00 | |
| GYPAP8-17 | 2026-08-30 23:35:15 | 47.44644 | 19.22544 | 85° | 18km/h | 5219m | 6.7m/s | 0°C | 0% | 0hPa | 0V | 00:00:00 | 00:00:00 | 00:00:00 | |
| OM5KV | 2026-08-30 23:35:12 | 47.44641 | 19.22523 | 84° | 22km/h | 5201m | 4.7m/s | -4.6°C | 4.5% | 544.4hPa | 0V | 00:00:00 | 00:00:00 | 00:00:00 | |
| OM5KV | 2026-08-30 23:35:06 | 47.44642 | 19.22430 | 91° | 44km/h | 5170m | 3.7m/s | -4.4°C | 4.8% | 546.6hPa | 0V | 00:00:00 | 00:00:00 | 00:00:00 | |
| ATIDSZ-14 | 2026-08-30 23:35:02 | 47.44639 | 19.22385 | 85° | 22km/h | 5150m | 5.0m/s | -4.3°C | 4.9% | 547.9hPa | 0V | 00:00:00 | 00:00:00 | 00:00:00 | |
| OM5KV | 2026-08-30 23:35:00 | 47.44640 | 19.22370 | 96° | 22km/h | 5141m | 2.9m/s | -4.3°C | 5.0% | 548.6hPa | 0V | 00:00:00 | 00:00:00 | 00:00:00 | |
| OM5KV | 2026-08-30 23:34:56 | 47.44639 | 19.22299 | 88° | 51km/h | 5114m | 6.5m/s | -4.1°C | 4.4% | 550.5hPa | 0V | 00:00:00 | 00:00:00 | 00:00:00 | |
| OM5KV | 2026-08-30 23:34:55 | 47.44639 | 19.22299 | 88° | 51km/h | 5114m | 6.5m/s | -4.1°C | 4.4% | 550.5hPa | 0V | 00:00:00 | 00:00:00 | 00:00:00 | |
| OM5KV | 2026-08-30 23:34:49 | 47.44639 | 19.22200 | 81° | 20km/h | 5073m | 5.4m/s | -4.0°C | 5.4% | 553.3hPa | 0V | 00:00:00 | 00:00:00 | 00:00:00 | |
| OM5KV | 2026-08-30 23:34:42 | 47.44620 | 19.22122 | 78° | 47km/h | 5043m | 6.1m/s | -3.8°C | 5.7% | 555.4hPa | 0V | 00:00:00 | 00:00:00 | 00:00:00 | |
| ATIDSZ-14 | 2026-08-30 23:34:40 | 47.44614 | 19.22090 | 75° | 40km/h | 5032m | 6.8m/s | -3.9°C | 5.9% | 556.1hPa | 0V | 00:00:00 | 00:00:00 | 00:00:00 | |
| OM5KV | 2026-08-30 23:34:38 | 47.44605 | 19.22057 | 63° | 27km/h | 5013m | 6.7m/s | -3.8°C | 6.4% | 557.4hPa | 0V | 00:00:00 | 00:00:00 | 00:00:00 | |
| OM5KV | 2026-08-30 23:34:32 | 47.44597 | 19.21999 | 62° | 33km/h | 4977m | 5.5m/s | -3.8°C | 6.0% | 560.2hPa | 0V | 00:00:00 | 00:00:00 | 00:00:00 | |
| OM5KV | 2026-08-30 23:34:27 | 47.44566 | 19.21939 | 58° | 37km/h | 4953m | 3.3m/s | -3.6°C | 5.2% | 561.8hPa | 0V | 00:00:00 | 00:00:00 | 00:00:00 | |
| OM5KV | 2026-08-30 23:34:25 | 47.44561 | 19.21928 | 62° | 31km/h | 4949m | 6.3m/s | -3.6°C | 4.7% | 562.1hPa | 0V | 00:00:00 | 00:00:00 | 00:00:00 | |
| OM5KV | 2026-08-30 23:34:21 | 47.44549 | 19.21866 | 71° | 44km/h | 4914m | 7.7m/s | -3.4°C | 5.3% | 564.5hPa | 0V | 00:00:00 | 00:00:00 | 00:00:00 | |
| ATIDSZ-14 | 2026-08-30 23:34:20 | 47.44549 | 19.21866 | 71° | 44km/h | 4914m | 7.7m/s | -3.4°C | 5.3% | 564.5hPa | 0V | 00:00:00 | 00:00:00 | 00:00:00 | |
| OM5KV | 2026-08-30 23:34:19 | 47.44545 | 19.21849 | 67° | 51km/h | 4908m | 5.0m/s | -3.4°C | 5.5% | 565.0hPa | 0V | 00:00:00 | 00:00:00 | 00:00:00 | |
| OM5KV | 2026-08-30 23:34:15 | 47.44524 | 19.21778 | 72° | 42km/h | 4887m | 6.0m/s | -3.4°C | 5.8% | 566.4hPa | 0V | 00:00:00 | 00:00:00 | 00:00:00 | |
| OM5KV | 2026-08-30 23:34:14 | 47.44522 | 19.21764 | 79° | 35km/h | 4882m | 5.4m/s | -3.4°C | 5.9% | 566.9hPa | 0V | 00:00:00 | 00:00:00 | 00:00:00 | |
| OM5KV | 2026-08-30 23:34:10 | 47.44520 | 19.21706 | 77° | 35km/h | 4853m | 3.9m/s | -3.2°C | 5.7% | 569.0hPa | 0V | 00:00:00 | 00:00:00 | 00:00:00 | |
| OM5KV | 2026-08-30 23:34:08 | 47.44518 | 19.21693 | 71° | 40km/h | 4848m | 4.9m/s | -3.2°C | 5.7% | 569.3hPa | 0V | 00:00:00 | 00:00:00 | 00:00:00 | |
| OM5KV | 2026-08-30 23:34:04 | 47.44505 | 19.21625 | 83° | 47km/h | 4825m | 4.9m/s | -3.1°C | 5.8% | 570.9hPa | 0V | 00:00:00 | 00:00:00 | 00:00:00 | |
| ATIDSZ-14 | 2026-08-30 23:34:00 | 47.44491 | 19.21570 | 51° | 33km/h | 4802m | 6.3m/s | -2.9°C | 6.0% | 572.6hPa | 0V | 00:00:00 | 00:00:00 | 00:00:00 | |
| OM5KV | 2026-08-30 23:33:58 | 47.44480 | 19.21552 | 51° | 33km/h | 4790m | 5.2m/s | -2.8°C | 6.1% | 573.5hPa | 0V | 00:00:00 | 00:00:00 | 00:00:00 | |
| OM5KV | 2026-08-30 23:33:57 | 47.44475 | 19.21543 | 52° | 29km/h | 4785m | 3.9m/s | -2.8°C | 6.1% | 573.9hPa | 0V | 00:00:00 | 00:00:00 | 00:00:00 | |
| OM5KV | 2026-08-30 23:33:53 | 47.44458 | 19.21503 | 56° | 26km/h | 4760m | 5.0m/s | -2.7°C | 5.6% | 575.7hPa | 0V | 00:00:00 | 00:00:00 | 00:00:00 | |
| OM5KV | 2026-08-30 23:33:51 | 47.44453 | 19.21495 | 54° | 31km/h | 4756m | 4.4m/s | -2.6°C | 5.6% | 576.1hPa | 0V | 00:00:00 | 00:00:00 | 00:00:00 | |
| OM5KV | 2026-08-30 23:33:47 | 47.44434 | 19.21454 | 76° | 31km/h | 4735m | 5.4m/s | -2.6°C | 5.6% | 577.6hPa | 0V | 00:00:00 | 00:00:00 | 00:00:00 | |
| OM5KV | 2026-08-30 23:33:46 | 47.44433 | 19.21431 | 99° | 33km/h | 4723m | 5.1m/s | -2.6°C | 5.8% | 578.3hPa | 0V | 00:00:00 | 00:00:00 | 00:00:00 | |
| ATIDSZ-14 | 2026-08-30 23:33:39 | 47.44432 | 19.21350 | 81° | 38km/h | 4688m | 6.6m/s | -2.9°C | 7.1% | 581.0hPa | 0V | 00:00:00 | 00:00:00 | 00:00:00 | |
| OM5KV | 2026-08-30 23:33:36 | 47.44433 | 19.21285 | 91° | 47km/h | 4660m | 7.2m/s | -3.0°C | 10.1% | 583.0hPa | 0V | 00:00:00 | 00:00:00 | 00:00:00 | |
| OM5KV | 2026-08-30 23:33:33 | 47.44432 | 19.21250 | 88° | 49km/h | 4649m | 7.6m/s | -3.4°C | 16.6% | 583.8hPa | 0V | 00:00:00 | 00:00:00 | 00:00:00 | |
| OM5KV | 2026-08-30 23:33:30 | 47.44429 | 19.21195 | 86° | 24km/h | 4621m | 6.9m/s | -4.0°C | 23.6% | 586.0hPa | 0V | 00:00:00 | 00:00:00 | 00:00:00 | |
| OM5KV | 2026-08-30 23:33:28 | 47.44427 | 19.21186 | 72° | 26km/h | 4614m | 6.9m/s | -4.2°C | 29.4% | 586.5hPa | 0V | 00:00:00 | 00:00:00 | 00:00:00 | |
| OM5KV | 2026-08-30 23:33:23 | 47.44416 | 19.21127 | 85° | 33km/h | 4585m | 6.2m/s | -5.1°C | 69.1% | 588.6hPa | 0V | 00:00:00 | 00:00:00 | 00:00:00 | |
| OM5KV | 2026-08-30 23:33:22 | 47.44416 | 19.21115 | 87° | 27km/h | 4578m | 8.2m/s | -5.2°C | 71.2% | 589.2hPa | 0V | 00:00:00 | 00:00:00 | 00:00:00 | |
| OM5KV | 2026-08-30 23:33:17 | 47.44398 | 19.21066 | 68° | 40km/h | 4546m | 8.9m/s | -4.9°C | 71.9% | 591.4hPa | 0V | 00:00:00 | 00:00:00 | 00:00:00 | |
| OM5KV | 2026-08-30 23:33:12 | 47.44389 | 19.20986 | 81° | 42km/h | 4513m | 7.9m/s | -4.6°C | 70.8% | 594.0hPa | 0V | 00:00:00 | 00:00:00 | 00:00:00 | |
| OM5KV | 2026-08-30 23:33:07 | 47.44361 | 19.20906 | 59° | 27km/h | 4475m | 6.4m/s | -4.3°C | 69.3% | 596.8hPa | 0V | 00:00:00 | 00:00:00 | 00:00:00 | |
| OM5KV | 2026-08-30 23:33:00 | 47.44353 | 19.20853 | 95° | 24km/h | 4441m | 6.9m/s | -3.9°C | 67.5% | 599.2hPa | 0V | 00:00:00 | 00:00:00 | 00:00:00 | |
| OM5KV | 2026-08-30 23:32:59 | 47.44353 | 19.20845 | 87° | 22km/h | 4435m | 4.5m/s | -3.9°C | 67.6% | 599.8hPa | 0V | 00:00:00 | 00:00:00 | 00:00:00 | |
| ATIDSZ-14 | 2026-08-30 23:32:58 | 47.44353 | 19.20836 | 80° | 26km/h | 4431m | 3.6m/s | -3.8°C | 0% | 0hPa | 0V | 00:00:00 | 00:00:00 | 00:00:00 | |
| OM5KV | 2026-08-30 23:32:54 | 47.44344 | 19.20785 | 78° | 38km/h | 4412m | 5.9m/s | -3.6°C | 66.9% | 601.6hPa | 0V | 00:00:00 | 00:00:00 | 00:00:00 | |
| OM5KV | 2026-08-30 23:32:53 | 47.44342 | 19.20772 | 86° | 33km/h | 4405m | 8.2m/s | -3.6°C | 66.4% | 602.0hPa | 0V | 00:00:00 | 00:00:00 | 00:00:00 | |
| OM5KV | 2026-08-30 23:32:49 | 47.44335 | 19.20733 | 51° | 24km/h | 4376m | 4.3m/s | -3.3°C | 63.2% | 604.3hPa | 0V | 00:00:00 | 00:00:00 | 00:00:00 | |
| OM5KV | 2026-08-30 23:32:43 | 47.44308 | 19.20679 | 66° | 44km/h | 4353m | 5.3m/s | -3.2°C | 59.0% | 606.1hPa | 0V | 00:00:00 | 00:00:00 | 00:00:00 | |
| ATIDSZ-14 | 2026-08-30 23:32:38 | 47.44287 | 19.20601 | 64° | 40km/h | 4320m | 5.1m/s | -3.3°C | 0% | 0hPa | 0V | 00:00:00 | 00:00:00 | 00:00:00 | |
| OM5KV | 2026-08-30 23:32:37 | 47.44282 | 19.20587 | 69° | 42km/h | 4313m | 7.2m/s | -3.3°C | 75.3% | 609.0hPa | 0V | 00:00:00 | 00:00:00 | 00:00:00 | |
| OM5KV | 2026-08-30 23:32:33 | 47.44279 | 19.20534 | 93° | 24km/h | 4288m | 6.1m/s | -3.4°C | 85.0% | 610.9hPa | 0V | 00:00:00 | 00:00:00 | 00:00:00 | |
| OM5KV | 2026-08-30 23:32:31 | 47.44278 | 19.20521 | 70° | 15km/h | 4278m | 7.6m/s | -3.3°C | 86.0% | 611.9hPa | 0V | 00:00:00 | 00:00:00 | 00:00:00 | |
| OM5KV | 2026-08-30 23:32:27 | 47.44273 | 19.20492 | 76° | 31km/h | 4243m | 7.4m/s | -3.1°C | 87.4% | 614.4hPa | 0V | 00:00:00 | 00:00:00 | 00:00:00 | |
| OM5KV | 2026-08-30 23:32:25 | 47.44266 | 19.20469 | 62° | 35km/h | 4232m | 7.0m/s | -3.0°C | 87.1% | 615.3hPa | 0V | 00:00:00 | 00:00:00 | 00:00:00 | |
| OM5KV | 2026-08-30 23:32:20 | 47.44250 | 19.20443 | 39° | 16km/h | 4209m | 4.4m/s | -2.8°C | 87.4% | 617.2hPa | 0V | 00:00:00 | 00:00:00 | 00:00:00 | |
| OM5KV | 2026-08-30 23:32:15 | 47.44224 | 19.20404 | 54° | 40km/h | 4181m | 6.5m/s | -2.6°C | 88.3% | 619.3hPa | 0V | 00:00:00 | 00:00:00 | 00:00:00 | |
| OM5KV | 2026-08-30 23:32:13 | 47.44214 | 19.20380 | 67° | 37km/h | 4171m | 5.2m/s | -2.5°C | 88.1% | 620.1hPa | 0V | 00:00:00 | 00:00:00 | 00:00:00 | |
| OM5KV | 2026-08-30 23:32:10 | 47.44207 | 19.20332 | 81° | 29km/h | 4151m | 4.3m/s | -2.4°C | 87.8% | 621.6hPa | 0V | 00:00:00 | 00:00:00 | 00:00:00 | |
| OM5KV | 2026-08-30 23:32:08 | 47.44205 | 19.20322 | 70° | 27km/h | 4147m | 4.0m/s | -2.3°C | 87.9% | 622.0hPa | 0V | 00:00:00 | 00:00:00 | 00:00:00 | |
| OM5KV | 2026-08-30 23:32:04 | 47.44187 | 19.20291 | 39° | 29km/h | 4127m | 7.7m/s | -2.1°C | 86.1% | 623.6hPa | 0V | 00:00:00 | 00:00:00 | 00:00:00 | |
| OM5KV | 2026-08-30 23:32:02 | 47.44176 | 19.20276 | 47° | 29km/h | 4114m | 6.0m/s | -2.0°C | 84.9% | 624.7hPa | 0V | 00:00:00 | 00:00:00 | 00:00:00 | |
| OM5KV | 2026-08-30 23:31:58 | 47.44154 | 19.20251 | 40° | 31km/h | 4093m | 5.5m/s | -1.8°C | 84.2% | 626.3hPa | 0V | 00:00:00 | 00:00:00 | 00:00:00 | |
| OM5KV | 2026-08-30 23:31:57 | 47.44142 | 19.20233 | 57° | 38km/h | 4083m | 3.7m/s | -1.7°C | 83.2% | 627.1hPa | 0V | 00:00:00 | 00:00:00 | 00:00:00 | |
| OM5KV | 2026-08-30 23:31:53 | 47.44128 | 19.20199 | 62° | 13km/h | 4059m | 7.9m/s | -1.4°C | 81.9% | 628.9hPa | 0V | 00:00:00 | 00:00:00 | 00:00:00 | |
| OM5KV | 2026-08-30 23:31:45 | 47.44114 | 19.20160 | 38° | 29km/h | 4018m | 5.6m/s | -1.1°C | 81.1% | 632.1hPa | 0V | 00:00:00 | 00:00:00 | 00:00:00 | |
| OM5KV | 2026-08-30 23:31:40 | 47.44078 | 19.20126 | 35° | 37km/h | 3994m | 4.9m/s | -0.8°C | 79.8% | 634.1hPa | 0V | 00:00:00 | 00:00:00 | 00:00:00 | |
| OM5KV | 2026-08-30 23:31:34 | 47.44035 | 19.20083 | 22° | 26km/h | 3964m | 6.5m/s | -0.5°C | 76.0% | 636.3hPa | 0V | 00:00:00 | 00:00:00 | 00:00:00 | |
| OM5KV | 2026-08-30 23:31:29 | 47.44021 | 19.20060 | 63° | 16km/h | 3933m | 6.2m/s | -0.3°C | 73.9% | 638.8hPa | 0V | 00:00:00 | 00:00:00 | 00:00:00 | |
| OM5KV | 2026-08-30 23:31:27 | 47.44019 | 19.20054 | 52° | 18km/h | 3926m | 5.9m/s | -0.2°C | 73.7% | 639.3hPa | 0V | 00:00:00 | 00:00:00 | 00:00:00 | |
| ATIDSZ-14 | 2026-08-30 23:31:22 | 47.43994 | 19.20039 | 27° | 20km/h | 3899m | 3.3m/s | -0.1°C | 0% | 0hPa | 0V | 00:00:00 | 00:00:00 | 00:00:00 | |
| OM5KV | 2026-08-30 23:31:21 | 47.43989 | 19.20036 | 29° | 20km/h | 3894m | 5.4m/s | -0.0°C | 72.0% | 641.8hPa | 0V | 00:00:00 | 00:00:00 | 00:00:00 | |
| OM5KV | 2026-08-30 23:31:17 | 47.43962 | 19.20012 | 28° | 29km/h | 3869m | 4.9m/s | 0.2°C | 70.9% | 644.0hPa | 0V | 00:00:00 | 00:00:00 | 00:00:00 | |
| OM5KV | 2026-08-30 23:31:11 | 47.43933 | 19.19997 | 14° | 22km/h | 3842m | 7.0m/s | 0.4°C | 70.3% | 646.2hPa | 0V | 00:00:00 | 00:00:00 | 00:00:00 | |
| OM5KV | 2026-08-30 23:31:10 | 47.43928 | 19.19995 | 24° | 20km/h | 3836m | 5.2m/s | 0.4°C | 69.9% | 646.7hPa | 0V | 00:00:00 | 00:00:00 | 00:00:00 | |
| OM5KV | 2026-08-30 23:31:05 | 47.43911 | 19.19980 | 59° | 18km/h | 3813m | 4.0m/s | 0.6°C | 63.8% | 648.5hPa | 0V | 00:00:00 | 00:00:00 | 00:00:00 | |
| OM5KV | 2026-08-30 23:31:04 | 47.43909 | 19.19975 | 76° | 15km/h | 3807m | 7.9m/s | 0.6°C | 61.8% | 649.0hPa | 0V | 00:00:00 | 00:00:00 | 00:00:00 | |
| OM5KV | 2026-08-30 23:31:00 | 47.43904 | 19.19960 | 38° | 18km/h | 3780m | 4.0m/s | 0.9°C | 60.3% | 651.4hPa | 0V | 00:00:00 | 00:00:00 | 00:00:00 | |
| ATIDSZ-14 | 2026-08-30 23:30:59 | 47.43900 | 19.19956 | 29° | 20km/h | 3776m | 4.9m/s | 0.9°C | 0% | 0hPa | 0V | 00:00:00 | 00:00:00 | 00:00:00 | |
| OM5KV | 2026-08-30 23:30:58 | 47.43895 | 19.19952 | 27° | 24km/h | 3770m | 5.5m/s | 1.0°C | 59.6% | 652.1hPa | 0V | 00:00:00 | 00:00:00 | 00:00:00 | |
| OM5KV | 2026-08-30 23:30:52 | 47.43880 | 19.19921 | 104° | 7km/h | 3739m | 7.0m/s | 1.3°C | 56.2% | 654.6hPa | 0V | 00:00:00 | 00:00:00 | 00:00:00 | |
| OM5KV | 2026-08-30 23:30:50 | 47.43879 | 19.19913 | 88° | 15km/h | 3728m | 5.3m/s | 1.4°C | 56.4% | 655.5hPa | 0V | 00:00:00 | 00:00:00 | 00:00:00 | |
| OM5KV | 2026-08-30 23:30:44 | 47.43858 | 19.19856 | 42° | 35km/h | 3698m | 3.8m/s | 1.6°C | 55.6% | 658.0hPa | 0V | 00:00:00 | 00:00:00 | 00:00:00 | |
| OM5KV | 2026-08-30 23:30:39 | 47.43835 | 19.19802 | 75° | 20km/h | 3664m | 7.3m/s | 1.9°C | 50.9% | 660.7hPa | 0V | 00:00:00 | 00:00:00 | 00:00:00 | |
| ATIDSZ-14 | 2026-08-30 23:30:38 | 47.43835 | 19.19802 | 75° | 20km/h | 3664m | 7.3m/s | 1.9°C | 0% | 0hPa | 0V | 00:00:00 | 00:00:00 | 00:00:00 | |
| OM5KV | 2026-08-30 23:30:36 | 47.43831 | 19.19789 | 72° | 18km/h | 3654m | 6.6m/s | 2.0°C | 52.1% | 661.5hPa | 0V | 00:00:00 | 00:00:00 | 00:00:00 | |
| OM5KV | 2026-08-30 23:30:32 | 47.43819 | 19.19749 | 70° | 35km/h | 3631m | 7.4m/s | 2.1°C | 54.0% | 663.4hPa | 0V | 00:00:00 | 00:00:00 | 00:00:00 | |
| OM5KV | 2026-08-30 23:30:30 | 47.43814 | 19.19727 | 80° | 26km/h | 3620m | 5.2m/s | 2.2°C | 56.9% | 664.3hPa | 0V | 00:00:00 | 00:00:00 | 00:00:00 | |
| OM5KV | 2026-08-30 23:30:27 | 47.43816 | 19.19701 | 93° | 22km/h | 3605m | 4.2m/s | 2.3°C | 59.7% | 665.5hPa | 0V | 00:00:00 | 00:00:00 | 00:00:00 | |
| OM5KV | 2026-08-30 23:30:23 | 47.43810 | 19.19663 | 61° | 29km/h | 3586m | 5.3m/s | 2.4°C | 58.3% | 667.1hPa | 0V | 00:00:00 | 00:00:00 | 00:00:00 | |
| OM5KV | 2026-08-30 23:30:22 | 47.43806 | 19.19654 | 50° | 27km/h | 3581m | 4.8m/s | 2.5°C | 58.2% | 667.7hPa | 0V | 00:00:00 | 00:00:00 | 00:00:00 | |
| ATIDSZ-14 | 2026-08-30 23:30:16 | 47.43794 | 19.19637 | 342° | 5km/h | 3543m | 3.7m/s | 2.7°C | 0% | 0hPa | 0V | 00:00:00 | 00:00:00 | 00:00:00 | |
| OM5KV | 2026-08-30 23:30:12 | 47.43785 | 19.19635 | 26° | 18km/h | 3531m | 3.7m/s | 2.8°C | 57.7% | 671.8hPa | 0V | 00:00:00 | 00:00:00 | 00:00:00 | |
| OM5KV | 2026-08-30 23:30:11 | 47.43780 | 19.19631 | 36° | 22km/h | 3526m | 6.0m/s | 2.9°C | 57.9% | 672.3hPa | 0V | 00:00:00 | 00:00:00 | 00:00:00 | |
| OM5KV | 2026-08-30 23:30:07 | 47.43767 | 19.19601 | 76° | 22km/h | 3503m | 4.6m/s | 3.1°C | 55.6% | 674.1hPa | 0V | 00:00:00 | 00:00:00 | 00:00:00 | |
| OM5KV | 2026-08-30 23:30:00 | 47.43740 | 19.19552 | 50° | 29km/h | 3466m | 3.3m/s | 3.4°C | 50.3% | 677.4hPa | 0V | 00:00:00 | 00:00:00 | 00:00:00 | |
| ATIDSZ-14 | 2026-08-30 23:29:54 | 47.43719 | 19.19497 | 71° | 20km/h | 3434m | 5.9m/s | 0°C | 0% | 0hPa | 0V | 00:00:00 | 00:00:00 | 00:00:00 | |
| OM5KV | 2026-08-30 23:29:48 | 47.43703 | 19.19460 | 78° | 24km/h | 3395m | 4.7m/s | 3.9°C | 49.8% | 683.2hPa | 0V | 00:00:00 | 00:00:00 | 00:00:00 | |
| OM5KV | 2026-08-30 23:29:47 | 47.43701 | 19.19452 | 88° | 22km/h | 3389m | 6.9m/s | 3.9°C | 49.5% | 683.6hPa | 0V | 00:00:00 | 00:00:00 | 00:00:00 | |
| OM5KV | 2026-08-30 23:29:42 | 47.43703 | 19.19429 | 51° | 13km/h | 3362m | 6.5m/s | 4.2°C | 49.0% | 685.9hPa | 0V | 00:00:00 | 00:00:00 | 00:00:00 | |
| OM5KV | 2026-08-30 23:29:36 | 47.43692 | 19.19394 | 34° | 11km/h | 3325m | 6.2m/s | 4.5°C | 49.6% | 689.0hPa | 0V | 00:00:00 | 00:00:00 | 00:00:00 | |
| ATIDSZ-14 | 2026-08-30 23:29:34 | 47.43685 | 19.19392 | 11° | 20km/h | 3315m | 5.2m/s | 0°C | 0% | 0hPa | 0V | 00:00:00 | 00:00:00 | 00:00:00 | |
| OM5KV | 2026-08-30 23:29:31 | 47.43672 | 19.19379 | 58° | 20km/h | 3299m | 4.9m/s | 4.7°C | 49.8% | 691.3hPa | 0V | 00:00:00 | 00:00:00 | 00:00:00 | |
| OM5KV | 2026-08-30 23:29:30 | 47.43670 | 19.19372 | 70° | 20km/h | 3292m | 7.8m/s | 4.7°C | 49.2% | 691.7hPa | 0V | 00:00:00 | 00:00:00 | 00:00:00 | |
| OM5KV | 2026-08-30 23:29:26 | 47.43674 | 19.19353 | 132° | 11km/h | 3264m | 5.4m/s | 4.9°C | 49.7% | 693.9hPa | 0V | 00:00:00 | 00:00:00 | 00:00:00 | |
| OM5KV | 2026-08-30 23:29:24 | 47.43675 | 19.19350 | 0° | 0km/h | 3255m | 5.9m/s | 5.0°C | 49.6% | 694.8hPa | 0V | 00:00:00 | 00:00:00 | 00:00:00 | |
| OM5KV | 2026-08-30 23:29:18 | 47.43658 | 19.19335 | 86° | 16km/h | 3228m | 5.2m/s | 5.2°C | 48.0% | 697.3hPa | 0V | 00:00:00 | 00:00:00 | 00:00:00 | |
| OM5KV | 2026-08-30 23:29:13 | 47.43664 | 19.19318 | 106° | 5km/h | 3198m | 7.3m/s | 5.3°C | 51.9% | 699.6hPa | 0V | 00:00:00 | 00:00:00 | 00:00:00 | |
| ATIDSZ-14 | 2026-08-30 23:29:11 | 47.43661 | 19.19312 | 48° | 13km/h | 3186m | 5.4m/s | 0°C | 0% | 0hPa | 0V | 00:00:00 | 00:00:00 | 00:00:00 | |
| OM5KV | 2026-08-30 23:29:08 | 47.43654 | 19.19305 | 34° | 9km/h | 3168m | 7.9m/s | 5.5°C | 49.7% | 702.3hPa | 0V | 00:00:00 | 00:00:00 | 00:00:00 | |
| OM5KV | 2026-08-30 23:29:02 | 47.43641 | 19.19294 | 60° | 13km/h | 3132m | 5.6m/s | 5.8°C | 51.6% | 705.5hPa | 0V | 00:00:00 | 00:00:00 | 00:00:00 | |
| OM5KV | 2026-08-30 23:29:01 | 47.43640 | 19.19291 | 85° | 7km/h | 3125m | 6.6m/s | 5.9°C | 50.5% | 706.0hPa | 0V | 00:00:00 | 00:00:00 | 00:00:00 | |
| OM5KV | 2026-08-30 23:28:58 | 47.43638 | 19.19276 | 48° | 18km/h | 3099m | 6.5m/s | 6.1°C | 49.6% | 708.1hPa | 0V | 00:00:00 | 00:00:00 | 00:00:00 | |
| OM5KV | 2026-08-30 23:28:55 | 47.43630 | 19.19265 | 46° | 26km/h | 3088m | 6.7m/s | 6.2°C | 48.9% | 709.2hPa | 0V | 00:00:00 | 00:00:00 | 00:00:00 | |
| OM5KV | 2026-08-30 23:28:51 | 47.43606 | 19.19243 | 34° | 22km/h | 3063m | 6.4m/s | 6.4°C | 49.6% | 711.2hPa | 0V | 00:00:00 | 00:00:00 | 00:00:00 | |
| OM5KV | 2026-08-30 23:28:45 | 47.43599 | 19.19219 | 176° | 4km/h | 3034m | 5.1m/s | 6.5°C | 49.1% | 713.6hPa | 0V | 00:00:00 | 00:00:00 | 00:00:00 | |
| OM5KV | 2026-08-30 23:28:44 | 47.43600 | 19.19219 | 191° | 5km/h | 3027m | 6.9m/s | 6.6°C | 48.6% | 714.0hPa | 0V | 00:00:00 | 00:00:00 | 00:00:00 | |
| OM5KV | 2026-08-30 23:28:39 | 47.43597 | 19.19229 | 348° | 11km/h | 3000m | 4.2m/s | 6.7°C | 50.8% | 716.5hPa | 0V | 00:00:00 | 00:00:00 | 00:00:00 | |
| OM5KV | 2026-08-30 23:28:38 | 47.43593 | 19.19230 | 358° | 15km/h | 2996m | 4.6m/s | 6.7°C | 49.5% | 716.9hPa | 0V | 00:00:00 | 00:00:00 | 00:00:00 | |
| OM5KV | 2026-08-30 23:28:34 | 47.43575 | 19.19217 | 32° | 18km/h | 2972m | 5.7m/s | 6.9°C | 49.4% | 719.2hPa | 0V | 00:00:00 | 00:00:00 | 00:00:00 | |
| ATIDSZ-14 | 2026-08-30 23:28:33 | 47.43575 | 19.19217 | 32° | 18km/h | 2972m | 5.7m/s | 0°C | 0% | 0hPa | 0V | 00:00:00 | 00:00:00 | 00:00:00 | |
| OM5KV | 2026-08-30 23:28:27 | 47.43549 | 19.19203 | 355° | 15km/h | 2946m | 4.4m/s | 7.1°C | 48.6% | 721.7hPa | 0V | 00:00:00 | 00:00:00 | 00:00:00 | |
| OM5KV | 2026-08-30 23:28:23 | 47.43545 | 19.19206 | 141° | 9km/h | 2921m | 5.3m/s | 7.2°C | 48.0% | 723.8hPa | 0V | 00:00:00 | 00:00:00 | 00:00:00 | |
| OM5KV | 2026-08-30 23:28:21 | 47.43546 | 19.19203 | 120° | 13km/h | 2917m | 4.1m/s | 7.2°C | 48.5% | 724.1hPa | 0V | 00:00:00 | 00:00:00 | 00:00:00 | |
| OM5KV | 2026-08-30 23:28:15 | 47.43537 | 19.19171 | 32° | 15km/h | 2886m | 4.7m/s | 7.4°C | 48.8% | 727.1hPa | 0V | 00:00:00 | 00:00:00 | 00:00:00 | |
| OM5KV | 2026-08-30 23:28:12 | 47.43534 | 19.19163 | 179° | 11km/h | 2864m | 5.2m/s | 7.5°C | 49.8% | 728.9hPa | 0V | 00:00:00 | 00:00:00 | 00:00:00 | |
| ATIDSZ-14 | 2026-08-30 23:28:11 | 47.43534 | 19.19163 | 179° | 11km/h | 2864m | 5.2m/s | 0°C | 0% | 0hPa | 0V | 00:00:00 | 00:00:00 | 00:00:00 | |
| OM5KV | 2026-08-30 23:28:05 | 47.43534 | 19.19175 | 34° | 13km/h | 2829m | 6.2m/s | 7.5°C | 55.0% | 732.0hPa | 0V | 00:00:00 | 00:00:00 | 00:00:00 | |
| OM5KV | 2026-08-30 23:28:03 | 47.43531 | 19.19167 | 77° | 16km/h | 2818m | 6.0m/s | 7.5°C | 55.6% | 733.0hPa | 0V | 00:00:00 | 00:00:00 | 00:00:00 | |
| OM5KV | 2026-08-30 23:28:00 | 47.43538 | 19.19148 | 160° | 13km/h | 2796m | 3.6m/s | 7.5°C | 56.1% | 734.8hPa | 0V | 00:00:00 | 00:00:00 | 00:00:00 | |
| OM5KV | 2026-08-30 23:27:58 | 47.43540 | 19.19147 | 196° | 9km/h | 2792m | 4.9m/s | 7.6°C | 56.2% | 735.4hPa | 0V | 00:00:00 | 00:00:00 | 00:00:00 | |
| OM5KV | 2026-08-30 23:27:53 | 47.43535 | 19.19148 | 53° | 15km/h | 2765m | 4.7m/s | 7.8°C | 57.1% | 737.6hPa | 0V | 00:00:00 | 00:00:00 | 00:00:00 | |
| OM5KV | 2026-08-30 23:27:52 | 47.43534 | 19.19144 | 74° | 13km/h | 2761m | 5.3m/s | 7.9°C | 0% | 738.0hPa | 0V | 00:00:00 | 00:00:00 | 00:00:00 | |
| ATIDSZ-14 | 2026-08-30 23:27:47 | 47.43537 | 19.19138 | 293° | 4km/h | 2733m | 4.9m/s | 0°C | 0% | 0hPa | 0V | 00:00:00 | 00:00:00 | 00:00:00 | |
| OM5KV | 2026-08-30 23:27:34 | 47.43529 | 19.19153 | 319° | 16km/h | 2667m | 4.1m/s | 0°C | 0% | 746.7hPa | 0V | 00:00:00 | 00:00:00 | 00:00:00 | |
| OM5KV | 2026-08-30 23:27:30 | 47.43520 | 19.19170 | 295° | 15km/h | 2651m | 5.1m/s | 8.8°C | 56.7% | 747.9hPa | 0V | 00:00:00 | 00:00:00 | 00:00:00 | |
| OM5KV | 2026-08-30 23:27:29 | 47.43518 | 19.19176 | 293° | 15km/h | 2645m | 5.8m/s | 0°C | 0% | 748.5hPa | 0V | 00:00:00 | 00:00:00 | 00:00:00 | |
| ATIDSZ-14 | 2026-08-30 23:27:26 | 47.43519 | 19.19191 | 250° | 15km/h | 2630m | 5.7m/s | 0°C | 0% | 0hPa | 0V | 00:00:00 | 00:00:00 | 00:00:00 | |
| OM5KV | 2026-08-30 23:27:25 | 47.43521 | 19.19198 | 221° | 5km/h | 2620m | 4.7m/s | 9.1°C | 54.9% | 750.7hPa | 0V | 00:00:00 | 00:00:00 | 00:00:00 | |
| OM5KV | 2026-08-30 23:27:23 | 47.43522 | 19.19199 | 178° | 4km/h | 2615m | 4.6m/s | 0°C | 0% | 0hPa | 0V | 00:00:00 | 00:00:00 | 00:00:00 | |
| OM5KV | 2026-08-30 23:27:17 | 47.43514 | 19.19191 | 122° | 9km/h | 2582m | 4.4m/s | 9.4°C | 52.3% | 754.3hPa | 0V | 00:00:00 | 00:00:00 | 00:00:00 | |
| OM5KV | 2026-08-30 23:27:12 | 47.43525 | 19.19195 | 242° | 13km/h | 2555m | 4.4m/s | 9.6°C | 49.2% | 756.6hPa | 0V | 00:00:00 | 00:00:00 | 00:00:00 | |
| OM5KV | 2026-08-30 23:27:06 | 47.43543 | 19.19200 | 170° | 15km/h | 2521m | 5.4m/s | 9.9°C | 48.8% | 759.7hPa | 0V | 00:00:00 | 00:00:00 | 00:00:00 | |
| OM5KV | 2026-08-30 23:27:01 | 47.43547 | 19.19191 | 327° | 2km/h | 2494m | 5.8m/s | 10.0°C | 0% | 762.2hPa | 0V | 00:00:00 | 00:00:00 | 00:00:00 | |
| OM5KV | 2026-08-30 23:26:55 | 47.43547 | 19.19210 | 292° | 7km/h | 2461m | 5.7m/s | 10.3°C | 0% | 765.3hPa | 0V | 00:00:00 | 00:00:00 | 00:00:00 | |
| OM5KV | 2026-08-30 23:26:49 | 47.43550 | 19.19216 | 47° | 7km/h | 2425m | 6.3m/s | 0°C | 0% | 768.5hPa | 0V | 00:00:00 | 00:00:00 | 00:00:00 |